     2              OBSERVATION DATA    GPS                 RINEX VERSION / TYPE
ASRINEXO V2.7.2 UX SOPAC 02-MAR- 0 15:34                    PGM / RUN BY / DATE
                                                            COMMENT
Original Marker Name: 0301                                  COMMENT
Campaign Name: HPGN 1991                                    COMMENT
4-Character Station Name: 0301                              COMMENT
6-Character Antenna Code: ASHL12                            COMMENT
Vertical Measurement Point: BAS                             COMMENT
Vertical Offset to Rinex Ref. Point: 0.0000                 COMMENT
Radial Measurement Point: RRP                               COMMENT
Radial Offset to Rinex Ref. Point: 0.0000                   COMMENT
Antenna Height from Field Measurement: 2.2150 m             COMMENT
Additional Antenna Identification Info.:                    COMMENT
Original Ashtech L1/L2                                      COMMENT
Original XYZ: 6378137.0000 0.0000 0.0000                    COMMENT
New XYZ position is based on association with SCEC monument COMMENT
E1O4S2O0+0011. Position of that monument is believed to be  COMMENT
valid to within 1 m horizontally; vertical accuracy         COMMENT
should be no worse than 3-times this value.                 COMMENT
                                                            COMMENT
Revised Rinex header created by UCSD GPS archive for        COMMENT
GSAC on 17-Mar-2000 (2000:077) 23:07:05 GMT                 COMMENT
For assistance contact dagnew@ucsd.edu or hjohnson@ucsd.edu COMMENT
                                                            COMMENT
HPGN CA 03 01                                               MARKER NAME
LSW CALIF DEPT TRANSPORTATION                               OBSERVER / AGENCY
587 ASHTECH L-XII 6A                                        REC # / TYPE / VERS
619 ASHTECH GEODETIC L                                      ANT # / TYPE
 -2654221.8157 -4139120.2889  4050138.6549                  APPROX POSITION XYZ
        2.2150        0.0000        0.0000                  ANTENNA: DELTA H/E/N
     1     2     0                                          WAVELENGTH FACT L1/2
     3    C1    L1    L2                                    # / TYPES OF OBSERV
     0                                                      INTERVAL
  1991     7    25     0    40   15.000000                  TIME OF FIRST OBS
  1991     7    25     6    40   15.000000                  TIME OF LAST OBS
                                                            END OF HEADER
 91  7 25  0 40 15.0000000  0  3 03 16 17
  28376614.986           0.563 4         0.013 2
  29997143.714           0.401 3         0.252 1
  28707834.079           0.015 3         0.272 2
 91  7 25  0 40 30.0000000  0  3 03 16 17
  28375462.277       -6058.581 4     -4721.391 2
  30004974.586       41145.632 3     32061.468 2
  28705114.061      -14288.978 3    -11133.986 2
 91  7 25  0 40 45.0000000  0  3 03 16 17
  28374296.690      -12184.173 4     -9494.583 2
  30012796.768       82258.615 3     64097.531 2
  28702380.851      -28635.548 3    -22313.105 2
 91  7 25  0 41  0.0000000  0  3 03 16 17
  28373123.302      -18330.683 4    -14284.077 2
  30020623.453      123383.869 3     96143.150 2
  28699649.142      -42994.835 3    -33502.137 2
 91  7 25  0 41 15.0000000  0  4 03 23 16 17
  28371968.796      -24413.073 4    -19023.596 2
  31875732.595           0.695 2         0.492 1
  30028468.722      164606.421 3    128264.605 2
  28696933.923      -57281.868 4    -44634.876 2
 91  7 25  0 41 30.0000000  0  4 03 23 16 17
  28370817.291      -30450.664 4    -23728.215 2
  31866716.033      -47347.227 2    -36893.787 1
  30036328.387      205906.403 3    160446.394 1
  28694223.206      -71516.448 4    -55726.737 2
 91  7 25  0 41 45.0000000  0  4 03 23 16 17
  20575071.769         -57.396 4       -45.383 2
  24063091.370      132362.840 2    103140.064 1
  22249608.117         216.535 3       168.671 2
  20896917.564         -22.846 3       -17.348 2
 91  7 25  0 42  0.0000000  0  4 03 23 16 17
  20573946.352       -5980.852 4     -4661.061 2
  24054078.106       85040.938 2     66266.051 1
  22257504.358       41694.635 3     32489.241 2
  20894231.731      -14128.137 3    -11008.465 2
 91  7 25  0 42 15.0000000  0  5 03 20 23 16 17
  20572833.220      -11829.043 4     -9218.096 2
  22877312.674           0.462 2         0.244 1
  24045083.130       37750.145 2     29416.307 1
  22265417.979       83278.857 3     64892.505 2
  20891562.668      -28150.996 3    -21935.348 2
 91  7 25  0 42 30.0000000  0  5 03 20 23 16 17
  20571733.577      -17601.143 4    -13715.835 2
  22888625.929       59439.054 2     46315.938 1
  24036096.861       -9508.393 2     -7408.360 1
  22273352.576      124970.018 3     97379.101 2
  20888912.504      -42090.731 3    -32797.459 2
 91  7 25  0 42 45.0000000  0  5 03 20 23 16 17
  20570654.037      -23285.270 4    -18145.016 2
  22899948.189      118943.014 2     92682.587 1
  24027108.184      -56723.141 2    -44198.848 1
  22281304.570      166779.295 3    129957.725 2
  20886274.327      -55935.777 3    -43585.785 2
 91  7 25  0 43  0.0000000  0  5 03 20 23 16 17
  20569589.172      -28887.838 4    -22510.645 2
  22911287.847      178505.618 2    139094.917 1
  24018126.400     -103899.978 2    -80959.821 1
  22289280.559      208699.547 3    162622.836 1
  20883656.254      -69692.634 3    -54305.389 2
 91  7 25  0 43 15.0000000  0  5 03 20 23 16 17
  20568531.793      -34416.294 4    -26818.524 2
  22922627.801      238118.948 2    185546.778 1
  24009162.607     -151046.306 2   -117697.044 1
  22297280.210      250722.920 3    195368.301 2
  20881055.543      -83369.112 3    -64962.363 2
 91  7 25  0 43 30.0000000  0  5 03 20 23 16 17
  20567499.910      -39851.705 4    -31053.911 2
  22933988.730      297801.249 2    232052.380 1
  24000200.315     -198143.445 2   -154395.891 1
  22305302.354      292867.887 3    228208.493 2
  20878472.230      -96946.387 3    -75542.044 3
 91  7 25  0 43 45.0000000  0  5 03 20 23 16 17
  20566480.922      -45209.785 4    -35229.040 2
  22945351.160      357536.331 2    278599.104 1
  23991238.319     -245206.687 2   -191068.383 1
  22313340.989      335118.428 3    261130.979 2
  20875906.316     -110440.302 3    -86056.751 2
 91  7 25  0 44  0.0000000  0  5 03 20 23 16 17
  20565476.609      -50484.289 4    -39339.026 3
  22956732.785      417329.746 2    325191.312 1
  23982291.907     -292229.746 2   -227709.515 1
  22321399.116      377480.100 3    294140.055 1
  20873353.576     -123844.854 3    -96501.840 2
 91  7 25  0 44 15.0000000  0  5 03 20 23 16 17
  20564491.806      -55657.993 4    -43370.478 2
  22968125.195      477197.931 2    371841.760 1
  23973350.886     -339195.631 2   -264306.121 1
  22329485.721      419969.351 3    327248.536 2
  20870820.327     -137143.254 3   -106864.206 2
 91  7 25  0 44 30.0000000  0  5 03 20 23 16 17
  20563524.960      -60753.289 4    -47340.833 2
  22979524.515      537117.993 2    418532.613 1
  23964426.670     -386126.328 2   -300875.357 1
  22337593.301      462563.663 3    360438.888 2
  20868305.070     -150358.062 3   -117161.439 3
 91  7 25  0 44 45.0000000  0  5 03 20 23 16 17
  20562570.433      -65762.825 4    -51244.357 2
  22990939.104      597097.097 2    465269.506 1
  23955503.344     -433014.368 2   -337411.741 1
  22345722.782      505269.747 3    393716.328 2
  20865810.806     -163481.847 3   -127387.739 2
 91  7 25  0 45  0.0000000  0  5 03 20 23 16 17
  20561633.583      -70678.731 4    -55074.928 2
  23002367.496      657142.356 2    512057.926 1
  23946586.929     -479852.024 2   -373908.535 1
  22353867.846      548095.071 3    427086.687 2
  20863329.123     -176507.136 3   -137537.284 2
 91  7 25  0 45 15.0000000  0  5 03 20 23 16 17
  20560714.410      -75506.311 4    -58836.674 2
  23013801.576      717247.771 2    558893.236 1
  23937682.781     -526644.482 2   -410370.032 1
  22362040.481      591033.675 3    460545.322 2
  20860870.527     -189439.335 3   -147614.311 3
 91  7 25  0 45 30.0000000  0  5 03 20 23 16 17
  20559812.338      -80243.611 4    -62528.070 2
  23025252.444      777414.825 2    605776.560 1
  23928793.046     -573389.680 2   -446794.635 1
  22370231.718      634087.282 3    494093.562 2
  20858426.014     -202276.825 3   -157617.530 3
 91  7 25  0 45 45.0000000  0  5 03 20 23 16 17
  20558928.851      -84897.452 4    -66154.422 2
  23036716.522      837636.083 2    652702.126 1
  23919902.405     -620094.172 2   -483187.614 1
  22378444.820      677248.521 3    527725.665 2
  20856001.585     -215026.539 3   -167552.341 2
 91  7 25  0 46  0.0000000  0  5 03 20 23 16 17
  20558065.153      -89440.562 4    -69694.507 2
  23048193.774      897938.113 2    699690.638 1
  23911024.345     -666731.042 2   -519527.833 1
  22386683.713      720543.805 3    561462.241 1
  20853597.556     -227661.838 3   -177398.012 2
 91  7 25  0 46 15.0000000  0  5 03 20 23 16 17
  20557215.240      -93891.862 4    -73163.054 2
  23059678.809      958301.712 2    746727.104 1
  23902155.586     -713318.801 2   -555829.801 1
  22394945.397      763954.084 3    595288.402 1
  20851210.000     -240201.276 3   -187168.978 2
 91  7 25  0 46 30.0000000  0  5 03 20 23 16 17
  20556385.709      -98255.096 4    -76562.959 2
  23071176.165     1018722.468 2    793808.125 1
  23893304.818     -759861.331 2   -592096.581 1
  22403226.869      807474.796 3    629200.613 1
  20848839.545     -252649.109 3   -196868.572 2
 91  7 25  0 46 45.0000000  0  5 03 20 23 16 17
  20555568.777     -102555.484 4    -79913.906 2
  23082671.391     1079174.601 2    840913.593 1
  23884451.345     -806383.603 2   -628347.561 1
  22411526.332      851080.245 3    663178.856 2
  20846482.282     -265030.746 3   -206516.584 2
 91  7 25  0 47  0.0000000  0  5 03 20 23 16 17
  20554761.739     -106802.944 4    -83223.595 2
  23094182.532     1139647.762 2    888035.453 1
  23875597.262     -852895.605 2   -664590.533 1
  22419837.469      894760.231 3    697215.183 2
  20844140.602     -277356.151 3   -216120.771 2
 91  7 25  0 47 15.0000000  0  5 03 20 23 16 17
  20553966.393     -110972.159 4    -86472.331 3
  23105694.266     1200166.512 2    935192.829 1
  23866756.091     -899371.896 2   -700805.691 1
  22428165.708      938539.403 3    731328.805 2
  20841808.817     -289600.304 3   -225661.644 3
 91  7 25  0 47 30.0000000  0  5 03 20 23 16 17
  20553188.131     -115059.868 4    -89657.551 3
  23117226.382     1260733.342 2    982387.659 1
  23857916.108     -945809.437 2   -736990.619 1
  22436520.017      982420.496 3    765521.838 2
  20839497.413     -301760.470 3   -235137.083 3
 91  7 25  0 47 45.0000000  0  5 03 20 23 16 17
  20552430.547     -119049.122 4    -92766.057 2
  23128764.797     1321364.862 2   1029632.910 1
  23849091.725     -992190.956 2   -773131.945 1
  22444891.427     1026419.979 3    799807.138 1
  20837202.500     -313819.745 3   -244533.913 2
 91  7 25  0 48  0.0000000  0  5 03 20 23 16 17
  20551687.063     -122952.430 4    -95807.582 2
  23140307.104     1382048.142 2   1076918.489 1
  23840276.922    -1038528.572 2   -809239.030 1
  22453284.406     1070525.050 3    834174.690 2
  20834922.891     -325790.651 3   -253861.865 2
 91  7 25  0 48 15.0000000  0  5 03 20 23 16 17
  20550961.274     -126770.323 4    -98782.552 2
  23151868.292     1442781.818 2   1124243.347 1
  23831466.324    -1084823.132 2   -845312.566 1
  22461697.784     1114734.305 3    868623.441 1
  20832660.942     -337674.086 3   -263121.671 3
 91  7 25  0 48 30.0000000  0  5 03 20 23 16 17
  20550251.661     -130491.926 4   -101682.498 2
  23163435.780     1503576.387 2   1171615.654 1
  23822663.213    -1131063.527 2   -881343.896 1
  22470132.155     1159058.303 3    903161.594 2
  20830417.594     -349459.362 4   -272304.986 3
 91  7 25  0 48 45.0000000  0  5 03 20 23 16 17
  20549559.428     -134119.877 4   -104509.460 3
  23175015.273     1564428.577 2   1219032.860 1
  23813880.187    -1177252.201 2   -917334.962 1
  22478585.093     1203493.964 3    937786.754 2
  20828196.740     -361149.197 3   -281413.938 3
 91  7 25  0 49  0.0000000  0  5 03 20 23 16 17
  20548887.595     -137658.369 4   -107266.725 2
  23186606.755     1625333.569 2   1266491.211 1
  23805089.081    -1223393.351 2   -953288.921 1
  22487063.229     1248036.636 3    972495.301 1
  20825987.874     -372748.064 3   -290451.999 2
 91  7 25  0 49 15.0000000  0  5 03 20 23 16 17
  20548231.659     -141104.518 4   -109952.025 2
  23198207.223     1686293.756 2   1313992.569 1
  23796322.545    -1269484.333 2   -989203.855 1
  22495561.450     1292688.414 3   1007288.884 2
  20823798.185     -384253.289 3   -299417.092 2
 91  7 25  0 49 30.0000000  0  5 03 20 23 16 17
  20547593.399     -144454.278 4   -112562.220 2
  23209820.570     1747312.609 2   1361539.601 1
  23787563.217    -1315520.853 2  -1025076.354 1
  22504075.847     1337452.933 3   1042170.275 2
  20821628.582     -395661.141 3   -308306.308 3
 91  7 25  0 49 45.0000000  0  5 03 20 23 16 17
  20546975.225     -147714.309 4   -115102.498 3
  23221442.328     1808382.967 2   1409126.796 1
  23778808.966    -1361509.478 2  -1060911.496 1
  22512613.349     1382323.285 3   1077134.164 2
  20819475.784     -406978.542 3   -317125.060 3
 91  7 25  0 50  0.0000000  0  5 03 20 23 16 17
  20546372.338     -150885.114 4   -117573.252 2
  23233069.478     1869503.414 2   1456753.038 1
  23770068.222    -1407450.702 2  -1096709.739 1
  22521178.108     1427297.965 3   1112179.323 1
  20817335.864     -418206.362 3   -325873.990 3
 91  7 25  0 50 15.0000000  0  5 03 20 23 16 17
  20545778.751     -153969.498 4   -119976.664 2
  23244715.212     1930670.876 2   1504415.892 1
  23761337.372    -1453347.317 2  -1132473.199 1
  22529754.279     1472374.125 3   1147303.572 2
  20815215.418     -429347.388 3   -334555.290 2
 91  7 25  0 50 30.0000000  0  5 03 20 23 16 17
  20545211.549     -156965.442 4   -122311.148 2
  23256358.556     1991886.789 2   1552116.500 1
  23752613.711    -1499196.884 2  -1168199.976 1
  22538348.127     1517553.292 3   1182508.096 2
  20813115.372     -440399.562 3   -343167.358 2
 91  7 25  0 50 45.0000000  0  5 03 20 23 16 17
  20544664.729     -159867.917 4   -124572.816 2
  23268020.484     2053155.709 2   1599858.428 1
  23743900.242    -1544994.305 2  -1203886.169 1
  22546966.266     1562840.093 3   1217796.476 2
  20811028.517     -451358.177 3   -351706.525 3
 91  7 25  0 51  0.0000000  0  5 03 20 23 16 17
  20544126.006     -162677.394 4   -126762.018 2
  23279691.399     2114476.054 2   1647640.443 1
  23735181.677    -1590740.446 2  -1239532.376 1
  22555604.787     1608232.940 3   1253167.496 2
  20808961.452     -462224.371 3   -360173.677 2
 91  7 25  0 51 15.0000000  0  5 03 20 23 16 17
  20543610.352     -165387.513 4   -128873.792 3
  23291368.928     2175853.947 2   1695467.220 1
  23726493.388    -1636428.518 2  -1275133.355 1
  22564266.081     1653737.692 3   1288625.722 2
  20806910.580     -472991.910 3   -368563.951 3
 91  7 25  0 51 30.0000000  0  5 03 20 23 16 17
  20543113.597     -168009.436 4   -130916.839 3
  23303059.020     2237277.840 2   1743329.913 1
  23717810.805    -1682069.788 2  -1310697.791 1
  22572946.866     1699342.910 3   1324162.216 1
  20804880.684     -483671.951 4   -376886.046 3
 91  7 25  0 51 45.0000000  0  5 03 20 23 16 17
  20542628.533     -170547.275 4   -132894.374 2
  23314752.132     2298742.945 2   1791224.704 1
  23709135.115    -1727668.332 2  -1346228.986 1
  22581640.547     1745044.456 3   1359773.781 1
  20802863.979     -494268.863 4   -385143.366 3
 91  7 25  0 52  0.0000000  0  5 03 20 23 16 17
  20542168.354     -172978.031 4   -134788.464 2
  23326459.623     2360271.656 2   1839169.044 1
  23700469.913    -1773200.996 2  -1381708.863 1
  22590359.426     1790864.370 3   1395477.571 2
  20800867.657     -504759.866 4   -393318.160 3
 91  7 25  0 52 15.0000000  0  5 03 20 23 16 17
  20541724.054     -175307.759 4   -136603.832 2
  23338182.121     2421857.182 2   1887157.667 1
  23691812.807    -1818673.634 2  -1417141.904 1
  22599101.968     1836795.783 3   1431268.262 2
  20798887.825     -515151.229 4   -401415.314 3
 91  7 25  0 52 30.0000000  0  5 03 20 23 16 17
  20541299.560     -177527.098 4   -138333.180 3
  23349912.384     2483508.612 2   1935197.632 1
  23683175.787    -1864076.892 2  -1452520.905 1
  22607865.205     1882847.721 3   1467152.837 1
  20796932.877     -525433.795 4   -409427.683 2
 91  7 25  0 52 45.0000000  0  5 03 20 23 16 17
  20540894.540     -179652.378 4   -139989.239 3
  23361660.062     2545208.877 2   1983275.671 1
  23674541.158    -1909427.024 2  -1487858.558 1
  22616648.214     1929003.547 3   1503118.396 2
  20794995.327     -535624.514 4   -417368.490 3
 91  7 25  0 53  0.0000000  0  5 03 20 23 16 17
  20540507.197     -181699.215 4   -141584.165 2
  23373402.925     2606941.883 2   2031379.182 1
  23665923.315    -1954739.733 2  -1523167.024 1
  22625447.731     1975247.155 3   1539152.347 1
  20793067.357     -545739.137 4   -425250.000 3
 91  7 25  0 53 15.0000000  0  5 03 20 23 16 17
  20540133.361     -183664.100 4   -143115.237 2
  23385158.700     2668710.418 2   2079510.419 1
  23657304.583    -2000011.518 2  -1558443.599 1
  22634266.722     2021581.204 3   1575256.765 2
  20791157.989     -555774.145 4   -433069.471 3
 91  7 25  0 53 30.0000000  0  5 03 20 23 16 17
  20539774.515     -185544.008 4   -144580.102 2
  23396917.756     2730517.359 2   2127671.596 1
  23648691.557    -2045238.858 2  -1593685.569 1
  22643100.999     2068008.720 3   1611434.020 2
  20789268.096     -565726.470 4   -440824.510 3
 91  7 25  0 53 45.0000000  0  5 03 20 23 16 17
  20539431.845     -187345.415 4   -145983.795 2
  23408682.501     2792355.306 2   2175856.895 1
  23640102.490    -2090428.488 2  -1628898.112 1
  22651949.376     2114522.329 3   1647678.358 1
  20787386.596     -575603.176 4   -448520.633 3
 91  7 25  0 54  0.0000000  0  5 03 20 23 16 17
  20539107.777     -189054.846 4   -147315.811 2
  23420463.457     2854236.993 2   2224076.309 1
  23631510.439    -2135566.765 2  -1664070.618 1
  22660819.636     2161135.247 3   1684000.086 1
  20785523.681     -585391.133 4   -456147.590 3
 91  7 25  0 54 15.0000000  0  5 03 20 23 16 17
  20538797.792     -190685.822 4   -148586.691 2
  23432234.502     2916148.609 2   2272318.991 1
  23622928.579    -2180667.103 2  -1699213.592 1
  22669706.980     2207833.140 3   1720388.033 2
  20783673.067     -595103.523 4   -463715.678 3
 91  7 25  0 54 30.0000000  0  5 03 20 23 16 17
  20538503.389     -192225.182 4   -149786.187 2
  23444032.838     2978102.866 2   2320594.933 1
  23614355.427    -2225716.453 2  -1734316.868 1
  22678609.924     2254628.881 3   1756852.204 2
  20781844.337     -604727.782 4   -471215.088 3
 91  7 25  0 54 45.0000000  0  5 03 20 23 16 17
  20538228.775     -193663.163 4   -150906.684 3
  23455827.266     3040108.727 2   2368911.109 1
  23605796.653    -2270704.948 2  -1769372.677 1
  22687538.642     2301531.386 3   1793399.584 2
  20780033.580     -614254.422 4   -478638.424 3
 91  7 25  0 55  0.0000000  0  5 03 20 23 16 17
  20537974.857     -195019.710 4   -151963.737 2
  23467638.498     3102145.795 2   2417251.564 1
  23597245.366    -2315652.516 2  -1804396.616 1
  22696479.959     2348520.488 3   1830014.423 2
  20778230.938     -623703.604 4   -486001.402 3
 91  7 25  0 55 15.0000000  0  5 03 20 23 16 17
  20537737.726     -196261.074 4   -152931.026 2
  23479455.105     3164247.027 2   2465642.065 1
  23588703.676    -2360525.353 2  -1839362.368 1
  22705441.658     2395629.353 3   1866722.602 2
  20776455.867     -633041.809 4   -493277.912 3
 91  7 25  0 55 30.0000000  0  5 03 20 23 16 17
  20537517.975     -197415.455 4   -153830.537 2
  23491272.637     3226383.961 2   2514060.329 1
  23580172.195    -2405351.400 2  -1874291.609 1
  22714424.925     2442829.410 3   1903501.834 2
  20774693.081     -642297.170 4   -500489.870 3
 91  7 25  0 55 45.0000000  0  5 03 20 23 16 17
  20537313.808     -198484.925 4   -154663.889 2
  23503108.735     3288553.843 2   2562504.314 1
  23571648.793    -2450132.680 2  -1909185.966 1
  22723425.905     2490118.031 3   1940350.076 2
  20772949.193     -651472.302 4   -507639.304 3
 91  7 25  0 56  0.0000000  0  5 03 20 23 16 17
  20537124.944     -199467.951 4   -155429.883 2
  23514941.536     3350757.325 2   2610974.419 1
  23563130.487    -2494867.634 2  -1944044.243 1
  22732440.356     2537495.922 3   1977267.869 2
  20771216.683     -660565.819 4   -514725.141 3
 91  7 25  0 56 15.0000000  0  5 03 20 23 16 17
  20536950.773     -200381.929 4   -156142.064 3
  23526788.437     3412976.816 2   2659457.046 1
  23554629.561    -2539573.499 2  -1978879.853 1
  22741470.110     2584945.571 3   2014241.595 1
  20769498.273     -669595.133 4   -521760.953 3
 91  7 25  0 56 30.0000000  0  5 03 20 23 16 17
  20536795.170     -201224.049 4   -156798.259 2
  23538629.038     3475214.373 2   2707953.738 1
  23546131.357    -2584247.575 2  -2013690.688 1
  22750510.353     2632468.811 3   2051272.667 1
  20767793.963     -678557.947 4   -528744.953 3
 91  7 25  0 56 45.0000000  0  5 03 20 23 16 17
  20536647.977     -201982.760 4   -157389.467 2
  23550480.440     3537481.079 2   2756473.154 1
  23537639.732    -2628878.284 2  -2048467.738 1
  22759568.883     2680076.911 2   2088369.858 1
  20766101.326     -687442.757 4   -535668.167 3
 91  7 25  0 57  0.0000000  0  5 03 20 23 16 17
  20536521.463     -202655.451 4   -157913.631 2
  23562328.248     3599778.976 2   2805016.854 1
  23529149.311    -2673462.949 2  -2083208.893 1
  22768651.390     2727771.856 3   2125534.699 1
  20764425.495     -696247.372 4   -542528.892 3
 91  7 25  0 57 15.0000000  0  5 03 20 23 16 17
  20536406.344     -203243.593 4   -158371.923 2
  23574196.420     3662105.887 2   2853583.149 1
  23520669.971    -2718002.980 2  -2117915.293 1
  22777740.196     2775551.828 3   2162765.834 1
  20762766.729     -704973.352 4   -549328.336 3
 91  7 25  0 57 30.0000000  0  5 03 20 23 16 17
  20536311.013     -203750.653 4   -158767.034 3
  23586067.908     3724457.926 2   2902169.048 1
  23512202.341    -2762501.529 2  -2152589.354 1
  22786845.196     2823412.547 2   2200059.852 1
  20761119.673     -713624.443 4   -556069.428 3
 91  7 25  0 57 45.0000000  0  5 03 20 23 16 17
  20536230.359     -204173.687 4   -159096.667 2
  23597927.094     3786837.449 2   2950776.332 1
  23503749.089    -2806955.711 2  -2187228.863 1
  22795967.280     2871356.766 3   2237418.951 2
  20759486.106     -722198.009 4   -562750.118 3
 91  7 25  0 58  0.0000000  0  5 03 20 23 16 17
  20536168.009     -204508.449 4   -159357.522 2
  23609807.865     3849248.129 2   2999407.908 1
  23495294.039    -2851361.277 2  -2221830.444 1
  22805111.857     2919388.042 2   2274845.884 1
  20757872.031     -730690.096 4   -569367.306 3
 91  7 25  0 58 15.0000000  0  5 03 20 23 16 17
  20536119.742     -204756.685 4   -159550.936 2
  23621689.840     3911687.773 2   3048062.079 1
  23486857.592    -2895719.766 2  -2256395.392 1
  22814268.702     2967504.119 3   2312338.887 1
  20756273.538     -739102.565 4   -575922.466 3
 91  7 25  0 58 30.0000000  0  5 03 20 23 16 17
  20536089.169     -204917.841 4   -159676.511 2
  23633579.005     3974155.955 2   3096738.486 1
  23478425.629    -2940031.029 2  -2290923.545 1
  22823440.257     3015704.891 3   2349897.907 1
  20754684.923     -747435.298 4   -582415.486 3
 91  7 25  0 58 45.0000000  0  5 03 20 23 16 17
  20536077.477     -204991.694 4   -159734.059 2
  23645466.076     4036652.898 2   3145437.292 1
  23469999.059    -2984294.163 2  -2325414.172 1
  22832630.100     3063990.735 2   2387523.202 1
  20753115.817     -755687.590 4   -588845.832 3
 91  7 25  0 59  0.0000000  0  5 03 20 23 16 17
  20536078.367     -204981.903 4   -159726.402 2
  23657364.839     4099174.178 2   3194155.034 1
  23461588.682    -3028512.968 2  -2359870.255 1
  22841833.432     3112357.048 3   2425211.214 2
  20751561.386     -763863.907 4   -595216.975 3
 91  7 25  0 59 15.0000000  0  5 03 20 23 16 17
  20536091.559     -204888.982 4   -159654.006 3
  23669266.009     4161718.579 2   3242890.810 1
  23453183.104    -3072688.001 2  -2394292.255 1
  22851052.941     3160802.708 3   2462961.010 1
  20750017.757     -771964.993 4   -601529.492 3
 91  7 25  0 59 30.0000000  0  5 03 20 23 16 17
  20536132.637     -204702.669 4   -159508.821 3
  23681174.963     4224295.823 2   3291652.185 1
  23444782.622    -3116809.048 2  -2428672.189 1
  22860284.751     3209337.482 3   2500780.303 1
  20748495.715     -779980.420 4   -607775.260 3
 91  7 25  0 59 45.0000000  0  5 03 20 23 16 17
  20536179.997     -204427.730 4   -159294.577 2
  23693089.012     4286900.723 2   3340435.107 1
  23436401.317    -3160880.471 2  -2463013.439 1
  22869538.148     3257956.472 3   2538665.187 1
  20746985.660     -787915.322 4   -613958.290 3
 91  7 25  1  0  0.0000000  0  5 03 20 23 16 17
  20536248.053     -204073.228 4   -159018.336 2
  23705007.266     4349523.448 2   3389231.914 1
  23428020.326    -3204911.475 2  -2497323.204 1
  22878806.535     3306649.908 3   2576608.081 1
  20745488.204     -795779.212 4   -620085.987 3
 91  7 25  1  0 15.0000000  0  5 03 20 23 16 17
  20536334.990     -203630.722 4   -158673.531 3
  23716931.506     4412171.797 2   3438048.691 1
  23419647.119    -3248893.594 2  -2531594.858 1
  22888086.613     3355425.337 3   2614614.860 2
  20744002.720     -803563.778 4   -626151.867 3
 91  7 25  1  0 30.0000000  0  5 03 20 23 16 17
  20536434.229     -203102.014 4   -158261.543 2
  23728852.465     4474843.744 2   3486883.839 1
  23411287.103    -3292828.451 2  -2565829.766 1
  22897388.574     3404280.564 3   2652683.822 1
  20742539.432     -811271.001 4   -632157.476 3
 91  7 25  1  0 45.0000000  0  5 03 20 23 16 17
  20536548.144     -202494.064 4   -157787.805 2
  23740785.692     4537531.632 2   3535731.411 1
  23402936.389    -3336723.059 2  -2600033.234 1
  22906694.129     3453208.072 2   2690809.116 1
  20741084.241     -818908.516 4   -638108.779 3
 91  7 25  1  1  0.0000000  0  5 03 20 23 16 17
  20536680.347     -201799.323 4   -157246.450 2
  23752715.045     4600242.417 2   3584596.816 1
  23394587.472    -3380569.778 2  -2634199.386 1
  22916024.272     3502215.108 3   2728996.377 1
  20739646.447     -826468.725 4   -643999.837 3
 91  7 25  1  1 15.0000000  0  5 03 20 23 16 17
  20536832.042     -201021.080 4   -156640.030 3
  23764654.571     4662972.364 2   3633477.179 1
  23386251.136    -3424371.759 2  -2668330.691 1
  22925362.808     3551297.575 3   2767242.415 2
  20738223.626     -833954.726 4   -649833.079 3
 91  7 25  1  1 30.0000000  0  5 03 20 23 16 17
  20536992.741     -200162.542 4   -155971.038 2
  23776595.598     4725717.709 2   3682369.544 1
  23377933.699    -3468131.955 2  -2702429.442 1
  22934717.521     3600451.900 3   2805544.453 1
  20736809.810     -841370.129 4   -655611.303 3
 91  7 25  1  1 45.0000000  0  5 03 20 23 16 17
  20537172.618     -199217.807 4   -155234.868 2
  23788537.532     4788483.498 2   3731277.809 1
  23369615.948    -3511844.750 2  -2736491.311 1
  22944083.646     3649683.594 3   2843906.771 2
  20735415.171     -848709.551 4   -661330.315 3
 91  7 25  1  2  0.0000000  0  5 03 20 23 16 17
  20537371.969     -198182.971 4   -154428.507 3
  23800485.766     4851273.188 2   3780204.728 1
  23361304.811    -3555506.067 2  -2770512.985 1
  22953466.838     3698996.162 2   2882332.100 1
  20734031.927     -855968.995 4   -666987.013 3
 91  7 25  1  2 15.0000000  0  5 03 20 23 16 17
  20537584.234     -197061.011 4   -153554.242 2
  23812435.501     4914083.238 2   3829147.501 1
  23353007.145    -3599118.942 2  -2804496.946 1
  22962864.146     3748385.865 2   2920817.552 1
  20732663.673     -863151.860 4   -672584.042 3
 91  7 25  1  2 30.0000000  0  5 03 20 23 16 17
  20537814.472     -195849.504 4   -152610.217 2
  23824398.707     4976915.682 2   3878107.688 1
  23344718.484    -3642680.533 2  -2838440.959 1
  22972276.724     3797854.791 2   2959364.722 2
  20731316.708     -870255.894 4   -678119.641 3
 91  7 25  1  2 45.0000000  0  5 03 20 23 16 17
  20538060.590     -194552.489 4   -151599.550 2
  23836361.337     5039765.860 2   3927081.726 1
  23336430.433    -3686195.247 2  -2872348.429 1
  22981703.995     3847398.156 2   2997969.907 1
  20729974.839     -877285.647 4   -683597.360 3
 91  7 25  1  3  0.0000000  0  5 03 20 23 16 17
  20538322.308     -193167.530 4   -150520.347 3
  23848321.245     5102635.862 2   3976071.228 1
  23328160.653    -3729660.280 2  -2906217.192 1
  22991146.552     3897017.932 2   3036634.604 1
  20728653.351     -884238.494 4   -689015.154 3
 91  7 25  1  3 15.0000000  0  5 03 20 23 16 17
  20538606.223     -191694.831 4   -149372.791 2
  23860288.360     5165524.599 2   4025075.304 1
  23319898.673    -3773075.852 2  -2940047.405 1
  23000605.320     3946713.049 2   3075358.043 1
  20727344.463     -891114.906 4   -694373.391 3
 91  7 25  1  3 30.0000000  0  5 03 20 23 16 17
  20538903.313     -190132.073 4   -148155.056 2
  23872262.682     5228433.817 2   4074095.349 1
  23311652.572    -3816439.548 2  -2973837.199 1
  23010074.855     3996485.906 2   3114142.033 1
  20726050.861     -897912.974 4   -699670.577 3
 91  7 25  1  3 45.0000000  0  5 03 20 23 16 17
  20539215.393     -188479.365 4   -146867.231 2
  23884230.094     5291362.965 2   4123130.917 1
  23303402.894    -3859751.618 2  -3007586.778 1
  23019564.493     4046335.755 2   3152986.043 1
  20724774.639     -904632.917 4   -704906.891 3
 91  7 25  1  4  0.0000000  0  5 03 20 23 16 17
  20539550.873     -186742.232 4   -145513.616 3
  23896211.291     5354305.816 2   4172177.142 1
  23295169.096    -3903017.508 2  -3041300.373 1
  23029061.617     4096256.340 3   3191885.159 2
  20723504.717     -911280.819 4   -710087.060 3
 91  7 25  1  4 15.0000000  0  5 03 20 23 16 17
  20539891.432     -184920.393 4   -144094.000 3
  23908189.505     5417262.282 2   4221233.987 1
  23286946.083    -3946236.780 2  -3074977.613 1
  23038576.418     4146247.546 2   3230839.312 2
  20722255.787     -917856.299 4   -715210.798 3
 91  7 25  1  4 30.0000000  0  5 03 20 23 16 17
  20540257.782     -183005.908 4   -142602.192 2
  23920175.815     5480239.685 2   4270307.164 1
  23278735.668    -3989401.437 2  -3108612.332 1
  23048103.225     4196316.693 2   3269854.200 1
  20721016.734     -924351.747 4   -720272.181 3
 91  7 25  1  4 45.0000000  0  5 03 20 23 16 17
  20540638.510     -181004.039 4   -141042.293 2
  23932163.312     5543232.189 2   4319392.128 1
  23270534.537    -4032516.589 2  -3142208.426 1
  23057646.522     4246458.412 2   3308925.612 2
  20719800.489     -930772.410 4   -725275.288 3
 91  7 25  1  5  0.0000000  0  5 03 20 23 16 17
  20541037.841     -178914.450 4   -139414.040 2
  23944152.013     5606239.468 2   4368488.528 1
  23262338.222    -4075582.053 2  -3175765.838 1
  23067200.918     4296671.956 2   3348053.001 1
  20718590.526     -937118.479 4   -730220.265 3
 91  7 25  1  5 15.0000000  0  5 03 20 23 16 17
  20541451.551     -176735.722 4   -137716.322 3
  23956149.107     5669262.571 2   4417597.292 1
  23254152.080    -4118596.109 2  -3209283.198 1
  23076770.879     4346958.594 2   3387237.372 1
  20717397.647     -943388.548 4   -735106.020 3
 91  7 25  1  5 30.0000000  0  5 03 20 23 16 17
  20541885.346     -174467.132 4   -135948.591 2
  23968138.105     5732301.592 2   4466718.485 1
  23245971.645    -4161558.016 2  -3242759.883 1
  23086353.142     4397318.407 2   3426478.767 1
  20716220.054     -949582.201 4   -739932.222 3
 91  7 25  1  5 45.0000000  0  5 03 20 23 16 17
  20542334.741     -172104.562 4   -134107.620 2
  23980147.484     5795360.134 2   4515854.893 1
  23237814.890    -4204463.665 2  -3276192.794 1
  23095951.600     4447754.939 2   3465779.898 1
  20715056.560     -955695.419 4   -744695.767 3
 91  7 25  1  6  0.0000000  0  5 03 20 23 16 17
  20542798.812     -169656.219 4   -132199.814 2
  23992142.485     5858429.463 2   4564999.669 1
  23229651.242    -4247321.150 2  -3309588.152 1
  23105558.747     4498259.768 2   3505134.250 1
  20713904.759     -961736.690 4   -749403.241 3
 91  7 25  1  6 15.0000000  0  5 03 20 23 16 17
  20543281.782     -167119.390 4   -130223.058 2
  24004150.381     5921511.163 2   4614154.058 1
  23221505.288    -4290128.105 2  -3342944.131 1
  23115182.089     4548834.623 2   3544543.194 1
  20712771.542     -967704.172 4   -754053.216 3
 91  7 25  1  6 30.0000000  0  5 03 20 23 16 17
  20543783.336     -164493.877 4   -128177.203 2
  24016153.461     5984605.725 2   4663318.543 1
  23213368.025    -4332883.609 2  -3376259.996 1
  23124821.921     4599479.679 2   3584006.833 1
  20711651.813     -973597.105 4   -758645.104 3
 91  7 25  1  6 45.0000000  0  5 03 20 23 16 17
  20544297.175     -161776.648 4   -126059.878 2
  24028164.655     6047715.278 2   4712494.647 1
  23205240.045    -4375584.936 2  -3409533.670 1
  23134471.647     4650196.905 2   3623526.714 1
  20710544.091     -979412.988 4   -763176.942 3
 91  7 25  1  7  0.0000000  0  5 03 20 23 16 17
  20544832.304     -158970.822 4   -123873.510 2
  24040179.723     6110835.953 2   4761679.487 1
  23197128.259    -4418235.246 2  -3442767.599 1
  23144138.439     4700982.472 2   3663099.857 1
  20709449.840     -985155.400 4   -767651.541 3
 91  7 25  1  7 15.0000000  0  5 03 20 23 16 17
  20545382.736     -156070.005 4   -121613.136 2
  24052188.823     6173973.946 2   4810877.793 1
  23189015.880    -4460827.528 2  -3475956.300 1
  23153817.237     4751843.124 2   3702731.483 1
  20708374.488     -990817.797 4   -772063.789 3
 91  7 25  1  7 30.0000000  0  5 03 20 23 16 17
  20545954.126     -153078.555 4   -119282.133 2
  24064207.504     6237124.160 2   4860085.591 1
  23180931.368    -4503366.525 2  -3509103.490 1
  23163509.839     4802773.668 2   3742417.576 1
  20707306.936     -996405.050 4   -776417.479 3
 91  7 25  1  7 45.0000000  0  5 03 20 23 16 17
  20546540.523     -149992.650 4   -116877.522 2
  24076228.575     6300289.891 2   4909305.494 1
  23172848.078    -4545848.141 2  -3542205.920 1
  23173215.911     4853777.342 2   3782160.657 1
  20706259.452    -1001913.225 4   -780709.555 3
 91  7 25  1  8  0.0000000  0  5 03 20 23 16 17
  20547142.817     -146814.667 4   -114401.173 2
  24088254.742     6363468.147 2   4958535.146 1
  23164771.071    -4588274.946 2  -3575265.705 1
  23182935.787     4904851.249 2   3821958.478 1
  20705229.365    -1007344.896 4   -784942.005 3
 91  7 25  1  8 15.0000000  0  5 03 20 23 16 17
  20547766.680     -143548.806 4   -111856.341 2
  24100271.031     6426654.262 2   5007770.948 1
  23156706.644    -4630651.044 2  -3608285.968 2
  23192665.558     4955990.930 2   3861807.532 1
  20704204.671    -1012704.507 4   -789118.327 3
 91  7 25  1  8 30.0000000  0  5 03 20 23 16 17
  20548406.126     -140192.077 4   -109240.703 2
  24112303.497     6489850.696 2   5057014.752 1
  23148653.927    -4672973.337 2  -3641264.292 1
  23202410.300     5007198.670 2   3901709.619 1
  20703202.767    -1017989.732 4   -793236.677 3
 91  7 25  1  8 45.0000000  0  5 03 20 23 16 17
  20549060.875     -136744.766 4   -106554.482 2
  24124328.774     6553056.440 2   5106265.852 1
  23140608.382    -4715242.068 2  -3674200.853 1
  23212166.159     5058473.483 2   3941663.997 1
  20702208.663    -1023200.985 4   -797297.380 3
 91  7 25  1  9  0.0000000  0  5 03 20 23 16 17
  20549735.414     -133200.215 4   -103792.467 2
  24136358.849     6616277.837 2   5155529.119 1
  23132582.347    -4757450.347 2  -3707090.311 1
  23221942.381     5109821.501 2   3981675.373 1
  20701234.627    -1028331.424 4   -801295.118 3
 91  7 25  1  9 15.0000000  0  5 03 20 23 16 17
  20550430.630     -129558.048 4   -100954.439 2
  24148392.223     6679514.749 2   5204804.463 1
  23124558.702    -4799597.622 2  -3739932.272 1
  23231724.310     5161242.879 2   4021743.947 1
  20700274.097    -1033380.932 4   -805229.787 3
 91  7 25  1  9 30.0000000  0  5 03 20 23 16 17
  20551139.039     -125827.921 4    -98047.846 2
  24160422.595     6742756.596 2   5254083.709 1
  23116540.152    -4841694.218 2  -3772734.720 1
  23241523.620     5212726.988 2   4061861.379 1
  20699327.056    -1038360.006 4   -809109.580 3
 91  7 25  1  9 45.0000000  0  5 03 20 23 16 17
  20551867.830     -122004.909 4    -95068.870 2
  24172466.753     6806008.012 2   5303370.331 1
  23108548.877    -4883734.767 2  -3805493.504 1
  23251328.635     5264278.625 2   4102031.447 1
  20698391.707    -1043263.463 4   -812930.444 3
 91  7 25  1 10  0.0000000  0  5 03 20 23 16 17
  20552609.517     -118087.479 4    -92016.329 2
  24184503.110     6869269.952 2   5352665.215 1
  23100559.120    -4925717.581 2  -3838207.313 1
  23261153.143     5315898.775 2   4142254.910 1
  20697472.831    -1048090.033 4   -816691.394 3
 91  7 25  1 10 15.0000000  0  5 03 20 23 16 17
  20553375.197     -114075.370 4    -88890.008 3
  24196545.174     6932542.250 2   5401968.116 1
  23092578.333    -4967642.243 2  -3870875.818 1
  23270989.028     5367587.442 2   4182531.747 2
  20696571.056    -1052839.655 4   -820392.385 3
 91  7 25  1 10 30.0000000  0  5 03 20 23 16 17
  20554156.758     -109970.646 4    -85691.523 2
  24208584.847     6995822.472 2   5451277.264 1
  23084619.743    -5009510.716 2  -3903500.490 1
  23280840.810     5419341.919 2   4222859.852 1
  20695680.083    -1057514.669 4   -824035.246 3
 91  7 25  1 10 45.0000000  0  5 03 20 23 16 17
  20554952.400     -105775.987 4    -82422.955 2
  24220632.913     7059107.020 2   5500589.739 1
  23076658.465    -5051325.870 2  -3936083.648 1
  23290697.984     5471158.472 2   4263236.361 1
  20694804.693    -1062118.262 4   -827622.447 3
 91  7 25  1 11  0.0000000  0  5 03 20 23 16 17
  20555767.832     -101488.831 4    -79082.313 2
  24232669.864     7122397.735 2   5549907.001 1
  23068707.360    -5093085.030 2  -3968623.173 1
  23300571.649     5523039.335 2   4303662.969 2
  20693940.977    -1066647.996 4   -831152.094 3
 91  7 25  1 11 15.0000000  0  5 03 20 23 16 17
  20556603.051      -97110.222 4    -75670.403 2
  24244711.928     7185693.398 2   5599228.176 1
  23060767.371    -5134789.237 2  -4001119.884 1
  23310459.396     5574983.277 2   4344138.702 1
  20693092.565    -1071104.786 4   -834624.903 3
 91  7 25  1 11 30.0000000  0  5 03 20 23 16 17
  20557456.262      -92629.791 4    -72179.162 3
  24256768.091     7249003.859 2   5648560.834 1
  23052849.248    -5176427.756 2  -4033565.373 2
  23320355.554     5627000.416 2   4384671.519 1
  20692262.737    -1075478.561 4   -838033.030 3
 91  7 25  1 11 45.0000000  0  5 03 20 23 16 17
  20558324.463      -88056.119 4    -68615.266 2
  24268814.343     7312319.806 2   5697897.742 1
  23044934.126    -5218009.372 2  -4065966.549 1
  23330266.684     5679081.033 2   4425253.776 1
  20691444.618    -1079778.307 4   -841383.467 3
 91  7 25  1 12  0.0000000  0  5 03 20 23 16 17
  20559213.656      -83383.949 4    -64974.615 2
  24280863.003     7375646.005 2   5747242.623 1
  23037034.901    -5259528.809 2  -4098319.264 1
  23340191.618     5731230.116 2   4465889.371 1
  20690643.863    -1083998.867 4   -844672.205 3
 91  7 25  1 12 15.0000000  0  5 03 20 23 16 17
  20560122.324      -78617.727 4    -61260.671 2
  24292913.460     7438977.499 2   5796591.729 1
  23029144.052    -5300990.334 2  -4130626.900 1
  23350127.946     5783442.676 2   4506574.433 1
  20689849.407    -1088145.063 4   -847902.992 3
 91  7 25  1 12 30.0000000  0  5 03 20 23 16 17
  20561047.482      -73761.809 4    -57476.833 2
  24304962.731     7502309.449 2   5845941.128 1
  23021264.616    -5342398.104 2  -4162892.571 1
  23360072.965     5835714.013 2   4547305.298 1
  20689072.959    -1092221.422 4   -851079.359 3
 91  7 25  1 12 45.0000000  0  5 03 20 23 16 17
  20561990.632      -68805.603 4    -53614.861 2
  24317021.285     7565651.532 2   5895298.435 1
  23013398.057    -5383741.833 2  -4195108.392 1
  23370034.754     5888054.045 2   4588089.706 1
  20688314.171    -1096217.674 4   -854193.310 3
 91  7 25  1 13  0.0000000  0  5 03 20 23 16 17
  20562952.069      -63749.607 4    -49675.122 2
  24329071.428     7629003.042 2   5944663.090 1
  23005542.894    -5425021.732 2  -4227274.453 1
  23380003.452     5940461.663 2   4628926.778 1
  20687568.000    -1100134.210 4   -857245.144 3
 91  7 25  1 13 15.0000000  0  5 03 20 23 16 17
  20563932.387      -58598.313 4    -45661.125 2
  24341133.577     7692359.115 2   5994031.287 1
  22997694.921    -5466242.143 2  -4259394.188 1
  23389987.751     5992931.994 2   4669812.694 1
  20686835.894    -1103975.847 4   -860238.618 3
 91  7 25  1 13 30.0000000  0  5 03 20 23 16 17
  20564929.789      -53351.816 4    -41572.939 2
  24353184.349     7755718.953 2   6043402.433 1
  22989867.346    -5507403.277 2  -4291467.713 1
  23399984.335     6045464.330 2   4710746.949 1
  20686120.592    -1107743.092 4   -863174.116 3
 91  7 25  1 13 45.0000000  0  5 03 20 23 16 17
  20565949.685      -48002.892 4    -37404.957 2
  24365243.199     7819089.221 2   6092781.638 1
  22982044.256    -5548497.810 2  -4323489.359 1
  23409995.298     6098065.557 2   4751734.866 1
  20685418.482    -1111428.988 4   -866046.234 3
 91  7 25  1 14  0.0000000  0  5 03 20 23 16 17
  20566983.366      -42557.613 4    -33161.880 2
  24377316.743     7882463.558 2   6142164.086 1
  22974240.659    -5589531.703 2  -4355463.738 1
  23420016.156     6150729.630 2   4792771.770 2
  20684731.066    -1115039.560 4   -868859.660 3
 91  7 25  1 14 15.0000000  0  5 03 20 23 16 17
  20568036.242      -37021.744 4    -28848.213 2
  24389367.497     7945835.431 2   6191544.575 1
  22966438.562    -5630510.743 2  -4387395.370 1
  23430047.815     6203449.643 2   4833852.281 1
  20684059.529    -1118581.081 4   -871619.274 3
 91  7 25  1 14 30.0000000  0  5 03 20 23 16 17
  20569111.594      -31386.531 4    -24457.134 2
  24401426.645     8009212.710 2   6240929.324 1
  22958653.548    -5671426.344 2  -4419277.584 1
  23440094.167     6256233.743 2   4874982.706 1
  20683398.183    -1122045.156 4   -874318.538 3
 91  7 25  1 14 45.0000000  0  5 03 20 23 16 17
  20570200.453      -25652.652 4    -19989.190 3
  24413494.186     8072594.636 2   6290317.635 1
  22950873.334    -5712278.604 2  -4451110.428 2
  23450153.991     6309080.870 2   4916162.222 1
  20682753.921    -1125432.107 4   -876957.708 3
 91  7 25  1 15  0.0000000  0  5 03 20 23 16 17
  20571309.083      -19827.876 3    -15450.404 2
  24425557.835     8135973.019 2   6339703.229 1
  22943117.113    -5753075.289 2  -4482899.994 2
  23460222.225     6361982.859 2   4957384.519 1
  20682124.056    -1128749.926 4   -879543.016 3
 91  7 25  1 15 15.0000000  0  5 03 20 23 16 17
  20572434.203      -13906.290 3    -10836.178 2
  24437607.699     8199352.648 2   6389089.707 1
  22935364.784    -5793811.001 2  -4514642.036 1
  23470295.259     6414944.900 2   4998653.569 1
  20681505.585    -1131993.438 4   -882070.417 3
 91  7 25  1 15 30.0000000  0  5 03 20 23 16 17
  20573582.410       -7882.390 4     -6142.228 2
  24449669.237     8262738.754 2   6438481.310 1
  22927623.536    -5834479.858 2  -4546331.969 1
  23480388.063     6467972.213 2   5039973.553 1
  20680907.514    -1135157.110 4   -884535.606 3
 91  7 25  1 15 45.0000000  0  5 03 20 23 16 17
  20574747.404       -1757.166 4     -1369.332 3
  24461732.887     8326130.122 2   6487877.058 1
  22919895.184    -5875082.453 2  -4577970.305 1
  23490486.574     6521063.613 2   5081343.427 1
  20680321.413    -1138242.034 4   -886939.418 3
 91  7 25  1 16  0.0000000  0  5 03 20 23 16 17
  20575930.686        4467.400 4      3480.987 2
  24473798.037     8389523.663 2   6537274.419 1
  22912178.837    -5915621.434 2  -4609559.021 1
  23500605.763     6574215.934 2   5122760.776 1
  20679749.413    -1141250.958 4   -889284.025 3
 91  7 25  1 16 15.0000000  0  5 03 20 23 16 17
  20577137.037       10793.193 4      8410.170 2
  24485865.893     8452921.301 2   6586674.953 1
  22904484.059    -5956094.028 2  -4641096.035 1
  23510732.456     6627431.056 2   5164227.072 1
  20679189.697    -1144181.609 4   -891567.641 3
 91  7 25  1 16 30.0000000  0  5 03 20 23 16 17
  20578359.006       17225.582 4     13422.426 2
  24497928.041     8516327.677 2   6636082.341 1
  22896795.580    -5996495.291 2  -4672577.474 1
  23520870.544     6680713.737 2   5205746.013 1
  20678647.972    -1147029.247 4   -893786.564 3
 91  7 25  1 16 45.0000000  0  5 03 20 23 16 17
  20579603.136       23757.836 4     18512.491 2
  24509996.490     8579735.661 2   6685490.966 1
  22889119.997    -6036831.828 2  -4704008.471 1
  23531021.510     6734056.808 2   5247311.995 1
  20678116.439    -1149800.655 4   -895946.086 3
 91  7 25  1 17  0.0000000  0  5 03 20 23 16 17
  20580864.072       30389.154 4     23679.752 2
  24522062.530     8643143.815 2   6734899.804 1
  22881456.699    -6077104.325 2  -4735389.571 1
  23541182.074     6787458.947 2   5288924.025 1
  20677605.898    -1152496.683 4   -898046.871 3
 91  7 25  1 17 15.0000000  0  5 03 20 23 16 17
  20582145.982       37112.002 4     28918.333 2
  24534127.681     8706544.029 2   6784302.346 1
  22873804.796    -6117320.499 2  -4766726.779 1
  23551349.234     6840911.874 2   5330575.616 1
  20677106.734    -1155125.348 4   -900095.173 3
 91  7 25  1 17 30.0000000  0  5 03 20 23 16 17
  20583442.586       43937.573 4     34236.970 2
  24546197.316     8769946.722 2   6833706.832 1
  22866160.379    -6157469.083 2  -4798011.332 1
  23561537.090     6894425.993 2   5372274.867 1
  20676617.779    -1157675.902 4   -902082.596 3
 91  7 25  1 17 45.0000000  0  5 03 20 23 16 17
  20584765.260       50864.762 4     39634.775 3
  24558254.072     8833350.778 2   6883112.380 1
  22858530.970    -6197550.478 2  -4829243.519 2
  23571733.636     6948000.521 2   5414021.238 1
  20676150.392    -1160148.921 4   -904009.615 3
 91  7 25  1 18  0.0000000  0  5 03 20 23 16 17
  20586098.142       57890.242 4     45109.179 2
  24570319.816     8896752.043 2   6932515.789 1
  22850920.441    -6237568.297 2  -4860426.160 1
  23581938.855     7001631.222 2   5455811.343 1
  20675691.120    -1162548.391 4   -905879.316 3
 91  7 25  1 18 15.0000000  0  5 03 20 23 16 17
  20587455.002       65016.218 4     50661.891 2
  24582389.469     8960152.255 2   6981918.339 1
  22843314.101    -6277520.473 2  -4891557.658 1
  23592157.895     7055319.848 2   5497646.613 1
  20675250.729    -1164872.001 4   -907689.905 3
 91  7 25  1 18 30.0000000  0  5 03 20 23 16 17
  20588828.648       72236.849 4     56288.363 2
  24594452.211     9023544.905 2   7031315.008 1
  22835722.453    -6317412.912 2  -4922642.606 1
  23602381.419     7109059.979 2   5539521.963 1
  20674823.513    -1167126.385 4   -909446.556 3
 91  7 25  1 18 45.0000000  0  5 03 20 23 16 17
  20590222.990       79560.531 4     61995.130 2
  24606517.658     9086937.999 2   7080712.038 1
  22828151.798    -6357236.851 2  -4953674.176 2
  23612619.915     7162859.587 2   5581443.727 1
  20674408.006    -1169303.317 4   -911142.856 3
 91  7 25  1 19  0.0000000  0  5 03 20 23 16 17
  20591635.603       86984.802 4     67780.280 2
  24618576.805     9150328.779 2   7130107.221 1
  22820580.236    -6396994.588 2  -4984654.170 1
  23622872.232     7216715.900 2   5623409.628 1
  20674009.286    -1171404.978 4   -912780.498 3
 91  7 25  1 19 15.0000000  0  5 03 20 23 16 17
  20593068.911       94511.988 4     73645.622 2
  24630643.160     9213718.775 2   7179501.847 1
  22813030.260    -6436683.950 2  -5015580.875 1
  23633127.219     7270630.691 2   5665421.152 1
  20673621.053    -1173429.569 4   -914358.090 3
 91  7 25  1 19 30.0000000  0  5 03 20 23 16 17
  20594519.007      102136.937 4     79587.143 2
  24642700.213     9277102.495 2   7228892.003 1
  22805487.490    -6476310.112 2  -5046458.354 1
  23643396.323     7324598.411 2   5707473.868 1
  20673250.812    -1175382.487 4   -915879.831 3
 91  7 25  1 19 45.0000000  0  5 03 20 23 16 17
  20595987.390      109863.744 4     85608.043 3
  24654756.062     9340483.339 2   7278279.526 1
  22797955.505    -6515868.935 2  -5077283.339 1
  23653680.993     7378622.393 2   5749570.469 1
  20672894.950    -1177259.711 4   -917342.586 3
 91  7 25  1 20  0.0000000  0  5 03 20 23 16 17
  20597477.063      117694.087 4     91709.605 2
  24666825.715     9403862.415 2   7327665.617 1
  22790446.903    -6555358.650 3  -5108054.460 1
  23663971.072     7432703.899 2   5791711.850 1
  20672551.686    -1179059.900 4   -918745.322 3
 91  7 25  1 20 15.0000000  0  5 03 20 23 16 17
  20598988.915      125624.035 4     97888.790 2
  24678887.253     9467235.384 2   7377046.917 1
  22782939.506    -6594783.009 2  -5138774.688 2
  23674270.435     7486838.665 2   5833894.722 1
  20672221.022    -1180786.976 4   -920091.082 3
 91  7 25  1 20 30.0000000  0  5 03 20 23 16 17
  20600519.351      133656.451 4    104147.824 2
  24690942.823     9530604.706 2   7426425.412 1
  22775453.380    -6634138.869 2  -5169441.514 2
  23684580.914     7541028.842 2   5876120.824 1
  20671906.238    -1182438.248 4   -921377.773 3
 91  7 25  1 20 45.0000000  0  5 03 20 23 16 17
  20602062.980      141790.731 4    110486.222 2
  24702999.877     9593968.916 2   7475799.950 1
  22767974.757    -6673427.397 2  -5200055.882 2
  23694908.755     7595273.197 2   5918389.087 1
  20671606.443    -1184014.922 4   -922606.340 3
 91  7 25  1 21  0.0000000  0  5 03 20 23 16 17
  20603629.399      150026.433 4    116903.654 2
  24715059.024     9657327.319 2   7525169.885 1
  22760512.329    -6712648.676 2  -5230617.850 2
  23705238.098     7649571.102 2   5960699.128 1
  20671320.137    -1185517.625 4   -923777.262 3
 91  7 25  1 21 15.0000000  0  5 03 20 23 16 17
  20605222.202      158366.543 4    123402.443 2
  24727116.374     9720682.572 2   7574537.426 1
  22753063.389    -6751799.456 2  -5261124.894 1
  23715578.538     7703924.975 2   6003052.764 1
  20671049.135    -1186943.197 4   -924888.086 3
 91  7 25  1 21 30.0000000  0  5 03 20 23 16 17
  20606826.994      166809.516 4    129981.392 3
  24739168.332     9784032.389 2   7623900.690 1
  22745632.423    -6790881.325 3  -5291578.222 2
  23725937.877     7758332.945 2   6045448.553 1
  20670794.903    -1188293.658 4   -925940.381 3
 91  7 25  1 21 45.0000000  0  5 03 20 23 16 17
  20608453.058      175355.056 4    136640.257 2
  24751217.586     9847375.745 2   7673258.944 1
  22738203.866    -6829894.701 2  -5321978.188 1
  23736298.403     7812794.051 2   6087885.732 1
  20670552.066    -1189569.525 4   -926934.556 3
 91  7 25  1 22  0.0000000  0  5 03 20 23 16 17
  20610097.724      184004.417 4    143380.014 2
  24763274.046     9910713.742 2   7722612.986 1
  22730788.797    -6868837.912 2  -5352323.480 1
  23746672.715     7867309.211 2   6130365.055 1
  20670321.828    -1190769.624 4   -927869.687 3
 91  7 25  1 22 15.0000000  0  5 03 20 23 16 17
  20611763.678      192761.377 4    150203.625 2
  24775331.396     9974049.355 2   7771965.216 1
  22723395.925    -6907707.578 3  -5382611.478 2
  23757055.141     7921881.410 2   6172888.808 1
  20670109.877    -1191890.532 4   -928743.106 3
 91  7 25  1 22 30.0000000  0  5 03 20 23 16 17
  20613449.701      201621.160 4    157107.362 3
  24787381.556    10037377.396 2   7821311.558 1
  22716015.338    -6946508.295 2  -5412845.729 1
  23767456.133     7976505.518 2   6215453.000 1
  20669907.228    -1192937.104 4   -929558.605 3
 91  7 25  1 22 45.0000000  0  5 03 20 23 16 17
  20615155.530      210584.435 4    164091.732 2
  24799430.810    10100698.129 2   7870652.167 1
  22708635.938    -6985239.046 2  -5443025.477 2
  23777859.534     8031182.047 2   6258058.043 1
  20669724.350    -1193909.052 4   -930315.953 3
 91  7 25  1 23  0.0000000  0  5 03 20 23 16 17
  20616881.129      219656.560 3    171160.915 2
  24811477.079    10164016.068 2   7919991.019 1
  22701283.236    -7023894.809 2  -5473146.778 1
  23788272.516     8085915.491 2   6300707.465 1
  20669555.571    -1194801.410 4   -931011.286 3
 91  7 25  1 23 15.0000000  0  5 03 20 23 16 17
  20618625.331      228834.604 4    178312.644 2
  24823528.426    10227328.326 2   7969325.074 1
  22693948.212    -7062478.044 2  -5503211.560 2
  23798698.410     8140702.347 2   6343398.488 1
  20669400.264    -1195616.819 4   -931646.663 3
 91  7 25  1 23 30.0000000  0  5 03 20 23 16 17
  20620397.104      238117.618 4    185546.167 2
  24835573.491    10290633.204 2   8018653.325 1
  22686618.282    -7100989.860 3  -5533220.711 2
  23809134.478     8195541.235 2   6386130.036 1
  20669256.963    -1196356.816 4   -932223.267 3
 91  7 25  1 23 45.0000000  0  5 03 20 23 16 17
  20622182.069      247507.101 4    192862.646 2
  24847622.448    10353931.705 2   8067977.066 1
  22679302.750    -7139428.964 3  -5563173.188 1
  23819577.753     8250433.282 2   6428903.038 1
  20669131.060    -1197020.163 4   -932740.150 3
 91  7 25  1 24  0.0000000  0  5 03 20 23 16 17
  20623988.306      256999.392 4    200259.249 2
  24859665.419    10417219.821 2   8117292.293 1
  22672002.504    -7177798.519 3  -5593071.479 2
  23830035.406     8305374.575 2   6471714.410 1
  20669020.129    -1197610.356 4   -933200.032 3
 91  7 25  1 24 15.0000000  0  5 03 20 23 16 17
  20625813.145      266595.370 4    207736.633 2
  24871706.278    10480497.607 2   8166599.451 1
  22664714.246    -7216097.785 3  -5622914.980 1
  23840498.766     8360365.410 2   6514564.352 1
  20668921.203    -1198126.938 4   -933602.556 3
 91  7 25  1 24 30.0000000  0  5 03 20 23 16 17
  20627661.961      276294.185 4    215294.153 2
  24883738.745    10543763.661 2   8215897.438 1
  22657437.383    -7254327.529 3  -5652704.327 2
  23850972.020     8415404.047 2   6557451.572 1
  20668839.362    -1198570.897 4   -933948.477 3
 91  7 25  1 24 45.0000000  0  5 03 20 23 16 17
  20629526.970      286100.920 4    222935.773 3
  24895783.810    10607023.010 2   8265190.205 1
  22650171.304    -7292482.488 2  -5682435.395 2
  23861456.949     8470495.731 2   6600380.113 1
  20668767.415    -1198937.263 4   -934233.951 3
 91  7 25  1 25  0.0000000  0  5 03 20 23 16 17
  20631409.971      296012.140 4    230658.810 2
  24907815.386    10670271.536 2   8314474.566 1
  22642926.235    -7330566.107 2  -5712110.868 2
  23871949.102     8525636.367 2   6643346.811 1
  20668711.940    -1199229.551 4   -934461.697 3
 91  7 25  1 25 15.0000000  0  5 03 20 23 16 17
  20633317.856      306022.837 4    238459.357 2
  24919854.448    10733503.433 2   8363745.929 1
  22635688.042    -7368583.650 2  -5741734.850 2
  23882453.819     8580819.927 2   6686346.942 1
  20668668.472    -1199453.470 4   -934636.172 3
 91  7 25  1 25 30.0000000  0  5 03 20 23 16 17
  20635240.119      316130.720 4    246335.639 2
  24931881.819    10796716.132 2   8413002.386 1
  22628469.934    -7406537.161 3  -5771308.962 2
  23892955.848     8636044.260 2   6729378.838 1
  20668638.492    -1199611.376 4   -934759.206 3
 91  7 25  1 25 45.0000000  0  5 03 20 23 16 17
  20637182.468      326343.559 4    254293.701 2
  24943911.283    10859917.105 2   8462250.127 1
  22621257.235    -7444418.476 2  -5800826.783 2
  23903479.167     8691316.795 2   6772448.307 1
  20668627.412    -1199695.475 4   -934824.723 3
 91  7 25  1 26  0.0000000  0  5 03 20 23 16 17
  20639143.716      336659.618 3    262332.188 2
  24955921.570    10923103.684 2   8511486.247 1
  22614064.011    -7482229.516 3  -5830289.869 1
  23914005.470     8746634.825 2   6815553.227 1
  20668620.815    -1199707.852 4   -934834.365 3
 91  7 25  1 26 15.0000000  0  5 03 20 23 16 17
  20641129.550      347080.279 4    270452.192 2
  24967954.054    10986276.931 2   8560711.952 1
  22606885.184    -7519968.878 3  -5859697.111 2
  23924539.887     8801999.206 2   6858694.272 1
  20668632.507    -1199647.089 4   -934787.000 3
 91  7 25  1 26 30.0000000  0  5 03 20 23 16 17
  20643132.748      357607.882 3    278655.534 2
  24979976.015    11049438.834 2   8609929.231 1
  22599720.142    -7557634.262 3  -5889046.679 2
  23935082.681     8857412.153 2   6901873.130 1
  20668662.783    -1199511.266 4   -934681.154 3
 91  7 25  1 26 45.0000000  0  5 03 20 23 16 17
  20645154.862      368240.799 3    286940.924 2
  24991987.506    11112587.336 2   8659135.664 1
  22592565.291    -7595226.977 3  -5918339.627 2
  23945640.185     8912871.384 2   6945088.104 1
  20668699.359    -1199302.369 4   -934518.373 3
 91  7 25  1 27  0.0000000  0  5 03 20 23 16 17
  20647202.139      378981.234 3    295310.099 2
  25004004.685    11175723.818 2   8708333.169 1
  22585423.929    -7632744.925 3  -5947574.326 2
  23956198.264     8968378.766 2   6988340.540 1
  20668750.924    -1199018.292 4   -934297.000 3
 91  7 25  1 27 15.0000000  0  5 03 20 23 16 17
  20649267.704      389831.738 3    303765.046 2
  25016016.176    11238850.263 2   8757522.411 1
  22578298.464    -7670185.715 3  -5976748.890 2
  23966773.742     9023936.062 2   7031631.919 1
  20668820.777    -1198656.773 4   -934015.275 3
 91  7 25  1 27 30.0000000  0  5 03 20 23 16 17
  20651352.167      400790.136 3    312304.062 2
  25028034.857    11301964.615 2   8806702.266
  22571191.898    -7707550.793 3  -6005864.477 2
  23977351.924     9079541.172 2   7074960.545 1
  20668902.322    -1198219.613 4   -933674.631 3
 91  7 25  1 27 45.0000000  0  5 03 20 23 16 17
  20653457.309      411857.563 4    320928.035 2
  25040039.437    11365067.420 2   8855873.496 1
  22564094.004    -7744839.361 3  -6034920.430 2
  23987944.486     9135194.426 2   7118326.689 1
  20669002.452    -1197706.277 4   -933274.621 3
 91  7 25  1 28  0.0000000  0  4 03 23 16 17
  20655584.630      423036.584 3    329638.970 2
  22557013.212    -7782049.075 3  -6063914.961 2
  23998544.847     9190897.893 2   7161731.934 1
  20669113.976    -1197114.565 4   -932813.537 3
 91  7 25  1 28 15.0000000  0  4 03 23 16 17
  20657733.241      434324.671 4    338434.891 2
  22549950.987    -7819182.082 3  -6092849.688 2
  24009152.102     9246648.894 2   7205174.223 1
  20669241.677    -1196447.057 4   -932293.391 3
 91  7 25  1 28 30.0000000  0  4 03 23 16 17
  20659899.546      445717.807 4    347312.669 2
  22542896.579    -7856242.379 3  -6121727.787 2
  24019769.565     9302442.959 2   7248650.071 1
  20669384.681    -1195707.976 4   -931717.473 3
 91  7 25  1 28 45.0010000  0  4 03 23 16 17
  20662087.440      457214.348 4    356271.018 2
  22535853.256    -7893234.563 3  -6150552.810 2
  24030394.203     9358280.772 2   7292160.040 1
  20669535.175    -1194899.671 4   -931087.618 3
 91  7 25  1 29  0.0010000  0  4 03 23 16 17
  20664296.899      468818.938 3    365313.567 2
  22528831.515    -7930147.886 3  -6179316.364 2
  24041029.046     9414160.289 2   7335702.456 1
  20669702.767    -1194016.609 4   -930399.505 3
 91  7 25  1 29 15.0010000  0  4 03 23 16 17
  20666525.554      480534.463 3    374442.553 2
  22521824.467    -7966982.362 3  -6208018.477 2
  24051675.267     9470087.173 2   7379281.808 1
  20669888.926    -1193056.679 4   -929651.494 3
 91  7 25  1 29 30.0010000  0  4 03 23 16 17
  20668777.609      492366.784 3    383662.545 2
  22514824.312    -8003732.109 3  -6236654.585 2
  24062322.395     9526066.706 2   7422902.168 1
  20670085.293    -1192014.210 4   -928839.172 3
 91  7 25  1 29 45.0010000  0  4 03 23 16 17
  20671046.730      504307.938 3    392967.346 2
  22507846.337    -8040405.185 3  -6265230.927 2
  24072986.014     9582090.720 2   7466557.215 1
  20670297.854    -1190897.448 4   -927968.958 3
 91  7 25  1 30  0.0010000  0  4 03 23 16 17
  20673342.551      516357.919 3    402356.951 2
  22500883.054    -8077001.461 3  -6293747.451 2
  24083652.337     9638158.732 2   7510246.538 1
  20670522.700    -1189706.639 4   -927041.040 3
 91  7 25  1 30 15.0010000  0  4 03 23 16 17
  20675655.438      528522.439 3    411835.798 2
  22493936.279    -8113515.270 3  -6322199.710 2
  24094336.041     9694275.653 2   7553973.965 1
  20670767.318    -1188436.094 4   -926050.992 3
 91  7 25  1 30 30.0010000  0  4 03 23 16 17
  20677991.725      540794.016 3    421398.070 2
  22486998.771    -8149953.759 3  -6350593.259 2
  24105019.134     9750433.979 2   7597733.652 1
  20671021.253    -1187093.350 4   -925004.695 3
 91  7 25  1 30 45.0010000  0  4 03 23 16 17
  20680349.284      553176.804 3    431047.002 2
  22480085.256    -8186312.777 3  -6378924.906 2
  24115715.734     9806637.375 2   7641528.481 1
  20671289.864    -1185674.621 4   -923899.181 3
 91  7 25  1 31  0.0010000  0  4 03 23 16 17
  20682727.540      565673.994 3    440785.089 2
  22473181.339    -8222589.022 3  -6407192.033 2
  24126416.225     9862888.417 2   7685360.438 1
  20671577.060    -1184176.836 4   -922732.060 3
 91  7 25  1 31 15.0010000  0  4 03 23 16 17
  20685125.584      578281.938 3    450609.460 3
  22466291.208    -8258786.080 3  -6435397.478 2
  24137131.112     9919183.041 2   7729226.362 1
  20671873.557    -1182603.893 4   -921506.385 3
 91  7 25  1 31 30.0010000  0  4 03 23 16 17
  20687548.215      591006.684 3    460524.845 2
  22459420.569    -8294898.181 3  -6463536.708 2
  24147852.281     9975526.707 2   7773130.438 1
  20672186.247    -1180949.951 4   -920217.595 3
 91  7 25  1 31 45.0010000  0  4 03 23 16 17
  20689989.116      603848.065 3    470531.129 2
  22452567.013    -8330925.336 3  -6491609.752 2
  24158587.254    10031918.616 2   7817072.166 1
  20672519.319    -1179215.644 4   -918866.178 3
 91  7 25  1 32  0.0010000  0  4 03 23 16 17
  20692454.012      616802.883 3    480625.799 2
  22445726.947    -8366870.428 3  -6519618.856 2
  24169326.118    10088355.502 2   7861048.894 1
  20672864.380    -1177404.078 4   -917454.553 3
 91  7 25  1 32 15.0010000  0  4 03 23 16 17
  20694941.383      629861.157 3    490801.079 2
  22438899.165    -8402743.291 3  -6547571.681 2
  24180072.189    10144826.873 2   7905052.505 1
  20673219.632    -1175525.170 4   -915990.462 3
 91  7 25  1 32 30.0010000  0  4 03 23 16 17
  20697438.667      642981.495 3    501024.710 2
  22432078.591    -8438585.634 3  -6575500.710 2
  24190817.946    10201291.064 2   7949050.552 1
  20673584.184    -1173620.743 4   -914506.483 4
 91  7 25  1 32 45.0010000  0  4 03 23 16 17
  20699953.313      656206.211 3    511329.695 2
  22425270.615    -8474354.788 3  -6603372.712 2
  24201570.595    10257789.641 2   7993075.389 1
  20673960.411    -1171648.621 4   -912969.757 3
 91  7 25  1 33  0.0010000  0  4 03 23 16 17
  20702493.157      669548.619 3    521726.385 2
  22418478.502    -8510037.625 3  -6631177.449 2
  24212331.656    10314335.222 2   8037136.813 1
  20674349.847    -1169595.774 4   -911370.126 3
 91  7 25  1 33 15.0010000  0  4 03 23 16 17
  20705046.787      682977.856 3    532190.719 2
  22411700.505    -8545664.982 3  -6658938.975 2
  24223093.903    10370896.559 2   8081210.569 1
  20674750.661    -1167493.580 4   -909732.044 3
 91  7 25  1 33 30.0010000  0  4 03 23 16 17
  20707628.006      696525.513 3    542747.338 2
  22404934.184    -8581204.896 3  -6686632.338 2
  24233869.046    10427505.794 2   8125321.601 1
  20675167.687    -1165309.916 4   -908030.480 3
 91  7 25  1 33 45.0010000  0  4 03 23 16 17
  20710227.216      710188.206 3    553393.586 2
  22398189.762    -8616660.708 3  -6714260.172 2
  24244652.583    10484158.457 2   8169466.504 1
  20675592.477    -1163048.477 4   -906268.313 3
 91  7 25  1 34  0.0010000  0  4 03 23 16 17
  20712849.198      723975.522 3    564136.954 2
  22391460.609    -8652022.987 3  -6741815.126 2
  24255435.212    10540863.282 2   8213652.015 1
  20676044.281    -1160700.178 4   -904438.459 3
 91  7 25  1 34 15.0010000  0  4 03 23 16 17
  20715496.955      737880.422 3    574971.942 2
  22384745.259    -8687298.793 3  -6769302.708 2
  24266238.537    10597612.905 2   8257872.475 1
  20676504.461    -1158272.285 4   -902546.588 3
 91  7 25  1 34 30.0010000  0  4 03 23 16 17
  20718164.220      751903.567 3    585899.072 2
  22378055.997    -8722487.247 3  -6796722.199 2
  24277043.346    10654407.955 2   8302128.303 1
  20676983.521    -1155764.044 4   -900592.109 3
 91  7 25  1 34 45.0010000  0  4 03 23 16 17
  20720854.852      766045.413 3    596918.681 2
  22371371.517    -8757587.653 3  -6824073.110 2
  24287858.362    10711248.385 2   8346419.527 1
  20677474.885    -1153175.289 4   -898574.889 3
 91  7 25  1 35  0.0010000  0  4 03 23 16 17
  20723569.478      780305.952 3    608030.799 2
  22364712.531    -8792600.136 3  -6851355.501 2
  24298684.774    10768133.659 2   8390745.630 1
  20677985.722    -1150506.295 4   -896495.144 3
 91  7 25  1 35 15.0010000  0  4 03 23 16 17
  20726307.783      794688.674 3    619238.117 2
  22358066.127    -8827520.980 3  -6878566.502 2
  24309517.765    10825066.831 2   8435109.128 1
  20678507.362    -1147753.624 4   -894350.199 3
 91  7 25  1 35 30.0010000  0  4 03 23 16 17
  20729067.361      809204.754 3    630549.339 2
  22351433.229    -8862339.186 3  -6905697.502 2
  24320361.871    10882058.394 2   8479518.100 1
  20679048.493    -1144906.330 4   -892131.521 3
 91  7 25  1 35 45.0010000  0  4 03 23 16 17
  20731856.342      823842.401 3    641955.306 2
  22344830.887    -8897066.542 3  -6932757.701 2
  24331218.855    10939096.192 2   8523963.104 1
  20679605.207    -1141976.337 4   -889848.398 3
 91  7 25  1 36  0.0010000  0  4 03 23 16 17
  20734660.295      838594.973 3    653450.819 2
  22338234.269    -8931709.418 3  -6959752.086 2
  24342075.840    10996173.428 2   8568438.845 1
  20680178.709    -1138970.550 4   -887506.211 4
 91  7 25  1 36 15.0010000  0  4 03 23 16 17
  20737490.930      853459.336 3    665033.437 2
  22331657.107    -8966270.804 3  -6986682.968 2
  24352950.205    11053286.573 2   8612942.547 1
  20680765.106    -1135892.188 4   -885107.485 3
 91  7 25  1 36 30.0010000  0  4 03 23 16 17
  20740345.559      868443.809 3    676709.644 2
  22325101.252    -9000742.399 3  -7013543.894 2
  24363817.677    11110443.375 2   8657480.284 1
  20681365.585    -1132733.145 4   -882645.880 3
 91  7 25  1 36 45.0010000  0  4 03 23 16 17
  20743216.364      883546.167 3    688477.721 2
  22318561.277    -9035126.518 3  -7040336.661 2
  24374706.735    11167640.959 2   8702049.738 1
  20681982.258    -1129495.884 4   -880123.331 3
 91  7 25  1 37  0.0010000  0  4 03 23 16 17
  20746112.367      898764.942 3    700336.500 2
  22312031.510    -9069424.442 3  -7067062.259 2
  24385599.702    11224877.933 2   8746649.924 1
  20682616.923    -1126182.156 4   -877541.193 4
 91  7 25  1 37 15.0010000  0  4 03 23 16 17
  20749030.549      914100.462 3    712286.254 2
  22305518.810    -9103635.734 3  -7093720.356 2
  24396492.058    11282154.049 2   8791280.625 1
  20683257.887    -1122791.722 4   -874899.294 4
 91  7 25  1 37 30.0010000  0  4 03 23 16 17
  20751973.616      929555.840 3    724329.398 2
  22299027.399    -9137757.414 3  -7120308.625 2
  24407402.702    11339471.751 2   8835943.695 1
  20683915.917    -1119321.289 4   -872195.047 3
 91  7 25  1 37 45.0010000  0  4 03 23 16 17
  20754934.359      945127.472 3    736463.142 2
  22292553.089    -9171792.895 3  -7146829.712 2
  24418320.553    11396827.030 2   8880636.070 1
  20684595.551    -1115774.933 4   -869431.644 3
 91  7 25  1 38  0.0010000  0  4 03 23 16 17
  20757920.894      960820.129 3    748691.178 2
  22286090.767    -9205737.105 3  -7173279.674 2
  24429239.590    11454224.283 2   8925361.187 1
  20685283.578    -1112148.156 4   -866605.577 4
 91  7 25  1 38 15.0010000  0  4 03 23 16 17
  20760928.108      976625.617 3    761007.142 2
  22279647.326    -9239598.320 3  -7199664.990 2
  24440172.727    11511655.184 2   8970112.452 1
  20685987.781    -1108449.093 4   -863723.185 3
 91  7 25  1 38 30.0010000  0  4 03 23 16 17
  20763958.408      992545.043 3    773411.876 2
  22273216.782    -9273375.708 3  -7225984.967 2
  24451106.755    11569120.289 2   9014890.468 1
  20686706.085    -1104676.975 4   -860783.862 3
 91  7 25  1 38 45.0010000  0  4 03 23 16 17
  20767011.201     1008584.326 3    785910.020 2
  22266805.711    -9307062.841 3  -7252234.616 2
  24462051.270    11626624.878 2   9059699.215 1
  20687436.394    -1100825.897 4   -857783.008 3
 91  7 25  1 39  0.0010000  0  4 03 23 16 17
  20770083.469     1024740.784 3    798499.468 2
  22260416.837    -9340662.478 3  -7278416.084 2
  24472996.395    11684165.960 2   9104536.336 1
  20688183.472    -1096898.925 4   -854723.026 4
 91  7 25  1 39 15.0010000  0  4 03 23 16 17
  20773181.529     1041015.667 3    811181.191 2
  22254038.748    -9374173.271 3  -7304528.319 2
  24483958.604    11741744.554 2   9149402.731 1
  20688949.432    -1092894.787 4   -851602.907 3
 91  7 25  1 39 30.0010000  0  4 03 23 16 17
  20776301.174     1057407.774 3    823954.252 2
  22247687.340    -9407596.470 3  -7330572.335 2
  24494925.316    11799359.071 2   9194297.149 1
  20689719.301    -1088814.793 4   -848423.671 3
 91  7 25  1 39 45.0010000  0  4 03 23 16 17
  20779441.184     1073917.269 3    836818.790 2
  22241330.243    -9440931.854 3  -7356547.904 2
  24505889.026    11857008.942 2   9239219.080 1
  20690513.164    -1084659.203 4   -845185.549 4
 91  7 25  1 40  0.0010000  0  4 03 23 16 17
  20782604.908     1090543.484 3    849774.280 2
  22235007.628    -9474179.732 3  -7382455.295 2
  24516864.724    11914693.170 2   9284167.759 1
  20691317.497    -1080428.602 4   -841888.964 3
 91  7 25  1 40 15.0010000  0  4 03 23 16 17
  20785793.499     1107288.011 3    862821.965 2
  22228692.499    -9507338.972 3  -7408293.618 2
  24527848.223    11972413.023 2   9329144.229 1
  20692138.634    -1076121.909 4   -838533.072 3
 91  7 25  1 40 30.0010000  0  4 03 23 16 17
  20789003.379     1124153.384 3    875963.809 2
  22222402.550    -9540406.571 3  -7434060.529 2
  24538839.208    12030170.716 2   9374150.115 1
  20692976.559    -1071736.339 4   -835115.746 3
 91  7 25  1 40 45.0010000  0  4 03 23 16 17
  20792233.938     1141137.700 3    889198.337 2
  22216130.890    -9573384.312 3  -7459757.407 2
  24549837.399    12087963.711 2   9419183.547 1
  20693823.767    -1067274.018 4   -831638.610 4
 91  7 25  1 41  0.0010000  0  4 03 23 16 17
  20795489.381     1158240.468 3    902525.167 2
  22209872.125    -9606272.845 3  -7485384.782 2
  24560839.779    12145791.127 2   9464243.792 1
  20694686.575    -1062735.764 4   -828102.297 3
 91  7 25  1 41 15.0010000  0  4 03 23 16 17
  20798764.019     1175462.876 3    915945.219 2
  22203627.146    -9639070.846 3  -7510941.610 2
  24571848.162    12203653.900 2   9509331.629 1
  20695563.763    -1058120.342 4   -824505.849 3
 91  7 25  1 41 30.0010000  0  4 03 23 16 17
  20802066.525     1192804.206 3    929457.940 2
  22197405.550    -9671779.141 3  -7536428.530 2
  24582875.129    12261550.541 2   9554445.803 1
  20696458.034    -1053429.016 4   -820850.254 3
 91  7 25  1 41 45.0010000  0  4 03 23 16 17
  20805387.022     1210263.701 3    943062.733 2
  22191195.052    -9704398.063 3  -7561845.822 2
  24593897.297    12319480.205 2   9599585.770 1
  20697367.609    -1048662.378 4   -817135.992 3
 91  7 25  1 42  0.0010000  0  4 03 23 16 17
  20808729.420     1227839.101 3    956757.844 2
  22185009.438    -9736930.095 3  -7587195.396 2
  24604926.358    12377440.134 2   9644749.313 1
  20698285.578    -1043823.096 4   -813365.108 4
 91  7 25  1 42 15.0010000  0  4 03 23 16 17
  20812099.388     1245533.149 3    970545.418 2
  22178830.718    -9769372.387 3  -7612475.019 2
  24615961.126    12435432.947 2   9689938.498 1
  20699219.130    -1038908.494 4   -809535.539 3
 91  7 25  1 42 30.0010000  0  4 03 23 16 17
  20815487.941     1263339.306 3    984420.336 2
  22172677.474    -9801731.354 3  -7637689.759 2
  24626999.191    12493451.670 2   9735147.805 1
  20700167.078    -1033924.973 4   -805652.265 4
 91  7 25  1 42 45.0010000  0  4 03 23 16 17
  20818900.471     1281268.755 3    998391.327 2
  22166541.925    -9833995.641 3  -7662830.704 2
  24638049.541    12551506.776 2   9780385.580 1
  20701131.813    -1028861.479 4   -801706.674 3
 91  7 25  1 43  0.0010000  0  4 03 23 16 17
  20822338.495     1299320.067 3   1012457.289 2
  22160413.566    -9866166.801 3  -7687899.083 2
  24649100.782    12609596.461 2   9825650.213 1
  20702110.334    -1023720.055 4   -797700.362 3
 91  7 25  1 43 15.0010000  0  4 03 23 16 17
  20825790.899     1317488.407 3   1026614.435 2
  22154312.795    -9898249.498 3  -7712898.532 2
  24660165.214    12667715.615 2   9870937.828 1
  20703103.234    -1018505.529 4   -793637.086 3
 91  7 25  1 43 30.0010000  0  4 03 23 16 17
  20829274.189     1335778.017 3   1040866.070 2
  22148225.200    -9930239.497 3  -7737825.753 2
  24671229.961    12725868.081 2   9916251.348 1
  20704109.641    -1013213.624 4   -789513.516 4
 91  7 25  1 43 45.0010000  0  4 03 23 16 17
  20832776.675     1354191.890 3   1055214.538 2
  22142148.702    -9962133.516 3  -7762678.166 2
  24682310.884    12784056.484 2   9961592.948 1
  20705134.631    -1007841.447 4   -785327.395 3
 91  7 25  1 44  0.0010000  0  4 03 23 16 17
  20836303.433     1372726.846 3   1069657.354 2
  22136100.404    -9993934.800 3  -7787458.354 2
  24693384.932    12842277.183 2  10006959.660 1
  20706168.609    -1002392.574 4   -781081.509 3
 91  7 25  1 44 15.0010000  0  4 03 23 16 17
  20839850.871     1391379.463 3   1084191.863 2
  22130065.281   -10025646.724 3  -7812168.887 2
  24704466.745    12900526.370 2  10052348.538 1
  20707219.985     -996870.660 4   -776778.705 4
 91  7 25  1 44 30.0010000  0  4 03 23 16 17
  20843427.694     1410151.322 3   1098819.285 2
  22124052.041   -10057267.663 3  -7836808.530 2
  24715553.985    12958805.682 2  10097760.950 1
  20708283.645     -991273.970 4   -772417.649 4
 91  7 25  1 44 45.0010000  0  4 03 23 16 17
  20847015.616     1429027.238 3   1113527.780 2
  22118043.896   -10088812.819 3  -7861389.128 2
  24726649.602    13017098.982 2  10143184.289 1
  20709359.905     -985618.096 4   -768010.466 3
 91  7 25  1 45  0.0010000  0  4 03 23 16 17
  20850633.500     1448022.828 3   1128329.538 2
  22112064.544   -10120265.971 3  -7885898.027 2
  24737747.015    13075421.754 2  10188630.528 1
  20710450.247     -979887.320 4   -763544.910 3
 91  7 25  1 45 15.0010000  0  4 03 23 16 17
  20854270.893     1467139.297 3   1143225.485 2
  22106089.677   -10151626.274 3  -7910334.575 2
  24748855.527    13133774.817 2  10234100.390 1
  20711553.781     -974080.713 4   -759020.266 3
 91  7 25  1 45 30.0010000  0  4 03 23 16 17
  20857930.762     1486375.463 3   1158214.696 2
  22100139.990   -10182894.999 3  -7934699.771 2
  24759960.130    13192156.562 2  10279592.647 1
  20712672.916     -968199.702 4   -754437.660 4
 91  7 25  1 45 45.0010000  0  4 03 23 16 17
  20861615.812     1505734.576 3   1173299.713 2
  22094208.295   -10214068.662 3  -7958990.892 2
  24771069.550    13250569.786 2  10325109.415 1
  20713807.634     -962240.969 4   -749794.479 3
 91  7 25  1 46  0.0010000  0  4 03 23 16 17
  20865320.336     1525213.410 3   1188478.022 2
  22088293.701   -10245150.413 3  -7983210.384 2
  24782190.940    13309010.900 2  10370647.954 1
  20714957.342     -956207.955 4   -745093.414 3
 91  7 25  1 46 15.0010000  0  4 03 23 16 17
  20869051.262     1544812.373 3   1203749.944 2
  22082402.176   -10276139.843 3  -8007357.951 2
  24793320.741    13367479.857 2  10416208.094 1
  20716120.521     -950100.714 4   -740334.518 3
 91  7 25  1 46 30.0010000  0  4 03 23 16 17
  20872802.257     1564530.155 3   1219114.449 2
  22076519.341   -10307037.793 3  -8031434.222 2
  24804456.824    13425975.223 2  10461788.871 1
  20717297.520     -943920.234 4   -735518.547 3
 91  7 25  1 46 45.0010000  0  4 03 23 16 17
  20876581.747     1584367.868 3   1234572.384 2
  22070661.704   -10337843.414 3  -8055438.547 2
  24815592.629    13484497.767 2  10507390.785 1
  20718485.287     -937665.713 4   -730644.885 3
 91  7 25  1 47  0.0010000  0  4 03 23 16 17
  20880376.820     1604330.864 3   1250127.967 2
  22064813.944   -10368551.363 3  -8079366.784 2
  24826728.712    13543051.936 2  10553017.343 1
  20719688.357     -931332.046 4   -725709.548 3
 91  7 25  1 47 15.0010000  0  4 03 23 16 17
  20884201.262     1624429.592 3   1265789.316 2
  22058988.677   -10399150.922 3  -8103210.553 2
  24837891.791    13601648.221 2  10598676.679 1
  20720912.106     -924908.711 4   -720704.347 3
 91  7 25  1 47 30.0010000  0  4 03 23 16 17
  20888051.496     1644649.717 3   1281545.252 2
  22053184.997   -10429656.317 3  -8126980.937 2
  24849042.864    13660272.106 2  10644357.846 1
  20722146.953     -918410.434 4   -715640.745 3
 91  7 25  1 47 45.0010000  0  4 03 23 16 17
  20891918.220     1664989.967 3   1297394.792 2
  22047396.899   -10460068.853 3  -8150678.976 2
  24860200.236    13718921.887 2  10690058.854 1
  20723403.090     -911838.438 4   -710519.699 3
 91  7 25  1 48  0.0010000  0  4 03 23 16 17
  20895811.328     1685449.287 3   1313337.112 2
  22041630.702   -10490389.775 3  -8174305.620 2
  24871368.707    13777595.689 2  10735778.647 1
  20724665.212     -905194.012 4   -705342.218 4
 91  7 25  1 48 15.0010000  0  4 03 23 16 17
  20899728.710     1706029.489 3   1329373.631 2
  22035876.178   -10520616.954 3  -8197859.199 2
  24882534.787    13836295.329 2  10781518.563 1
  20725946.232     -898475.414 4   -700106.942 4
 91  7 25  1 48 30.0010000  0  4 03 23 16 17
  20903667.992     1726731.224 3   1345504.844 2
  22030135.161   -10550749.670 3  -8221339.202 2
  24893713.746    13895021.036 2  10827278.824 1
  20727238.334     -891682.207 4   -694813.525 4
 91  7 25  1 48 45.0010000  0  4 03 23 16 17
  20907630.343     1747553.936 3   1361730.331 2
  22024429.202   -10580788.428 3  -8244745.987 2
  24904889.406    13953771.686 2  10873058.490 1
  20728540.923     -884814.866 4   -689462.339 3
 91  7 25  1 49  0.0010000  0  4 03 23 16 17
  20911615.485     1768494.812 3   1378047.885 2
  22018725.947   -10610735.968 3  -8268081.671 2
  24916078.852    14012544.269 2  10918855.268 1
  20729862.707     -877876.382 4   -684055.731 4
 91  7 25  1 49 15.0010000  0  4 03 23 16 17
  20915624.620     1789556.873 3   1394459.881 2
  22013051.485   -10640589.125 3  -8291343.830 2
  24927265.611    14071341.631 2  10964671.346 2
  20731196.497     -870864.002 4   -678591.525 4
 91  7 25  1 49 30.0010000  0  4 03 23 16 17
  20919655.917     1810742.218 3   1410967.938 2
  22007389.605   -10670345.551 3  -8314530.614 2
  24938455.075    14130165.447 2  11010508.027 1
  20732546.149     -863775.434 4   -673067.959 3
 91  7 25  1 49 45.0010000  0  4 03 23 16 17
  20923710.021     1832050.016 3   1427571.409 2
  22001739.417   -10700006.262 3  -8337642.804 2
  24949658.603    14189014.461 2  11056364.352 1
  20733909.622     -856612.030 4   -667486.076 3
 91  7 25  1 50  0.0010000  0  4 03 23 16 17
  20927785.397     1853477.553 3   1444268.187 2
  21996117.410   -10729574.058 3  -8360682.595 2
  24960855.553    14247885.240 2  11102237.657 1
  20735283.861     -849376.618 4   -661848.086 4
 91  7 25  1 50 15.0010000  0  4 03 23 16 17
  20931889.549     1875023.844 3   1461057.493 2
  21990503.483   -10759049.672 3  -8383650.565 2
  24972062.693    14306776.693 2  11148126.999 1
  20736677.296     -842070.188 4   -656154.758 4
 91  7 25  1 50 30.0010000  0  4 03 23 16 17
  20936010.802     1896692.126 3   1477941.868 2
  21984910.566   -10788429.689 3  -8406544.039 2
  24983278.542    14365691.902 2  11194034.888 1
  20738080.032     -834689.433 4   -650403.517 4
 91  7 25  1 50 45.0010000  0  4 03 23 16 17
  20940157.532     1918479.628 3   1494919.140 2
  21979342.219   -10817716.807 3  -8429365.125 2
  24994495.576    14424627.751 2  11239958.886 1
  20739500.148     -827237.460 4   -644596.775 4
 91  7 25  1 51  0.0010000  0  4 03 23 16 17
  20944325.848     1940385.940 3   1511988.978 2
  21973792.160   -10846911.552 3  -8452114.218 2
  25005707.516    14483583.254 2  11285898.207 1
  20740928.658     -819714.887 4   -638735.030 4
 91  7 25  1 51 15.0010000  0  4 03 23 16 17
  20948519.048     1962413.226 3   1529153.087 2
  21968246.603   -10876011.467 3  -8474789.440 2
  25016935.632    14542560.454 2  11331854.439 1
  20742376.956     -812119.542 4   -632816.569 3
 91  7 25  1 51 30.0010000  0  4 03 23 16 17
  20952732.927     1984563.375 3   1546412.937 2
  21962727.413   -10905014.783 3  -8497389.378 2
  25028161.967    14601560.506 2  11377828.458 1
  20743837.539     -804449.984 4   -626840.283 3
 91  7 25  1 51 45.0010000  0  4 03 23 16 17
  20956974.691     2006839.456 3   1563770.925 2
  21957225.935   -10933918.259 3  -8519911.529 2
  25039395.493    14660586.376 2  11423822.636 1
  20745309.221     -796702.863 4   -620803.560 3
 91  7 25  1 52  0.0010000  0  4 03 23 16 17
  20961234.742     2029236.249 3   1581222.954 2
  21951746.323   -10962726.921 3  -8542359.790 2
  25050630.501    14719632.495 2  11469832.583 1
  20746800.691     -788883.525 4   -614710.570 3
 91  7 25  1 52 15.0010000  0  4 03 23 16 17
  20965520.568     2051752.549 3   1598768.120 2
  21946284.404   -10991441.978 3  -8564735.119 2
  25061872.124    14778697.327 2  11515857.067 1
  20748299.944     -780993.206 4   -608562.260 3
 91  7 25  1 52 30.0010000  0  4 03 23 16 17
  20969825.589     2074391.618 3   1616408.951 2
  21940835.382   -11020060.180 3  -8587034.965 2
  25073111.338    14837783.597 2  11561898.285 1
  20749814.500     -773028.928 4   -602356.322 4
 91  7 25  1 52 45.0010000  0  4 03 23 16 17
  20974156.995     2097147.738 3   1634140.987 2
  21935406.427   -11048587.216 3  -8609263.783 2
  25084358.666    14896885.559 2  11607951.716 1
  20751343.140     -764996.688 4   -596097.431 4
 91  7 25  1 53  0.0010000  0  4 03 23 16 17
  20978512.081     2120029.440 3   1651970.882 2
  21929997.279   -11077014.167 3  -8631414.598 2
  25095613.463    14956011.558 2  11654023.875 1
  20752886.175     -756887.773 4   -589778.786 3
 91  7 25  1 53 15.0010000  0  3 03 23 17
  20982887.845     2143037.357 3   1669899.108 2
  21924604.917   -11105340.685 3  -8653487.176 2
  20754443.590     -748701.946 4   -583400.213 4
 91  7 25  1 53 30.0010000  0  3 03 23 17
  20987293.606     2166168.175 3   1687923.122 2
  21919232.937   -11133569.704 3  -8675483.769 2
  20756015.715     -740442.300 4   -576964.117 4
 91  7 25  1 53 45.0010000  0  3 03 23 17
  20991716.434     2189425.585 3   1706045.768 2
  21913878.635   -11161697.688 3  -8697401.637 2
  20757603.405     -732105.545 4   -570467.937 4
 91  7 25  1 54  0.0010000  0  3 03 23 17
  20996164.163     2212805.188 3   1724263.633 2
  21908549.530   -11189728.990 3  -8719244.162 2
  20759198.913     -723696.187 4   -563915.185 4
 91  7 25  1 54 15.0010000  0  3 03 23 17
  21000639.166     2236309.479 3   1742578.659 2
  21903231.506   -11217660.706 3  -8741009.099 2
  20760815.990     -715211.799 4   -557303.967 3
 91  7 25  1 54 30.0010000  0  3 03 23 17
  21005137.239     2259936.198 3   1760989.086 2
  21897935.976   -11245495.312 3  -8762698.366 2
  20762443.851     -706654.474 4   -550635.914 4
 91  7 25  1 54 45.0010000  0  3 03 23 17
  21009655.711     2283686.771 3   1779496.027 2
  21892655.436   -11273231.274 3  -8784310.750 2
  20764087.924     -698023.101 4   -543910.172 4
 91  7 25  1 55  0.0010000  0  3 03 23 17
  21014194.879     2307558.961 3   1798097.721 2
  21887398.872   -11300870.651 3  -8805847.884 2
  20765742.169     -689320.098 4   -537128.609 4
 91  7 25  1 55 15.0010000  0  3 03 23 17
  21018764.010     2331557.548 3   1816797.906 2
  21882155.500   -11328408.611 3  -8827305.997 2
  20767415.314     -680540.851 4   -530287.633 4
 91  7 25  1 55 30.0010000  0  3 03 23 17
  21023355.040     2355678.795 3   1835593.682 2
  21876933.121   -11355848.766 3  -8848687.885 2
  20769099.853     -671689.010 4   -523390.085 4
 91  7 25  1 55 45.0010000  0  3 03 23 17
  21027967.638     2379920.501 3   1854483.312 2
  21871728.419   -11383193.251 3  -8869995.234 2
  20770797.585     -662766.673 4   -516437.616 4
 91  7 25  1 56  0.0010000  0  3 03 23 17
  21032602.137     2404289.403 3   1873472.057 2
  21866553.103   -11410435.298 3  -8891222.756 2
  20772511.196     -653767.409 4   -509425.199 4
 91  7 25  1 56 15.0010000  0  3 03 23 17
  21037266.004     2428780.188 3   1892555.769 2
  21861388.868   -11437580.348 3  -8912374.704 2
  20774236.796     -644696.729 4   -502357.127 4
 91  7 25  1 56 30.0010000  0  3 03 23 17
  21041943.657     2453379.400 3   1911723.985 2
  21856233.952   -11464641.465 3  -8933461.241 2
  20775973.494     -635568.217 4   -495243.996 4
 91  7 25  1 56 45.0010000  0  3 03 23 17
  21046648.306     2478097.382 3   1930984.751 2
  21851102.995   -11491608.237 3  -8954474.270 2
  20777722.180     -626371.408 4   -488077.651 4
 91  7 25  1 57  0.0010000  0  3 03 23 17
  21051374.540     2502937.331 3   1950340.543 2
  21845990.028   -11518477.788 3  -8975411.548 2
  20779488.561     -617103.300 4   -480855.745 4
 91  7 25  1 57 15.0010000  0  3 03 23 17
  21056127.753     2527897.131 3   1969789.730 2
  21840893.570   -11545251.658 3  -8996274.260 2
  20781264.225     -607766.040 4   -473579.953 4
 91  7 25  1 57 30.0010000  0  3 03 23 17
  21060896.845     2552977.223 3   1989332.647 2
  21835816.586   -11571929.699 3  -9017062.310 2
  20783054.897     -598359.664 4   -466250.305 3
 91  7 25  1 57 45.0010000  0  3 03 23 17
  21065694.416     2578177.044 3   2008968.865 2
  21830759.984   -11598511.961 3  -9037775.724 2
  20784855.445     -588884.365 4   -458866.951 3
 91  7 25  1 58  0.0010000  0  3 03 23 17
  21070512.386     2603498.230 3   2028699.650 2
  21825720.170   -11624997.045 3  -9058413.415 2
  20786673.688     -579338.940 4   -451428.955 4
 91  7 25  1 58 15.0010000  0  3 03 23 17
  21075354.943     2628944.771 3   2048528.111 2
  21820700.737   -11651380.623 3  -9078972.008 2
  20788503.012     -569719.382 4   -443933.192 4
 91  7 25  1 58 30.0010000  0  3 03 23 17
  21080221.164     2654514.245 3   2068452.361 2
  21815696.014   -11677665.132 3  -9099453.414 3
  20790346.749     -560028.002 4   -436381.470 4
 91  7 25  1 58 45.0010000  0  3 03 23 17
  21085109.284     2680206.457 3   2088472.243 2
  21810714.361   -11703850.932 3  -9119857.908 2
  20792204.552     -550265.354 4   -428774.212 4
 91  7 25  1 59  0.0010000  0  3 03 23 17
  21090019.880     2706023.294 3   2108589.270 2
  21805749.791   -11729935.986 3  -9140183.878 2
  20794077.362     -540429.374 4   -421109.806 4
 91  7 25  1 59 15.0010000  0  3 03 23 17
  21094958.658     2731962.799 3   2128801.844 2
  21800808.012   -11755921.967 3  -9160432.655 2
  20795960.048     -530522.234 4   -413389.951 4
 91  7 25  1 59 30.0010000  0  3 03 23 17
  21099918.725     2758026.449 3   2149111.183 2
  21795878.221   -11781807.348 3  -9180603.061 3
  20797862.837     -520542.514 4   -405613.542 4
 91  7 25  1 59 45.0010000  0  3 03 23 17
  21104902.786     2784215.935 3   2169518.556 2
  21790974.221   -11807590.533 3  -9200693.816 2
  20799774.317     -510488.557 4   -397779.285 4
 91  7 25  2  0  0.0010000  0  3 03 23 17
  21109906.916     2810523.361 3   2190017.831 2
  21786084.303   -11833279.194 3  -9220710.918 2
  20801701.990     -500368.331 4   -389893.394 3
 91  7 25  2  0 15.0010000  0  3 03 23 17
  21114936.836     2836955.266 3   2210614.114 2
  21781215.972   -11858866.683 3  -9240649.199 3
  20803639.243     -490175.423 4   -381950.860 3
 91  7 25  2  0 30.0010000  0  3 03 23 17
  21119989.529     2863516.599 3   2231311.247 2
  21776366.539   -11884348.092 3  -9260504.806 3
  20805593.895     -479905.044 4   -373947.964 4
 91  7 25  2  0 45.0010000  0  3 03 23 17
  21125072.219     2890211.174 3   2252112.200 2
  21771539.582   -11909719.401 3  -9280274.625 2
  20807562.332     -469553.327 4   -365881.693 4
 91  7 25  2  1  0.0010000  0  3 03 23 17
  21130178.589     2917030.891 3   2273010.656 2
  21766731.209   -11934988.479 3  -9299964.779 2
  20809549.353     -459128.386 4   -357758.358 3
 91  7 25  2  1 15.0010000  0  3 03 23 17
  21135300.228     2943957.625 3   2293992.527 2
  21761937.826   -11960173.478 3  -9319589.426 3
  20811541.470     -448648.840 4   -349592.475 4
 91  7 25  2  1 30.0010000  0  3 03 23 17
  21140448.269     2971006.013 3   2315069.178 2
  21757162.731   -11985259.683 3  -9339137.096 2
  20813548.280     -438099.792 4   -341372.439 4
 91  7 25  2  1 45.0010000  0  3 03 23 17
  21145619.397     2998176.074 3   2336240.641 2
  21752410.112   -12010246.973 3  -9358607.676 2
  20815570.987     -427481.418 4   -333098.381 4
 91  7 25  2  2  0.0010000  0  3 03 23 17
  21150812.093     3025470.056 3   2357508.671 2
  21747675.798   -12035133.043 3  -9377999.388 2
  20817606.572     -416791.564 4   -324768.625 4
 91  7 25  2  2 15.0010000  0  3 03 23 17
  21156028.190     3052892.203 3   2378876.564 2
  21742955.863   -12059913.731 3  -9397308.984 3
  20819653.553     -406026.038 4   -316379.899 4
 91  7 25  2  2 30.0010000  0  3 03 23 17
  21161268.560     3080436.525 3   2400339.657 2
  21738261.109   -12084594.821 3  -9416540.979 2
  20821714.929     -395190.655 4   -307936.745 4
 91  7 25  2  2 45.0010000  0  3 03 23 17
  21166533.814     3108101.000 3   2421896.384 2
  21733582.845   -12109178.460 3  -9435697.036 2
  20823788.888     -384287.807 4   -299441.017 4
 91  7 25  2  3  0.0010000  0  3 03 23 17
  21171822.155     3135889.113 3   2443549.444 2
  21728922.276   -12133660.603 3  -9454773.996 3
  20825878.150     -373313.971 4   -290889.976 4
 91  7 25  2  3 15.0010000  0  3 03 23 17
  21177140.772     3163822.274 3   2465315.544 2
  21724287.481   -12158020.076 3  -9473755.379 2
  20827982.681     -362247.833 4   -282267.014 4
 91  7 25  2  3 30.0010000  0  3 03 23 17
  21182477.380     3191875.237 3   2487174.985 2
  21719669.787   -12182282.013 3  -9492660.753 2
  20830101.329     -351114.758 4   -273591.881 4
 91  7 25  2  3 45.0010000  0  3 03 23 17
  21187840.356     3220052.266 3   2509131.093 2
  21715073.661   -12206441.960 3  -9511486.664 3
  20832234.339     -339910.360 4   -264861.183 4
 91  7 25  2  4  0.0010000  0  3 03 23 17
  21193222.230     3248353.178 3   2531183.737 2
  21710491.339   -12230500.343 3  -9530233.424 3
  20834378.465     -328634.898 4   -256075.104 4
 91  7 25  2  4 15.0010000  0  3 03 23 17
  21198635.584     3276779.480 3   2553334.100 2
  21705939.292   -12254454.998 3  -9548899.358 3
  20836540.564     -317287.044 4   -247232.619 4
 91  7 25  2  4 30.0010000  0  3 03 23 17
  21204065.725     3305327.695 3   2575579.444 2
  21701396.844   -12278309.594 3  -9567487.333 2
  20838710.761     -305870.461 4   -238336.577 4
 91  7 25  2  4 45.0010000  0  3 03 23 17
  21209522.548     3334001.646 3   2597922.764 2
  21696877.464   -12302060.331 3  -9585994.371 2
  20840898.652     -294381.091 4   -229383.822 4
 91  7 25  2  5  0.0010000  0  3 03 23 17
  21215002.161     3362798.423 3   2620361.808 2
  21692378.484   -12325709.762 3  -9604422.468 2
  20843097.030     -282821.813 4   -220376.588 3
 91  7 25  2  5 15.0010000  0  3 03 23 17
  21220505.453     3391720.580 3   2642898.538 2
  21687897.477   -12349255.271 3  -9622769.592 2
  20845311.288     -271190.344 4   -211313.100 4
 91  7 25  2  5 30.0010000  0  3 03 23 17
  21226032.426     3420764.856 3   2665530.430 2
  21683431.181   -12372700.210 3  -9641038.343 2
  20847536.959     -259490.055 4   -202195.996 4
 91  7 25  2  5 45.0010000  0  3 03 23 17
  21231583.375     3449932.624 3   2688258.548 2
  21678996.348   -12396043.272 3  -9659227.715 2
  20849777.008     -247719.771 4   -193024.346 4
 91  7 25  2  6  0.0010000  0  3 03 23 17
  21237159.819     3479225.684 3   2711084.293 2
  21674572.613   -12419282.452 3  -9677336.138 2
  20852031.734     -235877.401 4   -183796.519 4
 91  7 25  2  6 15.0010000  0  3 03 23 17
  21242760.850     3508656.148 3   2734017.108 2
  21670170.761   -12442405.371 3  -9695353.969 2
  20854300.873     -223950.995 4   -174503.213 4
 91  7 25  2  6 30.0010000  0  3 03 23 17
  21248384.357     3538213.845 3   2757049.070 2
  21665789.290   -12465422.271 3  -9713289.189 2
  20856582.890     -211951.030 4   -165152.590 4
 91  7 25  2  6 45.0010000  0  3 03 23 17
  21254033.342     3567899.666 3   2780180.863 2
  21661429.703   -12488331.978 3  -9731140.878 2
  20858879.600     -199876.163 4   -155743.602 4
 91  7 25  2  7  0.0010000  0  3 03 23 17
  21259708.414     3597711.631 3   2803410.960 2
  21657092.905   -12511136.465 3  -9748910.577 2
  20861193.691     -187728.862 4   -146278.170 4
 91  7 25  2  7 15.0010000  0  3 03 23 17
  21265404.462     3627648.325 3   2826738.247 2
  21652772.894   -12533836.810 3  -9766599.135 3
  20863517.694     -175510.528 4   -136757.387 4
 91  7 25  2  7 30.0010000  0  3 03 23 17
  21271125.708     3657716.745 3   2850168.163 2
  21648470.281   -12556426.448 3  -9784201.428 2
  20865859.967     -163214.141 4   -127175.787 4
 91  7 25  2  7 45.0010000  0  3 03 23 17
  21276869.726     3687911.908 3   2873696.836 2
  21644192.238   -12578910.018 3  -9801721.065 2
  20868210.336     -150844.585 4   -117537.173 4
 91  7 25  2  8  0.0010000  0  3 03 23 17
  21282641.334     3718232.845 3   2897323.534 2
  21639937.578   -12601288.322 3  -9819158.678 2
  20870578.994     -138403.018 4   -107842.444 4
 91  7 25  2  8 15.0010000  0  3 03 23 17
  21288432.119     3748678.433 3   2921047.357 2
  21635695.517   -12623562.373 3  -9836515.051 3
  20872964.142     -125890.440 4    -98092.376 4
 91  7 25  2  8 30.0010000  0  3 03 23 17
  21294250.789     3779249.984 3   2944869.312 2
  21631478.934   -12645731.106 3  -9853789.369 3
  20875353.792     -113305.690 4    -88286.079 4
 91  7 25  2  8 45.0010000  0  3 03 23 17
  21300095.844     3809945.600 3   2968787.961 2
  21627277.655   -12667795.944 3  -9870982.718 2
  20877766.826     -100650.638 4    -78425.002 4
 91  7 25  2  9  0.0010000  0  3 03 23 17
  21305955.889     3840763.863 3   2992802.180 2
  21623101.538   -12689758.239 3  -9888096.167 2
  20880183.454      -87926.900 4    -68510.397 4
 91  7 25  2  9 15.0010000  0  3 03 23 17
  21311845.023     3871707.021 3   3016913.719 2
  21618940.115   -12711615.577 3  -9905127.830 3
  20882620.464      -75132.055 4    -58540.383 4
 91  7 25  2  9 30.0010000  0  3 03 23 17
  21317755.430     3902776.410 3   3041123.617 2
  21614803.890   -12733366.839 3  -9922076.841 3
  20885068.573      -62265.293 4    -48514.337 4
 91  7 25  2  9 45.0010000  0  3 03 23 17
  21323693.407     3933972.524 3   3065432.264 2
  21610683.230   -12755011.392 3  -9938942.701 2
  20887530.764      -49325.921 4    -38431.704 4
 91  7 25  2 10  0.0010000  0  3 03 23 17
  21329655.693     3965296.217 3   3089840.332 2
  21606582.674   -12776547.957 3  -9955724.412 2
  20890005.554      -36312.593 4    -28291.457 3
 91  7 25  2 10 15.0010000  0  3 03 23 17
  21335639.547     3996741.862 3   3114343.405 2
  21602507.297   -12797982.531 3  -9972426.651 3
  20892496.520      -23231.499 4    -18098.393 4
 91  7 25  2 10 30.0010000  0  3 03 23 17
  21341648.582     4028315.068 3   3138945.894 2
  21598449.302   -12819309.012 3  -9989044.663 3
  20895001.289      -10076.708 4     -7847.910 4
 91  7 25  2 10 45.0010000  0  3 03 23 17
  21347675.608     4060011.315 3   3163644.254 2
  21594408.704   -12840532.115 3 -10005582.118 2
  20897515.045        3146.890 4      2456.189 4
 91  7 25  2 11  0.0010000  0  3 03 23 17
  21353733.224     4091830.340 3   3188438.275 2
  21590391.175   -12861651.824 3 -10022039.004 2
  20900043.809       16439.126 4     12813.779 3
 91  7 25  2 11 15.0010000  0  3 03 23 17
  21359812.112     4123777.299 3   3213332.006 2
  21586394.656   -12882663.135 4 -10038411.425 2
  20902587.545       29804.987 4     23228.729 4
 91  7 25  2 11 30.0010000  0  3 03 23 17
  21365915.291     4155846.460 3   3238320.946 2
  21582411.312   -12903571.247 3 -10054703.447 2
  20905143.862       43239.135 4     33696.898 4
 91  7 25  2 11 45.0010000  0  3 03 23 17
  21372042.446     4188041.537 3   3263408.007 2
  21578457.041   -12924372.472 3 -10070912.165 3
  20907715.483       56744.868 4     44220.842 4
 91  7 25  2 12  0.0010000  0  3 03 23 17
  21378190.594     4220364.756 3   3288594.919 2
  21574518.963   -12945064.767 3 -10087035.995 3
  20910299.407       70324.400 4     54802.289 4
 91  7 25  2 12 15.0010000  0  3 03 23 17
  21384366.313     4252813.223 3   3313879.445 2
  21570597.393   -12965650.710 3 -10103076.966 2
  20912897.395       83975.064 4     65439.170 4
 91  7 25  2 12 30.0010000  0  3 03 23 17
  21390565.713     4285386.621 3   3339261.291 2
  21566700.375   -12986130.450 3 -10119035.183 3
  20915508.890       97696.458 4     76131.164 4
 91  7 25  2 12 45.0010000  0  3 03 23 17
  21396789.403     4318085.768 3   3364741.125 2
  21562825.869   -13006503.116 3 -10134909.962 2
  20918131.186      111489.421 4     86878.920 4
 91  7 25  2 13  0.0010000  0  3 03 23 17
  21403032.584     4350909.686 3   3390318.186 2
  21558965.148   -13026769.697 3 -10150702.073 3
  20920771.753      125352.635 4     97681.420 4
 91  7 25  2 13 15.0010000  0  3 03 23 17
  21409303.948     4383858.403 3   3415992.498 2
  21555133.499   -13046930.055 3 -10166411.418 3
  20923422.808      139286.377 4    108538.883 3
 91  7 25  2 13 30.0010000  0  3 03 23 17
  21415598.992     4416937.688 3   3441768.556 2
  21551315.932   -13066978.305 3 -10182033.406 3
  20926087.666      153296.192 4    119455.623 4
 91  7 25  2 13 45.0010000  0  3 03 23 17
  21421915.308     4450140.383 3   3467640.774 2
  21547524.453   -13086921.414 3 -10197573.466 3
  20928766.309      167375.130 4    130426.221 4
 91  7 25  2 14  0.0010000  0  3 03 23 17
  21428260.417     4483468.177 3   3493610.462 2
  21543747.371   -13106757.761 3 -10213030.332 3
  20931456.347      181524.749 4    141451.900 4
 91  7 25  2 14 15.0010000  0  3 03 23 17
  21434625.924     4516919.198 3   3519676.181 2
  21539993.079   -13126488.899 3 -10228405.215 3
  20934165.581      195743.007 4    152531.062 4
 91  7 25  2 14 30.0010000  0  3 03 23 17
  21441017.486     4550493.815 3   3545838.199 2
  21536259.762   -13146114.482 3 -10243697.854 3
  20936883.801      210030.477 4    163664.151 3
 91  7 25  2 14 45.0010000  0  3 03 23 17
  21447427.055     4584192.459 3   3572096.866 2
  21532545.029   -13165633.815 3 -10258907.693 3
  20939617.011      224387.597 4    174851.516 4
 91  7 25  2 15  0.0010000  0  3 03 23 17
  21453861.806     4618018.598 3   3598454.888 2
  21528849.195   -13185043.581 3 -10274032.163 3
  20942361.302      238817.809 4    186095.835 4
 91  7 25  2 15 15.0010000  0  3 03 23 17
  21460323.534     4651969.163 3   3624909.858 2
  21525175.226   -13204346.732 3 -10289073.556 2
  20945120.897      253318.084 4    197394.752 4
 91  7 25  2 15 30.0010000  0  3 03 23 17
  21466804.737     4686045.438 3   3651462.789 2
  21521521.360   -13223541.727 3 -10304030.672 3
  20947893.981      267890.003 4    208749.489 4
 91  7 25  2 15 45.0010000  0  3 03 23 17
  21473316.233     4720249.719 3   3678115.450 2
  21517891.767   -13242626.268 3 -10318901.720 3
  20950681.741      282535.333 4    220161.435 4
 91  7 25  2 16  0.0010000  0  3 03 23 17
  21479854.411     4754581.170 3   3704867.212 2
  21514281.666   -13261601.004 3 -10333687.205 3
  20953482.099      297253.477 4    231630.117 4
 91  7 25  2 16 15.0010000  0  3 03 23 17
  21486407.264     4789040.834 3   3731718.879 2
  21510693.762   -13280464.993 3 -10348386.388 3
  20956298.652      312045.126 4    243156.074 3
 91  7 25  2 16 30.0010000  0  3 03 23 17
  21492988.614     4823621.725 3   3758665.020 2
  21507120.237   -13299224.725 3 -10363004.341 3
  20959126.599      326903.715 4    254734.195 3
 91  7 25  2 16 45.0010000  0  3 03 23 17
  21499591.550     4858326.087 3   3785707.364 2
  21503574.893   -13317878.305 3 -10377539.574 2
  20961965.627      341831.266 4    266366.048 4
 91  7 25  2 17  0.0010000  0  3 03 23 17
  21506221.446     4893157.283 3   3812848.532 2
  21500043.632   -13336422.073 3 -10391989.238 3
  20964818.162      356831.333 4    278054.411 4
 91  7 25  2 17 15.0010000  0  3 03 23 17
  21512872.945     4928114.570 3   3840087.949 2
  21496535.161   -13354856.736 3 -10406353.880 3
  20967688.671      371902.903 4    289798.490 3
 91  7 25  2 17 30.0010000  0  3 03 23 17
  21519549.625     4963197.386 3   3867425.193 2
  21493047.666   -13373182.518 3 -10420633.688 3
  20970569.370      387045.810 4    301598.162 4
 91  7 25  2 17 45.0010000  0  3 03 23 17
  21526248.781     4998410.171 3   3894863.705 2
  21489584.478   -13391395.022 3 -10434825.228 3
  20973465.373      402264.193 4    313456.640 3
 91  7 25  2 18  0.0010000  0  3 03 23 17
  21532976.434     5033750.978 3   3922401.978 2
  21486138.357   -13409496.004 4 -10448929.862 3
  20976373.051      417556.226 4    325372.512 4
 91  7 25  2 18 15.0010000  0  3 03 23 17
  21539725.358     5069218.310 3   3950038.840 2
  21482711.430   -13427486.861 3 -10462948.688 3
  20979300.237      432920.278 4    337344.505 3
 91  7 25  2 18 30.0010000  0  3 03 23 17
  21546498.572     5104811.184 3   3977773.530 2
  21479308.481   -13445368.656 4 -10476882.533 3
  20982235.207      448355.516 4    349371.963 3
 91  7 25  2 18 45.0010000  0  3 03 23 17
  21553293.059     5140528.929 3   4005605.519 2
  21475928.618   -13463141.722 4 -10490731.654 3
  20985189.058      463861.352 4    361454.430 4
 91  7 25  2 19  0.0010000  0  3 03 23 17
  21560115.745     5176373.809 3   4033536.576 2
  21472570.655   -13480803.940 4 -10504494.392 3
  20988150.098      479440.015 4    373593.651 3
 91  7 25  2 19 15.0010000  0  3 03 23 17
  21566961.797     5212345.576 3   4061566.496 2
  21469228.258   -13498355.307 4 -10518170.758 3
  20991130.944      495091.197 4    385789.377 3
 91  7 25  2 19 30.0010000  0  3 03 23 17
  21573827.952     5248440.562 3   4089692.438 2
  21465905.370   -13515799.413 4 -10531763.545 3
  20994119.573      510811.345 4    398038.845 3
 91  7 25  2 19 45.0010000  0  3 03 23 17
  21580720.770     5284660.904 3   4117916.053 2
  21462611.851   -13533134.151 4 -10545271.112 3
  20997125.897      526602.331 4    410343.507 3
 91  7 25  2 20  0.0010000  0  3 03 23 17
  21587638.787     5321010.770 3   4146240.615 2
  21459336.602   -13550355.044 4 -10558689.966 3
  21000145.395      542468.749 4    422706.951 3
 91  7 25  2 20 15.0010000  0  3 03 23 17
  21594578.686     5357489.419 3   4174665.515 2
  21456079.065   -13567462.729 4 -10572020.600 3
  21003177.510      558409.632 4    435128.421 3
 91  7 25  2 20 30.0010000  0  3 03 23 17
  21601547.064     5394096.405 3   4203190.421 2
  21452844.301   -13584457.577 3 -10585263.316 3
  21006226.098      574424.534 4    447607.572 3
 91  7 25  2 20 45.0010000  0  3 03 23 17
  21608537.028     5430831.457 3   4231815.121 2
  21449627.231   -13601339.873 3 -10598418.335 3
  21009289.972      590513.363 4    460144.317 3
 91  7 25  2 21  0.0010000  0  3 03 23 17
  21615553.063     5467694.654 3   4260539.657 2
  21446442.828   -13618109.394 4 -10611485.467 3
  21012364.352      606676.005 4    472738.592 3
 91  7 25  2 21 15.0010000  0  3 03 23 17
  21622589.200     5504688.364 3   4289365.924 1
  21443274.933   -13634763.617 4 -10624462.762 3
  21015455.204      622915.009 4    485392.364 3
 91  7 25  2 21 30.0010000  0  3 03 23 17
  21629655.002     5541808.581 3   4318290.764 2
  21440122.307   -13651306.308 4 -10637353.144 3
  21018558.359      639226.326 4    498102.484 4
 91  7 25  2 21 45.0010000  0  3 03 23 17
  21636744.188     5579057.428 3   4347315.812 2
  21436996.380   -13667735.183 4 -10650154.847 3
  21021675.299      655612.379 4    510870.837 4
 91  7 25  2 22  0.0010000  0  3 03 23 17
  21643857.072     5616433.474 3   4376439.985 2
  21433891.724   -13684051.744 4 -10662869.030 3
  21024807.526      672071.469 4    523696.107 3
 91  7 25  2 22 15.0010000  0  3 03 23 17
  21650992.134     5653938.586 3   4405664.726 2
  21430806.857   -13700254.038 4 -10675494.166 3
  21027955.353      688605.586 4    536579.837 3
 91  7 25  2 22 30.0010000  0  3 03 23 17
  21658152.970     5691569.275 3   4434987.331 2
  21427745.984   -13716345.373 4 -10688032.845 3
  21031112.167      705211.189 4    549519.271 4
 91  7 25  2 22 45.0010000  0  3 03 23 17
  21665339.005     5729324.904 3   4464407.285 2
  21424704.289   -13732326.289 4 -10700485.489 3
  21034286.362      721887.640 4    562513.907 3
 91  7 25  2 23  0.0020000  0  3 03 23 17
  21672546.611     5767211.789 3   4493929.514 2
  21421685.073   -13748194.031 4 -10712849.946 3
  21037477.050      738640.072 4    575567.754 3
 91  7 25  2 23 15.0020000  0  3 03 23 17
  21679781.506     5805221.449 3   4523547.410 2
  21418689.848   -13763949.625 4 -10725127.005 3
  21040677.036      755462.766 4    588676.347 3
 91  7 25  2 23 30.0020000  0  3 03 23 17
  21687037.673     5843357.572 3   4553263.858 2
  21415709.316   -13779593.229 3 -10737316.800 3
  21043892.012      772357.819 4    601841.324 4
 91  7 25  2 23 45.0020000  0  3 03 23 17
  21694322.633     5881619.974 3   4583078.688 2
  21412753.057   -13795124.516 4 -10749419.080 3
  21047123.182      789325.401 4    615062.820 3
 91  7 25  2 24  0.0020000  0  3 03 23 17
  21701623.787     5920007.718 3   4612991.187 2
  21409821.682   -13810544.438 4 -10761434.584 3
  21050364.839      806364.468 4    628340.020 3
 91  7 25  2 24 15.0020000  0  3 03 23 17
  21708951.901     5958521.912 3   4643002.235 2
  21406908.613   -13825851.750 4 -10773362.340 3
  21053619.985      823476.241 4    641673.869 4
 91  7 25  2 24 30.0020000  0  3 03 23 17
  21716308.808     5997158.092 3   4673108.345 2
  21404016.501   -13841050.817 4 -10785205.740 3
  21056887.416      840656.367 4    655060.976 4
 91  7 25  2 24 45.0020000  0  3 03 23 17
  21723683.707     6035923.563 3   4703315.174 2
  21401145.696   -13856134.142 4 -10796958.962 3
  21060171.041      857912.048 4    668506.963 3
 91  7 25  2 25  0.0020000  0  3 03 23 17
  21731084.379     6074816.126 3   4733621.052 2
  21398295.866   -13871103.927 4 -10808623.709 3
  21063469.359      875241.082 4    682010.106 3
 91  7 25  2 25 15.0020000  0  3 03 23 17
  21738512.047     6113835.720 3   4764025.910 2
  21395469.122   -13885960.226 4 -10820200.023 3
  21066779.980      892643.613 4    695570.521 3
 91  7 25  2 25 30.0020000  0  3 03 23 17
  21745961.283     6152976.445 3   4794525.155 1
  21392664.872   -13900708.669 4 -10831692.288 3
  21070108.574      910113.723 4    709183.581 3
 91  7 25  2 25 45.0020000  0  3 03 23 17
  21753430.307     6192248.270 3   4825126.564 1
  21389879.486   -13915339.024 4 -10843092.546 3
  21073446.451      927661.443 4    722857.130 3
 91  7 25  2 26  0.0020000  0  3 03 23 17
  21760928.422     6231646.905 3   4855826.765 1
  21387116.000   -13929855.790 4 -10854404.291 3
  21076798.132      945282.315 4    736587.680 3
 91  7 25  2 26 15.0020000  0  3 03 23 17
  21768446.621     6271171.922 3   4886625.463 2
  21384375.600   -13944259.055 4 -10865627.592 3
  21080164.803      962976.186 4    750375.105 3
 91  7 25  2 26 30.0020000  0  3 03 23 17
  21775997.487     6310829.513 3   4917527.452 1
  21381655.286   -13958542.699 3 -10876757.686 3
  21083549.464      980749.370 4    764224.331 3
 91  7 25  2 26 45.0020000  0  4 03 21 23 17
  21783564.251     6350611.676 3   4948526.528 1
  24903027.995           0.952 2         0.331 1
  21378960.449   -13972714.650 4 -10887800.744 3
  21086942.205      998593.713 4    778129.012 3
 91  7 25  2 27  0.0020000  0  4 03 21 23 17
  21791162.494     6390525.285 3   4979628.010 1
  24894800.496      -43228.925 2    -33685.132 1
  21376286.307   -13986767.599 4 -10898751.074 3
  21090352.658     1016516.312 4    792094.670 3
 91  7 25  2 27 15.0020000  0  4 03 21 23 17
  21798780.527     6430565.283 3   5010827.983 2
  24886586.173      -86417.697 2    -67338.527 1
  21373633.141   -14000706.665 4 -10909612.664 3
  21093778.084     1034512.214 4    806117.445 3
 91  7 25  2 27 30.0020000  0  4 03 21 23 17
  21806428.224     6470733.034 3   5042127.501 2
  24878375.165     -129563.888 2   -100958.893 1
  21371001.858   -14014530.410 4 -10920384.388 3
  21097217.295     1052582.804 4    820198.423 3
 91  7 25  2 27 45.0020000  0  4 03 21 23 17
  21814091.522     6511026.454 3   5073524.943 1
  24870173.440     -172669.553 2   -134547.515 1
  21368392.178   -14028240.712 4 -10931067.718 3
  21100668.808     1070725.997 4    834335.963 3
 91  7 25  2 28  0.0020000  0  4 03 21 23 17
  21821780.001     6551445.247 3   5105020.082 2
  24861975.014     -215734.464 2   -168104.444 1
  21365804.956   -14041837.542 4 -10941662.632 3
  21104137.109     1088941.398 4    848529.780 3
 91  7 25  2 28 15.0020000  0  4 03 21 23 17
  21829499.960     6591987.458 3   5136611.387 2
  24853784.684     -258760.533 2   -201631.096 1
  21363243.229   -14055323.062 4 -10952170.810 3
  21107615.007     1107227.213 4    862778.466 3
 91  7 25  2 28 30.0020000  0  4 03 21 23 17
  21837235.502     6632655.486 3   5168300.744 2
  24845607.547     -301745.040 2   -235125.386 1
  21360695.602   -14068694.729 4 -10962590.271 3
  21111110.879     1125585.850 4    877083.893 3
 91  7 25  2 28 45.0020000  0  4 03 21 23 17
  21845002.820     6673451.488 3   5200089.806 1
  24837440.601     -344685.588 2   -268585.372 1
  21358175.843   -14081950.299 4 -10972919.258 3
  21114614.551     1144019.614 4    891447.857 3
 91  7 25  2 29  0.0020000  0  4 03 21 23 17
  21852791.132     6714373.513 3   5231977.072 2
  24829272.154     -387583.603 2   -302012.257 1
  21355674.669   -14095091.438 4 -10983159.096 3
  21118139.216     1162526.877 4    905869.093 3
 91  7 25  2 29 15.0020000  0  4 03 21 23 17
  21860598.918     6755422.098 3   5263962.936 2
  24821112.397     -430438.499 2   -335405.571 1
  21353195.691   -14108117.674 4 -10993309.393 3
  21121673.478     1181107.799 4    920347.731 3
 91  7 25  2 29 30.0020000  0  4 03 21 23 17
  21868434.606     6796592.791 3   5296043.969 2
  24812961.052     -473254.293 2   -368768.407 1
  21350737.095   -14121033.203 4 -11003373.414 3
  21125222.713     1199758.244 4    934880.532 3
 91  7 25  2 29 45.0020000  0  4 03 21 23 17
  21876295.162     6837886.535 3   5328220.884 2
  24804834.573     -516029.925 2   -402099.916 1
  21348301.271   -14133837.052 4 -11013350.416 3
  21128786.938     1218479.139 4    949468.241 3
 91  7 25  2 30  0.0020000  0  4 03 21 23 17
  21884174.005     6879303.743 3   5360494.011 2
  24796695.198     -558764.704 2   -435399.574 1
  21345884.346   -14146528.598 4 -11023239.914 3
  21132362.278     1237271.022 4    964111.261 3
 91  7 25  2 30 15.0020000  0  4 03 21 23 17
  21892078.622     6920845.762 3   5392864.403 2
  24788574.128     -601457.141 2   -468666.270 1
  21343492.602   -14159106.620 4 -11033040.958 3
  21135951.090     1256135.176 4    978810.601 3
 91  7 25  2 30 30.0020000  0  4 03 21 23 17
  21900006.936     6962511.452 3   5425331.130 2
  24780456.950     -644108.003 2   -501900.548 1
  21341117.051   -14171571.865 4 -11042754.109 3
  21139555.188     1275070.840 4    993565.656 3
 91  7 25  2 30 45.0020000  0  4 03 21 23 17
  21907961.339     7004302.030 3   5457895.192 2
  24772352.353     -686715.838 2   -535101.327 1
  21338768.479   -14183922.909 4 -11052378.273 3
  21143171.588     1294078.768 4   1008377.023 3
 91  7 25  2 31  0.0020000  0  4 03 21 23 17
  21915931.918     7046219.264 3   5490557.941 1
  24764248.071     -729278.640 2   -568266.999 1
  21336440.288   -14196157.946 4 -11061912.050 3
  21146803.869     1313161.141 4   1023246.398 3
 91  7 25  2 31 15.0020000  0  4 03 21 23 17
  21923935.478     7088261.164 3   5523317.851 2
  24756161.169     -771797.974 2   -601398.827 1
  21334133.387   -14208278.807 4 -11071356.862 3
  21150448.155     1332316.221 4   1038172.431 3
 91  7 25  2 31 30.0020000  0  4 03 21 23 17
  21931960.920     7130430.974 3   5556177.408 2
  24748073.673     -814270.588 2   -634494.186 1
  21331847.164   -14220282.480 4 -11080710.355 3
  21154109.210     1351547.094 4   1053157.528 3
 91  7 25  2 31 45.0020000  0  4 03 21 23 17
  21940005.854     7172721.794 3   5589131.270 2
  24740003.559     -856703.052 2   -667558.262 1
  21329585.843   -14232175.416 4 -11089977.558 3
  21157778.974     1370847.015 4   1068196.425 3
 91  7 25  2 32  0.0020000  0  4 03 21 23 17
  21948082.251     7215135.718 3   5622181.056 2
  24731930.145     -899092.921 2   -700589.160 1
  21327344.886   -14243955.450 4 -11099156.779 3
  21161466.117     1390218.238 4   1083290.875 3
 91  7 25  2 32 15.0020000  0  4 03 21 23 17
  21956172.766     7257671.396 3   5655325.706 1
  24723876.224     -941441.285 2   -733587.701 1
  21325124.031   -14255623.808 4 -11108248.995 3
  21165166.768     1409659.519 4   1098439.924 3
 91  7 25  2 32 30.0020000  0  4 03 21 23 17
  21964292.334     7300326.368 3   5688563.336 1
  24715822.286     -983750.576 2   -766555.913 1
  21322925.653   -14267182.847 4 -11117256.019 3
  21168881.186     1429168.183 4   1113641.479 3
 91  7 25  2 32 45.0020000  0  4 03 21 23 17
  21972433.193     7343107.516 3   5721899.273 2
  24707785.448    -1026013.548 2   -799487.947 1
  21320745.859   -14278625.600 4 -11126172.428 3
  21172606.110     1448751.276 4   1128901.028 3
 91  7 25  2 33  0.0020000  0  4 03 21 23 17
  21980599.842     7386013.758 3   5755332.674 1
  24699744.720    -1068230.816 2   -832384.410 1
  21318589.152   -14289953.052 4 -11134999.000 3
  21176346.319     1468407.938 4   1144217.900 3
 91  7 25  2 33 15.0020000  0  4 03 21 23 17
  21988787.188     7429039.881 3   5788859.495 2
  24691724.966    -1110407.382 2   -865249.141 1
  21316456.421   -14301170.367 3 -11143739.743 3
  21180099.128     1488133.120 4   1159588.175 3
 91  7 25  2 33 30.0020000  0  4 03 21 23 17
  21996997.602     7472192.348 3   5822484.772 2
  24683703.729    -1152536.511 2   -898076.873 1
  21314347.684   -14312270.859 4 -11152389.464 3
  21183866.910     1507933.275 4   1175016.861 3
 91  7 25  2 33 45.0020000  0  4 03 21 23 17
  22005230.196     7515450.743 3   5856192.605 1
  24675690.868    -1194638.411 2   -930883.446 1
  21312248.842   -14323274.759 4 -11160963.913 3
  21187646.400     1527787.882 4   1190487.977 3
 91  7 25  2 34  0.0020000  0  4 03 21 23 17
  22013481.392     7558830.155 3   5889994.714 2
  24667684.621    -1236697.643 2   -963656.748 1
  21310180.869   -14334166.974 4 -11169451.331 3
  21191436.674     1547712.189 4   1206013.410 3
 91  7 25  2 34 15.0020000  0  4 03 21 23 17
  22021759.252     7602326.276 3   5923887.769 2
  24659693.957    -1278718.254 2   -996399.973 1
  21308126.996   -14344951.671 4 -11177854.977 3
  21195238.047     1567702.076 4   1221589.944 3
 91  7 25  2 34 30.0020000  0  4 03 21 23 17
  22030055.714     7645946.893 3   5957877.841 1
  24651702.682    -1320692.261 2  -1029106.834 1
  21306094.691   -14355620.841 4 -11186168.597 3
  21199059.802     1587765.507 4   1237223.764 3
 91  7 25  2 34 45.0020000  0  4 03 21 23 17
  22038380.951     7689690.002 3   5991963.343 1
  24643724.006    -1362621.340 2  -1061778.754 1
  21304087.881   -14366176.216 4 -11194393.552 3
  21202892.341     1607900.595 4   1252913.456 3
 91  7 25  2 35  0.0020000  0  4 03 21 23 17
  22046733.759     7733554.838 3   6026143.711 1
  24635757.022    -1404506.129 2  -1094416.164 1
  21302099.970   -14376618.748 4 -11202530.570 3
  21206736.886     1628106.539 4   1268658.340 3
 91  7 25  2 35 15.0020000  0  4 03 21 23 17
  22055106.060     7777543.868 3   6060420.856 1
  24627796.931    -1446343.758 2  -1127016.758 1
  21300136.018   -14386945.701 4 -11210577.534 3
  21210594.902     1648386.009 4   1284460.523 3
 91  7 25  2 35 30.0020000  0  4 03 21 23 17
  22063492.756     7821652.529 3   6094791.218 1
  24619840.731    -1488138.480 2  -1159583.969 1
  21298193.965   -14397161.701 4 -11218538.038 3
  21214467.036     1668734.507 4   1300316.494 3
 91  7 25  2 35 45.0020000  0  4 03 21 23 17
  22071911.527     7865881.684 3   6129255.484 1
  24611891.738    -1529889.220 2  -1192116.897 1
  21296266.606   -14407265.553 4 -11226411.157 3
  21218354.438     1689152.951 4   1316226.965 3
 91  7 25  2 36  0.0020000  0  4 03 21 23 17
  22080360.887     7910258.403 3   6163834.706 2
  24603969.723    -1571568.446 2  -1224594.176 1
  21294371.321   -14417230.002 4 -11234175.652 3
  21222254.736     1709668.468 4   1332213.075 3
 91  7 25  2 36 15.0020000  0  4 03 21 23 17
  22088826.721     7954762.553 3   6198513.244 2
  24596043.206    -1613196.119 2  -1257031.111 1
  21292498.511   -14427075.283 4 -11241847.267 3
  21226174.823     1730260.900 4   1348259.122 3
 91  7 25  2 36 30.0020000  0  4 03 21 23 17
  22097319.236     7999376.897 3   6233277.634 2
  24588125.990    -1654789.191 2  -1289441.241 1
  21290646.694   -14436818.281 4 -11249439.202 3
  21230103.303     1750913.242 4   1364351.857 3
 91  7 25  2 36 45.0020000  0  4 03 21 23 17
  22105823.460     8044070.887 3   6268104.098 1
  24580211.775    -1696377.939 2  -1321847.933 1
  21288803.567   -14446489.475 4 -11256975.189 3
  21234042.271     1771595.022 4   1380467.528 3
 91  7 25  2 37  0.0020000  0  4 03 21 23 17
  22114348.659     8088875.283 3   6303016.595 1
  24572301.748    -1737931.484 2  -1354227.192 1
  21286983.823   -14456058.172 3 -11264431.300 3
  21237987.556     1792337.119 4   1396630.196 3
 91  7 25  2 37 15.0020000  0  4 03 21 23 17
  22122897.538     8133798.483 3   6338021.661 1
  24564408.212    -1779441.058 2  -1386572.241 1
  21285181.478   -14465515.657 4 -11271800.747 3
  21241946.905     1813148.073 4   1412846.529 3
 91  7 25  2 37 30.0020000  0  4 03 21 23 17
  22131467.096     8178838.603 3   6373117.832 2
  24556519.772    -1820908.252 2  -1418884.251 1
  21283402.515   -14474863.809 4 -11279085.010 3
  21245921.559     1834026.157 4   1429115.165 3
 91  7 25  2 37 45.0020000  0  4 03 21 23 17
  22140060.647     8223997.550 3   6408306.590 2
  24548638.834    -1862330.654 2  -1451161.352 1
  21281646.029   -14484100.332 4 -11286282.282 3
  21249906.997     1854973.391 4   1445437.687 3
 91  7 25  2 38  0.0020000  0  4 03 21 23 17
  22148678.786     8269277.184 3   6443589.391 1
  24540761.178    -1903706.368 2  -1483402.080 1
  21279906.626   -14493223.711 4 -11293391.404 3
  21253906.534     1875991.535 4   1461815.458 3
 91  7 25  2 38 15.0020000  0  4 03 21 23 17
  22157319.105     8314677.163 3   6478965.989 2
  24532896.435    -1945035.517 2  -1515606.505 1
  21278195.719   -14502233.929 4 -11300412.338 3
  21257921.044     1897080.482 4   1478248.403 3
 91  7 25  2 38 30.0020000  0  4 03 21 23 17
  22165985.511     8360232.391 3   6514463.547 2
  24525052.352    -1986282.725 2  -1547747.081 1
  21276510.273   -14511095.734 4 -11307317.624 3
  21261953.249     1918275.374 4   1494763.910 3
 91  7 25  2 38 45.0020000  0  4 03 21 23 17
  22174677.691     8405917.952 3   6550062.664 1
  24517200.191    -2027472.650 2  -1579843.010 1
  21274848.227   -14519833.968 4 -11314126.624 3
  21265999.553     1939551.343 4   1511342.580 3
 91  7 25  2 39  0.0020000  0  4 03 21 23 17
  22183393.848     8451717.162 3   6585750.330 1
  24509383.104    -2068621.523 2  -1611907.001 1
  21273205.062   -14528465.219 4 -11320852.265 3
  21270062.941     1960891.929 4   1527971.609 3
 91  7 25  2 39 15.0020000  0  4 03 21 23 17
  22192133.406     8497633.780 3   6621529.470 1
  24501553.732    -2109725.716 2  -1643936.194 1
  21271582.593   -14536985.869 4 -11327491.721 3
  21274133.518     1982300.684 4   1544653.758 3
 91  7 25  2 39 30.0020000  0  4 03 21 23 17
  22200891.845     8543670.017 3   6657401.843 2
  24493740.240    -2150782.483 2  -1675928.342 1
  21269982.303   -14545393.530 4 -11334043.128 3
  21278223.587     2003780.130 4   1561390.987 3
 91  7 25  2 39 45.0020000  0  4 03 21 23 17
  22209671.869     8589815.863 3   6693359.623 2
  24485931.250    -2191801.532 2  -1707891.145 1
  21268401.785   -14553697.804 4 -11340513.977 3
  21282323.254     2025320.347 4   1578175.566 3
 91  7 25  2 40  0.0020000  0  4 03 21 23 17
  22218474.370     8636084.972 3   6729413.466 1
  24478143.532    -2232769.040 2  -1739813.721 1
  21266841.072   -14561884.893 4 -11346893.516 3
  21286435.206     2046934.808 4   1595018.000 3
 91  7 25  2 40 15.0020000  0  4 03 21 23 17
  22227308.961     8682491.432 3   6765574.298 2
  24470351.626    -2273670.586 2  -1771684.996 1
  21265312.136   -14569940.927 4 -11353170.937 3
  21290564.556     2068637.968 4   1611929.557 3
 91  7 25  2 40 30.0020000  0  4 03 21 23 17
  22236162.417     8729017.872 3   6801828.646 1
  24462586.104    -2314523.202 2  -1803518.125 1
  21263798.784   -14577883.015 4 -11359359.561 3
  21294710.379     2090412.740 4   1628896.913 3
 91  7 25  2 40 45.0020000  0  4 03 21 23 17
  22245038.086     8775665.296 3   6838177.259 1
  24454811.579    -2355325.387 2  -1835311.903 1
  21262310.001   -14585709.868 4 -11365458.390 3
  21298867.300     2112260.493 4   1645921.136 3
 91  7 25  2 41  0.0020000  0  4 03 21 23 17
  22253934.416     8822427.382 3   6874615.229 1
  24447063.455    -2396083.614 2  -1867071.463 1
  21260842.525   -14593428.034 4 -11371472.544 3
  21303036.523     2134174.362 4   1662996.877 3
 91  7 25  2 41 15.0020000  0  4 03 21 23 17
  22262854.741     8869311.988 3   6911148.659 2
  24439321.003    -2436789.448 2  -1898790.179 1
  21259393.337   -14601029.257 4 -11377395.566 3
  21307221.609     2156162.612 4   1680130.589 3
 91  7 25  2 41 30.0020000  0  4 03 21 23 17
  22271804.155     8916322.327 3   6947780.064 2
  24431580.662    -2477439.396 2  -1930465.360 1
  21257972.906   -14608510.141 4 -11383224.818 3
  21311419.608     2178228.675 4   1697324.920 3
 91  7 25  2 41 45.0020000  0  4 03 21 23 17
  22280779.343     8963477.191 3   6984524.097 1
  24423864.019    -2518014.287 2  -1962082.035 1
  21256574.376   -14615851.748 4 -11388945.534 3
  21315635.894     2200391.428 4   1714594.594 3
 91  7 25  2 42  0.0020000  0  4 03 21 23 17
  22289770.707     9010744.203 3   7021355.511 1
  24416149.452    -2558546.225 2  -1993665.265 1
  21255198.025   -14623086.254 4 -11394582.799 3
  21319866.263     2222618.923 4   1731914.726 3
 91  7 25  2 42 15.0020000  0  4 03 21 23 17
  22298791.161     9058125.722 3   7058276.146 1
  24408441.482    -2599032.758 2  -2025213.120 1
  21253842.667   -14630211.418 4 -11400134.865 3
  21324108.935     2244913.243 4   1749286.921 3
 91  7 25  2 42 30.0020000  0  4 03 21 23 17
  22307823.917     9105621.913 3   7095286.130 1
  24400750.316    -2639473.297 2  -2056725.104 1
  21252507.393   -14637226.736 4 -11405601.337 3
  21328365.078     2267274.528 4   1766711.296 3
 91  7 25  2 42 45.0020000  0  4 03 21 23 17
  22316885.745     9153229.670 3   7132383.041 1
  24393060.633    -2679870.807 2  -2088203.569 1
  21251191.298   -14644135.442 4 -11410984.730 3
  21332634.117     2289699.835 4   1784185.562 3
 91  7 25  2 43  0.0020000  0  4 03 21 23 17
  22325968.252     9200949.000 3   7169566.921 2
  24385376.063    -2720224.790 2  -2119648.104 1
  21249898.900   -14650937.377 4 -11416284.929 3
  21336910.956     2312189.629 4   1801710.075 3
 91  7 25  2 43 15.0020000  0  4 03 21 23 17
  22335075.346     9248783.366 3   7206840.414 1
  24377713.062    -2760531.285 2  -2151055.664 1
  21248623.586   -14657628.588 4 -11421498.849 3
  21341206.396     2334747.754 4   1819287.838 3
 91  7 25  2 43 30.0020000  0  4 03 21 23 17
  22344193.242     9296723.711 3   7244196.489 1
  24370051.264    -2800799.411 2  -2182433.334 1
  21247374.656   -14664218.334 4 -11426633.701 3
  21345508.713     2357364.714 4   1836911.441 3
 91  7 25  2 43 45.0020000  0  4 03 21 23 17
  22353341.711     9344778.747 3   7281641.972 1
  24362397.267    -2841020.105 2  -2213774.043 1
  21246136.511   -14670697.786 4 -11431682.617 3
  21349823.628     2380049.292 4   1854587.739 3
 91  7 25  2 44  0.0020000  0  4 03 21 23 17
  22362503.668     9392949.407 3   7319177.489 1
  24354753.147    -2881191.942 2  -2245076.669 1
  21244928.345   -14677065.746 4 -11436644.652 3
  21354155.034     2402802.948 4   1872317.852 3
 91  7 25  2 44 15.0020000  0  4 03 21 23 17
  22371691.696     9441233.219 3   7356801.208 1
  24347117.734    -2921316.982 2  -2276342.858 1
  21243734.576   -14683324.624 4 -11441521.686 3
  21358497.817     2425623.375 4   1890100.007 3
 91  7 25  2 44 30.0020000  0  4 03 21 23 17
  22380901.031     9489632.370 3   7394514.824 2
  24339482.322    -2961393.089 2  -2307570.914 1
  21242566.284   -14689472.197 4 -11446311.989 3
  21362852.310     2448512.559 4   1907935.731 3
 91  7 25  2 44 45.0020000  0  4 03 21 23 17
  22390132.528     9538145.836 3   7432317.493 1
  24331874.498    -3001420.753 2  -2338761.178 1
  21241418.373   -14695508.904 4 -11451015.907 3
  21367223.572     2471469.891 4   1925824.557 3
 91  7 25  2 45  0.0020000  0  4 03 21 23 17
  22399385.628     9586740.965 3   7470183.794 1
  24324252.871    -3041432.423 2  -2369939.009 1
  21240284.860   -14701467.601 4 -11455659.045 3
  21371599.353     2494462.790 4   1943741.098 3
 91  7 25  2 45 15.0020000  0  4 03 21 23 17
  22408649.513     9635433.140 3   7508125.709 1
  24316645.641    -3081412.369 2  -2401092.112 1
  21239169.930   -14707332.683 4 -11460229.226 3
  21375982.918     2517506.782 4   1961697.457 3
 91  7 25  2 45 30.0020000  0  4 03 21 23 17
  22417936.187     9684236.589 3   7546154.340 1
  24309050.102    -3121346.145 2  -2432209.218 1
  21238072.381   -14713089.888 4 -11464715.346 3
  21380382.065     2540616.100 4   1979704.710 3
 91  7 25  2 45 45.0020000  0  4 03 21 23 17
  22427243.836     9733155.057 3   7584272.597 1
  24301454.249    -3161229.614 2  -2463287.171 1
  21236997.936   -14718735.274 4 -11469114.336 3
  21384791.718     2563794.817 4   1997766.051 3
 91  7 25  2 46  0.0020000  0  4 03 21 23 17
  22436576.981     9782187.936 3   7622479.984 1
  24293882.687    -3201063.209 2  -2494326.218 1
  21235946.858   -14724269.460 4 -11473426.680 3
  21389213.359     2587042.502 4   2015881.126 3
 91  7 25  2 46 15.0020000  0  4 03 21 23 17
  22445926.615     9831332.198 3   7660774.206 1
  24286313.236    -3240849.311 2  -2525328.270 1
  21234912.880   -14729695.016 3 -11477654.377 3
  21393652.991     2610356.312 4   2034047.731 3
 91  7 25  2 46 30.0020000  0  4 03 21 23 17
  22455299.319     9880591.187 3   7699157.780 1
  24278743.471    -3280584.474 2  -2556290.646 1
  21233899.581   -14735008.674 4 -11481794.876 3
  21398099.498     2633739.525 4   2052268.412 3
 91  7 25  2 46 45.0020000  0  4 03 21 23 17
  22464697.518     9929962.585 3   7737628.977 2
  24271193.809    -3320270.621 2  -2587214.818 1
  21232910.258   -14740212.411 4 -11485849.723 3
  21402564.311     2657190.008 4   2070541.510 3
 91  7 25  2 47  0.0020000  0  4 03 21 23 17
  22474112.190     9979448.691 3   7776189.546 1
  24263651.930    -3359905.262 2  -2618098.856 1
  21231938.333   -14745303.916 4 -11489817.118 3
  21407039.611     2680710.225 4   2088868.949 3
 91  7 25  2 47 15.0020000  0  4 03 21 23 17
  22483556.562    10029047.438 3   7814837.878 1
  24256126.227    -3399490.322 2  -2648944.254 1
  21230994.294   -14750285.394 4 -11493698.780 3
  21411527.807     2704298.314 4   2107249.274 3
 91  7 25  2 47 30.0020000  0  4 03 21 23 17
  22493012.014    10078760.069 3   7853574.967 1
  24248598.150    -3439024.086 2  -2679749.745 1
  21230065.837   -14755155.290 4 -11497493.498 3
  21416029.789     2727955.812 4   2125683.679 3
 91  7 25  2 47 45.0020000  0  4 03 21 23 17
  22502491.741    10128581.988 3   7892397.224 1
  24241080.247    -3478510.818 2  -2710518.545 1
  21229159.857   -14759917.992 4 -11501204.681 3
  21420544.666     2751678.007 4   2144168.501 3
 91  7 25  2 48  0.0020000  0  4 03 21 23 17
  22511992.773    10178520.117 3   7931310.013 1
  24233578.538    -3517943.254 2  -2741245.030 1
  21228273.979   -14764566.474 4 -11504826.861 3
  21425072.125     2775471.934 4   2162709.225 3
 91  7 25  2 48 15.0020000  0  4 03 21 23 17
  22521521.674    10228573.179 3   7970312.369 1
  24226085.223    -3557322.409 2  -2771929.990 1
  21227411.764   -14769101.938 4 -11508360.981 3
  21429612.183     2799336.582 4   2181305.045 3
 91  7 25  2 48 30.0020000  0  4 03 21 23 17
  22531061.970    10278738.966 3   8009402.568 1
  24218602.709    -3596649.979 2  -2802574.716 1
  21226568.151   -14773526.285 4 -11511808.512 3
  21434169.936     2823270.072 4   2199954.503 3
 91  7 25  2 48 45.0020000  0  4 03 21 23 17
  22540629.244    10329020.052 3   8048582.596 1
  24211124.994    -3635923.348 2  -2833177.308 1
  21225748.217   -14777836.976 4 -11515167.483 3
  21438734.878     2847274.871 4   2218659.541 3
 91  7 25  2 49  0.0020000  0  4 03 21 23 17
  22550224.700    10379415.312 3   8087851.576 1
  24203661.955    -3675143.184 2  -2863738.085 1
  21224951.074   -14782034.892 4 -11518438.575 3
  21443318.405     2871350.169 4   2237419.507 3
 91  7 25  2 49 15.0020000  0  4 03 21 23 17
  22559832.458    10429920.396 3   8127206.163 1
  24196211.218    -3714313.328 2  -2894260.205 1
  21224174.609   -14786124.203 4 -11521625.038 3
  21447912.122     2895492.055 4   2256231.361 3
 91  7 25  2 49 30.0020000  0  4 03 21 23 17
  22569469.585    10480536.504 3   8166647.263 1
  24188761.668    -3753432.510 2  -2924742.618 1
  21223414.338   -14790103.704 4 -11524725.935 3
  21452516.938     2919701.578 4   2275095.911 3
 91  7 25  2 49 45.0020000  0  4 03 21 23 17
  22579121.999    10531262.949 3   8206174.329 1
  24181328.922    -3792501.119 2  -2955185.599 1
  21222682.546   -14793973.988 4 -11527741.738 3
  21457138.523     2943978.303 4   2294012.829 3
 91  7 25  2 50  0.0020000  0  4 03 21 23 17
  22588798.092    10582102.319 3   8245789.377 1
  24173902.162    -3831516.253 2  -2985586.947 1
  21221962.148   -14797732.374 4 -11530670.334 3
  21461774.226     2968324.776 4   2312984.099 3
 91  7 25  2 50 15.0020000  0  4 03 21 23 17
  22598493.991    10633051.469 3   8285489.995 1
  24166496.691    -3870480.572 2  -3015948.657 1
  21221269.619   -14801381.639 4 -11533513.902 3
  21466416.804     2992738.070 4   2332007.439 3
 91  7 25  2 50 30.0020000  0  4 03 21 23 17
  22608210.866    10684111.495 3   8325276.996 1
  24159078.324    -3909392.651 2  -3046269.703 1
  21220595.395   -14804920.521 4 -11536271.464 3
  21471073.482     3017219.688 4   2351084.017 3
 91  7 25  2 50 45.0020000  0  4 03 21 23 17
  22617940.933    10735280.079 3   8365148.586 1
  24151689.326    -3948254.680 2  -3076551.701 1
  21219942.146   -14808351.441 4 -11538944.901 3
  21475745.743     3041767.214 4   2370211.947 3
 91  7 25  2 51  0.0020000  0  4 03 21 23 17
  22627702.166    10786563.071 3   8405109.314 1
  24144308.145    -3987060.384 2  -3106789.907 1
  21219311.076   -14811668.262 4 -11541529.424 3
  21480433.604     3066386.645 4   2389395.908 3
 91  7 25  2 51 15.0020000  0  4 03 21 23 17
  22637481.093    10837958.553 3   8445157.723 1
  24136930.856    -4025811.435 2  -3136985.434 1
  21218700.092   -14814872.801 4 -11544026.462 3
  21485129.563     3091076.515 4   2408634.767 3
 91  7 25  2 51 30.0020000  0  4 03 21 23 17
  22647280.106    10889461.881 3   8485290.171 1
  24129561.944    -4064512.049 2  -3167141.640 1
  21218114.602   -14817969.532 4 -11546439.480 3
  21489840.493     3115832.108 4   2427924.824 3
 91  7 25  2 51 45.0020000  0  4 03 21 23 17
  22657103.409    10941071.102 3   8525505.123 1
  24122217.042    -4103163.977 2  -3197259.980 1
  21217546.196   -14820960.350 4 -11548769.980 3
  21494563.115     3140651.609 4   2447264.689 3
 91  7 25  2 52  0.0020000  0  4 03 21 23 17
  22666944.704    10992789.571 3   8565805.177 1
  24114872.420    -4141763.350 2  -3227337.353 1
  21216993.984   -14823841.679 3 -11551015.162 3
  21499301.042     3165538.717 4   2466657.233 3
 91  7 25  2 52 15.0020000  0  4 03 21 23 17
  22676804.583    11044613.900 3   8606187.753 1
  24107535.005    -4180313.225 2  -3257376.113 1
  21216470.251   -14826616.796 3 -11553177.579 3
  21504047.064     3190490.102 4   2486099.869 3
 91  7 25  2 52 30.0020000  0  4 03 21 23 17
  22686683.343    11096544.744 3   8646653.287 1
  24100210.468    -4218812.708 2  -3287375.652 1
  21215957.895   -14829284.889 4 -11555256.599 3
  21508810.468     3215506.697 4   2505593.303 3
 91  7 25  2 52 45.0020000  0  4 03 21 23 17
  22696595.678    11148583.060 3   8687202.622 1
  24092893.435    -4257260.520 2  -3317334.935 1
  21215470.737   -14831844.783 3 -11557251.313 3
  21513583.155     3240589.727 4   2525138.518 3
 91  7 25  2 53  0.0020000  0  4 03 21 23 17
  22706513.701    11200730.042 3   8727836.577 1
  24085580.903    -4295655.188 2  -3347252.774 1
  21215005.462   -14834295.346 3 -11559160.824 3
  21518368.144     3265740.275 4   2544736.337 3
 91  7 25  2 53 15.0020000  0  4 03 21 23 17
  22716458.126    11252985.144 3   8768554.824 1
  24078288.143    -4333996.884 2  -3377129.345 1
  21214562.959   -14836636.743 3 -11560985.294 3
  21523166.622     3290958.062 4   2564386.561 3
 91  7 25  2 53 30.0020000  0  4 03 21 23 17
  22726428.029    11305349.437 3   8809358.139 1
  24070998.402    -4372284.312 2  -3406963.657 1
  21214134.557   -14838867.985 3 -11562723.910 3
  21527976.792     3316244.181 4   2584090.021 3
 91  7 25  2 53 45.0020000  0  4 03 21 23 17
  22736414.108    11357824.449 3   8850247.727 1
  24063726.024    -4410515.579 2  -3436754.202 1
  21213734.039   -14840987.434 3 -11564375.414 3
  21532803.453     3341600.601 4   2603848.264 3
 91  7 25  2 54  0.0020000  0  4 03 21 23 17
  22746417.585    11410408.208 3   8891222.060 1
  24056456.054    -4448692.246 2  -3466502.193 1
  21213347.901   -14842996.783 3 -11565941.131 3
  21537639.100     3367025.511 4   2623659.879 3
 91  7 25  2 54 15.0020000  0  4 03 21 23 17
  22756442.351    11463098.368 3   8932279.286 1
  24049209.484    -4486816.257 2  -3496209.158 1
  21212988.461   -14844898.298 3 -11567422.821 3
  21542491.849     3392516.738 4   2643523.172 3
 91  7 25  2 54 30.0020000  0  4 03 21 23 17
  22766489.279    11515898.170 3   8973421.974 1
  24041960.804    -4524884.046 2  -3525872.296 1
  21212648.793   -14846688.404 3 -11568817.697 3
  21547358.679     3418077.675 4   2663440.781 3
 91  7 25  2 54 45.0020000  0  4 03 21 23 17
  22776552.715    11568801.686 3   9014645.449 1
  24034735.803    -4562901.371 2  -3555496.102 1
  21212325.911   -14848373.022 3 -11570130.394 3
  21552232.700     3443702.523 4   2683408.190 3
 91  7 25  2 55  0.0020000  0  4 03 21 23 17
  22786630.547    11621769.438 3   9055919.036 1
  24027495.515    -4600907.312 2  -3585111.101 1
  21212018.630   -14849991.615 4 -11571391.598 3
  21557113.316     3469351.945 4   2703394.749 3
 91  7 25  2 55 15.0020000  0  4 03 21 23 17
  22796735.044    11674839.204 3   9097272.043 1
  24020275.907    -4638863.800 2  -3614687.503 1
  21211729.620   -14851506.081 3 -11572571.697 3
  21562003.827     3495063.897 4   2723430.034 3
 91  7 25  2 55 30.0020000  0  4 03 21 23 17
  22806853.640    11728021.454 3   9138712.741 1
  24013061.707    -4676759.979 2  -3644216.895 1
  21211466.401   -14852905.851 3 -11573662.421 3
  21566912.329     3520849.332 4   2743522.577 3
 91  7 25  2 55 45.0020000  0  4 03 21 23 17
  22816997.120    11781314.697 3   9180239.897 1
  24005859.793    -4714596.938 2  -3673700.217 1
  21211219.986   -14854192.326 3 -11574664.857 3
  21571834.337     3546706.932 4   2763671.352 3
 91  7 25  2 56  0.0020000  0  4 03 21 23 17
  22827155.293    11834720.396 3   9221854.701 1
  23998670.460    -4752372.899 2  -3703135.978 1
  21210998.438   -14855363.800 4 -11575577.681 3
  21576771.318     3572638.102 4   2783877.459 3
 91  7 25  2 56 15.0020000  0  4 03 21 23 17
  22837341.334    11888236.730 3   9263555.700 1
  23991495.542    -4790089.447 2  -3732525.444 1
  21210797.865   -14856422.010 3 -11576402.252 3
  21581715.192     3598641.190 4   2804139.607 3
 91  7 25  2 56 30.0020000  0  4 03 21 23 17
  22847549.868    11941869.014 2   9305347.062 1
  23984327.202    -4827740.820 2  -3761864.116 1
  21210619.489   -14857361.525 3 -11577134.337 3
  21586680.354     3624721.668 4   2824462.047 3
 91  7 25  2 56 45.0020000  0  4 03 21 23 17
  22857777.598    11995612.211 3   9347224.863 1
  23977175.352    -4865331.792 2  -3791155.722 1
  21210463.903   -14858187.248 3 -11577777.745 3
  21591656.912     3650874.915 4   2844841.206 3
 91  7 25  2 57  0.0020000  0  4 03 21 23 17
  22868028.990    12049479.518 3   9389199.326 1
  23970031.285    -4902848.750 2  -3820389.648 1
  21210327.198   -14858885.562 3 -11578321.873 3
  21596649.053     3677114.495 4   2865287.632 3
 91  7 25  2 57 15.0020000  0  4 03 21 23 17
  22878298.077    12103457.905 3   9431260.378 1
  23962913.324    -4940304.408 2  -3849575.831 1
  21210216.267   -14859469.609 3 -11578776.970 3
  21601654.980     3703427.391 4   2885791.191 3
 91  7 25  2 57 30.0020000  0  4 03 21 23 17
  22888588.453    12157542.918 3   9473404.492 1
  23955794.752    -4977702.820 2  -3878717.378 1
  21210128.126   -14859943.706 4 -11579146.383 3
  21606677.711     3729809.124 4   2906348.380 3
 91  7 25  2 57 45.0020000  0  4 03 21 23 17
  22898902.212    12211719.462 3   9515619.917 1
  23948682.479    -5015059.012 2  -3907826.030 1
  21210050.787   -14860322.917 3 -11579441.868 3
  21611704.036     3756244.641 4   2926947.489 3
 91  7 25  2 58  0.0020000  0  4 03 21 23 17
  22909234.870    12266001.637 3   9557917.704 1
  23941583.679    -5052358.303 2  -3936890.375 1
  21210001.629   -14860592.791 4 -11579652.149 3
  21616747.429     3782748.545 4   2947599.882 3
 91  7 25  2 58 15.0020000  0  4 03 21 23 17
  22919579.202    12320389.482 2   9600297.837 1
  23934497.197    -5089600.533 2  -3965910.212 1
  21209970.446   -14860753.294 3 -11579777.201 3
  21621806.735     3809320.949 4   2968305.649 3
 91  7 25  2 58 30.0020000  0  4 03 21 23 17
  22929944.526    12374886.294 2   9642762.845 1
  23927423.595    -5126782.016 2  -3994882.739 1
  21209962.646   -14860800.904 3 -11579814.296 3
  21626876.826     3835965.551 4   2989067.671 3
 91  7 25  2 58 45.0020000  0  4 03 21 23 17
  22940333.234    12429487.012 2   9685308.832 1
  23920361.073    -5163907.192 2  -4023811.391 1
  21209973.744   -14860740.402 3 -11579767.144 3
  21631958.609     3862677.403 4   3009882.111 3
 91  7 25  2 59  0.0020000  0  4 03 21 23 17
  22950749.828    12484190.058 2   9727934.511 1
  23913305.461    -5200977.351 2  -4052697.196 1
  21210004.928   -14860573.283 3 -11579636.914 3
  21637057.179     3889455.159 4   3030747.894 3
 91  7 25  2 59 15.0020000  0  4 03 21 23 17
  22961184.098    12538999.493 3   9770643.147 1
  23906259.447    -5237988.336 2  -4081536.837 1
  21210059.180   -14860295.582 3 -11579420.513 3
  21642165.049     3916302.852 4   3051668.174 3
 91  7 25  2 59 30.0020000  0  4 03 21 23 17
  22971630.671    12593910.890 2   9813431.204 1
  23899233.204    -5274943.988 2  -4110333.382 1
  21210134.426   -14859911.232 3 -11579121.009 3
  21647289.096     3943216.460 4   3072639.816 3
 91  7 25  2 59 45.0020000  0  4 03 21 23 17
  22982094.031    12648928.148 2   9856301.759 1
  23892206.368    -5311840.234 2  -4139083.647 1
  21210227.069   -14859416.473 3 -11578735.484 3
  21652420.333     3970200.047 4   3093665.990 3
 91  7 25  3  0  0.0020000  0  4 03 21 23 17
  22992585.556    12704044.571 2   9899249.572 1
  23885192.427    -5348683.400 2  -4167792.544 1
  21210339.483   -14858817.896 3 -11578269.052 3
  21657568.671     3997247.018 4   3114741.556 3
 91  7 25  3  0 15.0020000  0  4 03 21 23 17
  23003099.294    12759264.756 2   9942278.267 1
  23878196.775    -5385468.526 2  -4196456.202 1
  21210473.501   -14858110.546 3 -11577717.860 3
  21662728.997     4024362.381 4   3135870.405 3
 91  7 25  3  0 30.0020000  0  4 03 21 23 17
  23013619.001    12814587.618 2   9985386.942 1
  23871205.903    -5422196.238 2  -4225075.152 1
  21210631.478   -14857295.359 3 -11577082.644 3
  21667901.032     4051545.305 4   3157051.905 3
 91  7 25  3  0 45.0020000  0  4 03 21 23 17
  23024167.204    12870015.400 2  10028577.367 1
  23864235.431    -5458864.063 2  -4253647.412 1
  21210804.758   -14856369.865 3 -11576361.465 3
  21673086.538     4078797.919 4   3178287.718 3
 91  7 25  3  1  0.0020000  0  4 03 21 23 17
  23034742.088    12925545.807 3  10071847.797 1
  23857257.456    -5495473.953 2  -4282174.542 1
  21211004.127   -14855336.561 3 -11575556.293 3
  21678286.738     4106118.247 4   3199576.283 3
 91  7 25  3  1 15.0020000  0  4 03 21 23 17
  23045327.146    12981180.007 2  10115199.089 1
  23850313.072    -5532024.339 2  -4310655.292 1
  21211219.672   -14854194.016 3 -11574665.991 3
  21683495.628     4133507.721 4   3220918.722 3
 91  7 25  3  1 30.0020000  0  4 03 21 23 17
  23055926.618    13036915.768 2  10158629.549 1
  23843359.980    -5568517.303 2  -4339091.316 1
  21211457.117   -14852944.232 3 -11573692.129 3
  21688724.307     4160964.318 4   3242313.475 3
 91  7 25  3  1 45.0020000  0  4 03 21 23 17
  23066555.161    13092766.350 2  10202149.366 1
  23836429.382    -5604939.106 2  -4367471.900 1
  21211717.928   -14851573.657 3 -11572624.148 3
  21693961.990     4188501.553 4   3263771.067 3
 91  7 25  3  2  0.0020000  0  4 03 21 23 17
  23077202.290    13148721.142 2  10245750.519 1
  23829517.368    -5641300.164 2  -4395805.090 2
  21212000.046   -14850093.075 3 -11571470.437 3
  21699214.348     4216108.887 4   3285283.270 3
 91  7 25  3  2 15.0020000  0  4 03 21 23 17
  23087879.397    13204779.282 3  10289432.115 1
  23822612.247    -5677600.722 2  -4424091.191 1
  21212303.121   -14848503.041 3 -11570231.444 3
  21704481.400     4243785.914 4   3306849.777 3
 91  7 25  3  2 30.0020000  0  4 03 21 23 17
  23098559.192    13260941.164 2  10333194.592 1
  23815709.220    -5713840.133 2  -4452329.633 1
  21212627.503   -14846802.957 3 -11568906.696 3
  21709762.551     4271533.013 4   3328470.900 3
 91  7 25  3  2 45.0020000  0  4 03 21 23 17
  23109269.892    13317207.266 2  10377038.282 1
  23808826.889    -5750017.475 2  -4480519.674 1
  21212970.767   -14844992.158 3 -11567495.681 3
  21715056.581     4299350.918 4   3350147.189 3
 91  7 25  3  3  0.0020000  0  4 03 21 23 17
  23120000.659    13373574.208 2  10420960.513 1
  23801951.451    -5786135.946 2  -4508663.896 1
  21213335.319   -14843074.004 3 -11566001.012 3
  21720362.599     4327236.534 4   3371876.239 3
 91  7 25  3  3 15.0020000  0  4 03 21 23 17
  23130740.116    13430036.673 2  10464957.207 1
  23795094.597    -5822200.613 2  -4536766.162 1
  21213719.346   -14841053.726 3 -11564426.767 3
  21725682.420     4355184.471 4   3393653.850 3
 91  7 25  3  3 30.0020000  0  4 03 21 23 17
  23141500.269    13486598.703 2  10509031.484 1
  23788236.854    -5858206.910 2  -4564822.987 1
  21214127.664   -14838926.932 3 -11562769.519 3
  21731013.339     4383199.292 4   3415483.583 3
 91  7 25  3  3 45.0020000  0  4 03 21 23 17
  23152287.697    13543260.815 2  10553183.743 1
  23781397.974    -5894153.853 2  -4592833.498 1
  21214551.564   -14836693.062 3 -11561028.843 3
  21736356.840     4411281.726 4   3437365.994 3
 91  7 25  3  4  0.0020000  0  4 03 21 23 17
  23163088.335    13600022.616 2  10597413.672 1
  23774562.706    -5930041.521 2  -4620797.845 1
  21214998.255   -14834352.277 3 -11559204.844 3
  21741714.127     4439431.311 4   3459300.732 3
 91  7 25  3  4 15.0020000  0  4 03 21 23 17
  23173907.243    13656882.828 2  10641720.305 1
  23767746.930    -5965870.878 2  -4648716.777 1
  21215459.639   -14831905.819 3 -11557298.511 3
  21747084.012     4467647.174 4   3481287.119 3
 91  7 25  3  4 30.0020000  0  4 03 21 23 17
  23184750.128    13713838.516 2  10686101.310 1
  23760937.140    -6001644.620 2  -4676592.395 1
  21215947.704   -14829356.634 3 -11555312.126 3
  21752461.087     4495926.607 4   3503323.031 2
 91  7 25  3  4 45.0020000  0  4 03 21 23 17
  23195594.531    13770894.423 2  10730560.416 1
  23754151.047    -6037357.551 2  -4704420.560 1
  21216452.556   -14826699.620 3 -11553241.727 3
  21757858.248     4524274.744 4   3525412.493 3
 91  7 25  3  5  0.0020000  0  4 03 21 23 17
  23206484.479    13828052.040 2  10775098.774 1
  23747360.138    -6073007.812 2  -4732199.916 1
  21216980.198   -14823933.096 3 -11551085.986 3
  21763265.896     4552693.287 4   3547556.808 3
 91  7 25  3  5 15.0020000  0  4 03 21 23 17
  23217376.852    13885313.732 2  10819718.259 1
  23740588.738    -6108592.669 2  -4759928.297 1
  21217526.111   -14821054.391 3 -11548842.833 3
  21768688.254     4581184.795 4   3569757.979 3
 91  7 25  3  5 30.0020000  0  4 03 21 23 17
  23228295.279    13942673.759 2  10864414.325 1
  23733838.313    -6144117.671 2  -4787610.073 1
  21218094.814   -14818069.358 3 -11546516.831 3
  21774125.585     4609743.332 4   3592011.380 3
 91  7 25  3  5 45.0020000  0  4 03 21 23 17
  23239228.713    14000133.841 2  10909188.373 1
  23727083.979    -6179580.669 2  -4815243.530 1
  21218682.415   -14814976.115 3 -11544106.509 3
  21779571.013     4638371.203 4   3614318.815 3
 91  7 25  3  6  0.0020000  0  4 03 21 23 17
  23250174.135    14057688.480 2  10954036.132 1
  23720338.057    -6214986.687 2  -4842832.566 1
  21219293.696   -14811779.964 3 -11541615.994 3
  21785029.930     4667063.221 4   3636676.224 3
 91  7 25  3  6 15.0020000  0  4 03 21 23 17
  23261142.644    14115338.244 2  10998957.920 1
  23713624.801    -6250334.979 2  -4870376.645 1
  21219920.560   -14808480.350 3 -11539044.854 3
  21790501.742     4695819.846 4   3659083.973 3
 91  7 25  3  6 30.0020000  0  4 03 21 23 17
  23272139.632    14173082.166 2  11043953.164 1
  23706907.043    -6285625.863 2  -4897875.964 1
  21220569.307   -14805077.722 3 -11536393.455 3
  21795990.342     4724640.737 4   3681541.811 3
 91  7 25  3  6 45.0020000  0  4 03 21 23 17
  23283141.418    14230921.106 2  11089022.444 1
  23700200.697    -6320858.433 2  -4925329.854 2
  21221233.043   -14801571.339 3 -11533661.206 3
  21801483.740     4753526.553 4   3704050.236 3
 91  7 25  3  7  0.0020000  0  4 03 21 23 17
  23294166.291    14288859.252 2  11134169.000 1
  23693507.823    -6356028.039 2  -4952734.705 1
  21221922.868   -14797956.671 4 -11530844.575 3
  21806992.425     4782481.980 4   3726612.897 3
 91  7 25  3  7 15.0020000  0  4 03 21 23 17
  23305217.532    14346897.454 2  11179393.575 1
  23686820.062    -6391133.473 2  -4980089.539 1
  21222630.387   -14794232.997 3 -11527943.004 3
  21812517.303     4811507.956 4   3749230.538 3
 91  7 25  3  7 30.0020000  0  4 03 21 23 17
  23316280.167    14405034.297 2  11224694.947 1
  23680155.964    -6426175.834 2  -5007395.195 1
  21223360.068   -14790401.530 3 -11524957.442 3
  21818054.467     4840603.234 4   3771902.179 3
 91  7 25  3  7 45.0020000  0  4 03 21 23 17
  23327355.715    14463271.601 2  11270074.621 1
  23673497.571    -6461153.090 2  -5034650.160 1
  21224109.258   -14786460.235 3 -11521886.302 3
  21823604.229     4869770.001 4   3794629.522 3
 91  7 25  3  8  0.0020000  0  4 03 21 23 17
  23338457.614    14521604.685 2  11315528.902 1
  23666854.483    -6496069.280 2  -5061857.491 1
  21224878.219   -14782413.518 3 -11518733.007 3
  21829167.481     4899003.859 4   3817409.140 3
 91  7 25  3  8 15.0020000  0  4 03 21 23 17
  23349582.023    14580031.618 2  11361056.374 1
  23660216.472    -6530926.058 2  -5089018.594 1
  21225668.470   -14778263.063 3 -11515498.883 3
  21834742.424     4928303.364 4   3840239.921 3
 91  7 25  3  8 30.0020000  0  4 03 21 23 17
  23360712.417    14638553.359 2  11406657.690 1
  23653598.547    -6565722.127 2  -5116132.361 1
  21226480.917   -14774008.035 3 -11512183.273 3
  21840330.856     4957669.435 4   3863122.569 3
 91  7 25  3  8 45.0020000  0  4 03 21 23 17
  23371866.788    14697176.140 2  11452337.752 1
  23646988.736    -6600450.888 2  -5143193.657 1
  21227306.539   -14769641.957 3 -11508781.132 3
  21845933.667     4987108.456 4   3886062.061 2
 91  7 25  3  9  0.0020000  0  4 03 21 23 17
  23383049.359    14755895.109 2  11498092.727 1
  23640401.994    -6635116.991 2  -5170206.156 1
  21228157.953   -14765169.567 3 -11505296.145 3
  21851550.892     5016615.772 4   3909054.762 2
 91  7 25  3  9 15.0020000  0  4 03 21 23 17
  23394239.102    14814706.001 2  11543919.384 1
  23633810.157    -6669724.072 2  -5197172.672 1
  21229029.452   -14760594.887 3 -11501731.451 3
  21857174.993     5046187.299 4   3932097.509 3
 91  7 25  3  9 30.0020000  0  4 03 21 23 17
  23405444.148    14873611.059 2  11589819.359 1
  23627241.110    -6704269.664 2  -5224091.270 1
  21229920.739   -14755915.735 3 -11498085.351 3
  21862816.195     5075825.466 4   3955192.185 3
 91  7 25  3  9 45.0020000  0  4 03 21 23 17
  23416672.875    14932611.062 2  11635793.347 1
  23620672.045    -6738752.489 2  -5250960.957 1
  21230833.595   -14751130.922 3 -11494356.928 3
  21868469.071     5105531.474 4   3978339.709 3
 91  7 25  3 10  0.0020000  0  4 03 21 23 17
  23427919.889    14991703.900 2  11681839.700 1
  23614126.975    -6773174.352 2  -5277783.132 1
  21231762.051   -14746242.592 3 -11490547.831 3
  21874133.952     5135303.590 4   4001538.750 3
 91  7 25  3 10 15.0020000  0  4 03 21 23 17
  23439175.001    15050888.108 2  11727957.221 1
  23607588.204    -6807536.517 2  -5304558.794 1
  21232713.001   -14741251.898 3 -11486658.974 3
  21879811.415     5165140.525 4   4024788.307 2
 91  7 25  3 10 30.0020000  0  4 03 21 23 17
  23450457.090    15110166.482 2  11774148.162 1
  23601054.528    -6841835.664 2  -5331285.367 1
  21233681.331   -14736155.876 3 -11482688.044 3
  21885502.682     5195045.317 4   4048090.744 3
 91  7 25  3 10 45.0020000  0  4 03 21 23 17
  23461758.357    15169541.600 2  11820414.378 1
  23594551.425    -6876069.010 2  -5357960.646 1
  21234670.339   -14730951.827 3 -11478632.948 3
  21891209.235     5225020.508 4   4071448.026 3
 91  7 25  3 11  0.0020000  0  4 03 21 23 17
  23473070.426    15229010.874 2  11866754.050 1
  23588042.040    -6910238.689 2  -5384586.306 1
  21235681.248   -14725642.275 3 -11474495.619 3
  21896920.883     5255064.028 4   4094858.549 3
 91  7 25  3 11 15.0020000  0  4 03 21 23 17
  23484416.383    15288570.458 2  11913164.064 1
  23581553.927    -6944348.150 2  -5411165.061 1
  21236709.240   -14720230.988 3 -11470279.027 3
  21902653.209     5285172.183 4   4118319.450 2
 91  7 25  3 11 30.0020000  0  4 03 21 23 17
  23495760.525    15348223.798 2  11959647.131 1
  23575068.222    -6978393.690 2  -5437693.995 1
  21237760.598   -14714714.388 3 -11465980.373 3
  21908395.430     5315348.601 4   4141833.535 3
 91  7 25  3 11 45.0020000  0  4 03 21 23 17
  23507126.253    15407967.860 2  12006200.938 1
  23568607.995    -7012377.837 2  -5464175.105 1
  21238830.262   -14709095.063 3 -11461601.678 3
  21914148.453     5345590.533 4   4165398.669 2
 91  7 25  3 12  0.0020000  0  4 03 21 23 17
  23518518.069    15467809.708 2  12052830.844 1
  23562154.660    -7046292.919 2  -5490602.381 1
  21239922.104   -14703365.806 3 -11457137.317 3
  21919917.652     5375905.634 4   4189020.822 2
 91  7 25  3 12 15.0020000  0  4 03 21 23 17
  23529920.077    15527745.715 2  12099534.208 1
  23555708.828    -7080142.730 2  -5516978.816 1
  21241028.640   -14697530.482 3 -11452590.300 3
  21925700.358     5406289.939 4   4212696.900 2
 91  7 25  3 12 30.0030000  0  4 03 21 23 17
  23541346.657    15587777.094 2  12146311.870 1
  23549278.566    -7113931.624 2  -5543307.799 1
  21242160.360   -14691590.988 3 -11447962.119 3
  21931495.648     5436743.078 4   4236426.619 2
 91  7 25  3 12 45.0030000  0  4 03 21 23 17
  23552784.053    15647895.855 2  12193157.586 1
  23542866.309    -7147654.918 2  -5569585.650 1
  21243310.364   -14685548.030 3 -11443253.318 3
  21937300.829     5467261.304 4   4260207.044 2
 91  7 25  3 13  0.0030000  0  4 03 21 23 17
  23564237.015    15708104.612 2  12240073.476 1
  23536454.645    -7181315.656 2  -5595814.741 1
  21244481.343   -14679402.502 3 -11438464.592 3
  21943122.187     5497845.513 4   4284038.901 2
 91  7 25  3 13 15.0030000  0  4 03 21 23 17
  23575730.758    15768407.190 2  12287062.432 1
  23530070.274    -7214909.896 2  -5621992.013 1
  21245670.331   -14673150.588 3 -11433592.961 3
  21948953.753     5528499.683 4   4307925.262 2
 91  7 25  3 13 30.0030000  0  4 03 21 23 17
  23587221.203    15828800.049 2  12334121.778 1
  23523682.290    -7248440.740 2  -5648119.911 1
  21246880.295   -14666795.464 3 -11428640.913 3
  21954800.012     5559220.684 4   4331863.694 3
 91  7 25  3 13 45.0030000  0  4 03 21 23 17
  23598719.448    15889281.767 2  12381250.335 1
  23517315.299    -7281909.276 2  -5674199.248 1
  21248107.935   -14660338.382 3 -11423609.416 3
  21960660.057     5590007.422 4   4355853.357 3
 91  7 25  3 14  0.0030000  0  4 03 21 23 17
  23610241.076    15949857.031 2  12428451.792 1
  23510953.107    -7315310.211 2  -5700225.900 1
  21249358.383   -14653774.314 4 -11418494.558 3
  21966532.980     5620864.846 4   4379898.102 2
 91  7 25  3 14 15.0030000  0  4 03 21 23 17
  23621788.182    16010521.094 2  12475722.441 1
  23504615.502    -7348648.119 2  -5726203.438 1
  21250625.303   -14647108.162 3 -11413300.150 3
  21972418.503     5651788.275 4   4403994.285 2
 91  7 25  3 14 30.0030000  0  4 03 21 23 17
  23633355.373    16071271.871 2  12523060.664 1
  23498282.975    -7381924.664 2  -5752133.183 1
  21251914.403   -14640341.780 3 -11408027.633 3
  21978312.139     5682775.770 4   4428140.380 3
 91  7 25  3 14 45.0030000  0  4 03 21 23 17
  23644924.361    16132109.434 2  12570466.507 1
  23491966.641    -7415139.465 2  -5778014.804 1
  21253218.807   -14633474.959 3 -11402676.867 3
  21984222.842     5713827.891 3   4452336.840 3
 91  7 25  3 15  0.0030000  0  4 03 21 23 17
  23656523.922    16193034.113 2  12617940.254 1
  23485654.828    -7448291.720 2  -5803847.676 1
  21254545.687   -14626507.179 3 -11397247.417 3
  21990145.533     5744945.147 4   4476584.052 3
 91  7 25  3 15 15.0030000  0  4 03 21 23 17
  23668128.003    16254045.438 2  12665481.511 1
  23479354.689    -7481381.565 2  -5829631.921 1
  21255894.449   -14619438.722 3 -11391739.516 3
  21996077.525     5776127.313 3   4500881.838 2
 91  7 25  3 15 30.0030000  0  4 03 21 23 17
  23679761.435    16315146.624 2  12713092.756 1
  23473070.429    -7514405.551 2  -5855364.855 1
  21257256.107   -14612266.422 3 -11386150.713 3
  22002024.211     5807377.859 3   4525232.906 3
 91  7 25  3 15 45.0030000  0  4 03 21 23 17
  23691405.983    16376337.359 2  12760773.804 1
  23466791.875    -7547363.474 2  -5881046.312 1
  21258640.555   -14604990.136 3 -11380480.883 3
  22007986.496     5838696.821 4   4549637.294 3
 91  7 25  3 16  0.0030000  0  4 03 21 23 17
  23703055.608    16437614.738 2  12808522.358 1
  23460538.799    -7580258.040 2  -5906678.395 1
  21260043.884   -14597612.795 3 -11374732.299 3
  22013955.361     5870081.245 3   4574092.690 2
 91  7 25  3 16 15.0030000  0  4 03 21 23 17
  23714743.625    16498972.271 2  12856333.407 1
  23454289.632    -7613095.340 2  -5932265.844 1
  21261467.298   -14590140.568 3 -11368909.771 3
  22019941.012     5901525.034 3   4598594.345 2
 91  7 25  3 16 30.0030000  0  4 03 21 23 17
  23726427.435    16560418.942 2  12904213.872 1
  23448057.252    -7645865.959 3  -5957801.374 1
  21262906.295   -14582564.360 3 -11363006.237 3
  22025939.263     5933037.488 3   4623149.497 2
 91  7 25  3 16 45.0030000  0  4 03 21 23 17
  23738141.522    16621953.154 2  12952162.542 1
  23441827.559    -7678571.243 2  -5983285.973 1
  21264369.583   -14574885.742 3 -11357022.894 3
  22031944.703     5964617.174 3   4647757.050 2
 91  7 25  3 17  0.0030000  0  4 03 21 23 17
  23749869.116    16683573.956 2  13000178.716 1
  23435624.862    -7711211.497 3  -6008719.873 1
  21265850.863   -14567105.335 3 -11350960.232 3
  22037971.136     5996263.549 3   4672416.564 2
 91  7 25  3 17 15.0030000  0  4 03 21 23 17
  23761612.571    16745281.194 2  13048262.249 1
  23429414.661    -7743786.598 2  -6034103.042 1
  21267348.318   -14559223.435 3 -11344818.474 3
  22044004.147     6027976.590 4   4697128.016 3
 91  7 25  3 17 30.0030000  0  4 03 21 23 17
  23773364.734    16807070.262 2  13096409.513 1
  23423231.438    -7776300.650 2  -6059438.637 1
  21268870.972   -14551244.312 3 -11338600.979 3
  22050049.775     6059752.117 4   4721888.167 3
 91  7 25  3 17 45.0030000  0  4 03 21 23 17
  23785148.378    16868948.850 2  13144626.577 1
  23417058.406    -7808745.824 2  -6084720.532 1
  21270405.910   -14543160.183 3 -11332301.657 3
  22056108.874     6091597.622 3   4746702.847 2
 91  7 25  3 18  0.0030000  0  4 03 21 23 17
  23796934.429    16930916.250 2  13192912.824 1
  23410897.066    -7841122.252 2  -6109948.867 1
  21271964.826   -14534971.415 3 -11325920.788 3
  22062183.871     6123513.105 3   4771572.055 3
 91  7 25  3 18 15.0030000  0  4 03 21 23 17
  23808748.349    16992967.255 2  13241264.172 1
  23404750.732    -7873435.034 3  -6135127.616 1
  21273541.435   -14526683.049 3 -11319462.320 3
  22068268.151     6155493.507 3   4796491.845 3
 91  7 25  3 18 30.0030000  0  4 03 21 23 17
  23820567.364    17055101.952 2  13289680.778 1
  23398617.277    -7905683.605 3  -6160256.331 1
  21275136.630   -14518294.808 3 -11312926.018 3
  22074368.625     6187539.343 3   4821462.624 2
 91  7 25  3 18 45.0030000  0  4 03 21 23 17
  23832406.464    17117321.212 2  13338163.312 1
  23392496.108    -7937866.827 3  -6185334.114 2
  21276752.502   -14509806.034 3 -11306311.389 3
  22080476.009     6219651.454 3   4846485.050 3
 91  7 25  3 19  0.0030000  0  4 03 21 23 17
  23844263.259    17179628.808 2  13386714.619 1
  23386375.548    -7969980.449 3  -6210357.673 1
  21278391.182   -14501212.618 3 -11299615.210 3
  22086603.461     6251833.891 3   4871562.270 3
 91  7 25  3 19 15.0030000  0  4 03 21 23 17
  23856138.935    17242017.127 2  13435328.816 1
  23380283.765    -8002031.513 3  -6235332.498 2
  21280044.224   -14492521.940 3 -11292843.250 3
  22092737.213     6284079.549 3   4896688.755 3
 91  7 25  3 19 30.0030000  0  4 03 21 23 17
  23868014.314    17304484.687 2  13484004.826 1
  23374197.373    -8034021.459 3  -6260259.683 2
  21281715.274   -14483735.401 3 -11285996.600 3
  22098886.251     6316386.882 3   4921863.298 2
 91  7 25  3 19 45.0030000  0  4 03 21 23 17
  23879923.564    17367035.943 2  13532745.961 1
  23368110.702    -8065945.225 3  -6285135.299 1
  21283408.801   -14474848.334 3 -11279071.604 3
  22105049.685     6348760.772 3   4947089.711 3
 91  7 25  3 20  0.0030000  0  4 03 21 23 17
  23891847.525    17429670.110 2  13581551.845 1
  23362055.791    -8097803.442 2  -6309959.845 1
  21285117.316   -14465861.435 3 -11272068.822 3
  22111220.012     6381200.547 3   4972367.446 3
 91  7 25  3 20 15.0030000  0  4 03 21 23 17
  23903782.252    17492388.479 2  13630423.175 1
  23356006.568    -8129594.396 3  -6334731.969 1
  21286845.918   -14456773.361 3 -11264987.199 3
  22117405.644     6413707.899 3   4997697.845 2
 91  7 25  3 20 30.0030000  0  4 03 21 23 17
  23915743.975    17555193.312 2  13679362.023 1
  23349969.944    -8161315.375 3  -6359449.583 1
  21288593.417   -14447581.618 3 -11257824.804 3
  22123605.339     6446285.366 3   5023082.888 3
 91  7 25  3 20 45.0030000  0  4 03 21 23 17
  23927691.895    17618077.020 2  13728362.235 1
  23343941.732    -8192973.354 2  -6384118.084 2
  21290362.189   -14438293.318 3 -11250587.155 3
  22129817.652     6478925.812 3   5048516.998 3
 91  7 25  3 21  0.0030000  0  4 03 21 23 17
  23939682.411    17681037.687 2  13777422.428 1
  23337933.884    -8224570.200 3  -6408738.973 1
  21292148.655   -14428910.548 3 -11243275.903 3
  22136041.638     6511627.266 3   5073998.645 3
 91  7 25  3 21 15.0030000  0  4 03 21 23 17
  23951672.909    17744081.701 2  13826547.617 1
  23331932.038    -8256099.071 3  -6433306.867 1
  21293954.299   -14419426.474 3 -11235885.713 3
  22142274.629     6544396.675 3   5099533.249 3
 91  7 25  3 21 30.0030000  0  4 03 21 23 17
  23963694.277    17807207.292 2  13875736.353 1
  23325943.979    -8287561.406 3  -6457822.930 2
  21295778.248   -14409842.988 3 -11228418.058 3
  22148521.999     6577232.236 3   5125119.389 2
 91  7 25  3 21 45.0030000  0  4 03 21 23 17
  23975714.755    17870415.178 2  13924989.207 1
  23319968.518    -8318955.883 3  -6482286.126 2
  21297620.171   -14400158.998 3 -11220872.087 3
  22154783.155     6610135.123 3   5150758.008 2
 91  7 25  3 22  0.0030000  0  4 03 21 23 17
  23987765.823    17933706.924 2  13974307.390 1
  23314011.642    -8350280.650 3  -6506694.997 1
  21299481.568   -14390372.855 3 -11213246.514 3
  22161060.225     6643107.190 3   5176450.514 3
 91  7 25  3 22 15.0030000  0  4 03 21 23 17
  23999818.077    17997078.235 2  14023687.595 1
  23308062.269    -8381539.833 3  -6531052.759 1
  21301363.364   -14380488.856 3 -11205544.697 3
  22167345.671     6676144.343 3   5202193.745 2
 91  7 25  3 22 30.0030000  0  4 03 21 23 17
  24011896.402    18060530.322 2  14073130.757 1
  23302122.180    -8412731.788 3  -6555358.151 1
  21303261.355   -14370505.541 3 -11197765.488 3
  22173644.903     6709247.950 3   5227988.769 3
 91  7 25  3 22 45.0030000  0  4 03 21 23 17
  24023987.048    18124060.630 2  14122634.760 1
  23296205.771    -8443858.590 3  -6579612.759 1
  21305180.635   -14360425.249 3 -11189910.711 3
  22179957.031     6742415.861 3   5253833.885 2
 91  7 25  3 23  0.0030000  0  4 03 21 23 17
  24036091.461    18187674.696 2  14172204.116 1
  23290295.365    -8474914.356 3  -6603812.009 1
  21307119.092   -14350242.527 3 -11181976.111 3
  22186282.962     6775653.739 3   5279733.513 2
 91  7 25  3 23 15.0030000  0  4 03 21 23 17
  24048205.472    18251367.505 2  14221834.826 1
  23284396.040    -8505903.586 3  -6627959.416 1
  21309072.242   -14339961.954 3 -11173965.278 3
  22192620.863     6808957.030 3   5305684.131 2
 91  7 25  3 23 30.0030000  0  4 03 21 23 17
  24060347.368    18315136.596 2  14271524.944 1
  23278513.519    -8536828.600 3  -6652056.778 1
  21311052.057   -14329585.942 3 -11165880.072 3
  22198969.881     6842323.222 3   5331683.764 2
 91  7 25  3 23 45.0030000  0  4 03 21 23 17
  24072489.561    18378983.587 2  14321275.806 1
  23272638.188    -8567687.215 3  -6676102.428 2
  21313044.785   -14319112.499 3 -11157718.949 3
  22205330.869     6875754.716 3   5357734.271 2
 91  7 25  3 24  0.0030000  0  5 03 21 11 23 17
  24084662.641    18442908.449 2  14371087.305 1
  23266780.237    -8598479.285 3  -6700096.183 1
  26114062.412           0.961 2         0.133 1
  21315054.596   -14308541.643 3 -11149481.911 3
  22211705.957     6909251.424 3   5383835.590 2
 91  7 25  3 24 15.0030000  0  5 03 21 11 23 17
  24096840.799    18506909.145 2  14420957.919 1
  23260928.603    -8629206.346 3  -6724039.306 2
  26105045.256      -47420.703 2    -36951.753 1
  21317082.695   -14297875.276 3 -11141170.455 3
  22218089.735     6942811.472 3   5409986.283 2
 91  7 25  3 24 30.0030000  0  5 03 21 11 23 17
  24109034.854    18570990.476 2  14470891.423 1
  23255098.538    -8659863.373 3  -6747927.867 1
  26096020.597      -94839.936 2    -73901.838 1
  21319133.864   -14287108.457 3 -11132780.723 3
  22224488.207     6976440.014 3   5436190.333 2
 91  7 25  3 24 45.0030000  0  5 03 21 11 23 17
  24121242.416    18635149.682 2  14520885.525 1
  23249275.662    -8690452.506 3  -6771763.517 1
  26086994.158     -142258.725 2   -110851.497 1
  21321197.648   -14276243.667 3 -11124314.650 3
  22230905.262     7010134.743 3   5462445.955 2
 91  7 25  3 25  0.0030000  0  5 03 21 11 23 17
  24133469.155    18699383.686 2  14570937.918 1
  23243468.683    -8720976.595 3  -6795548.479 1
  26077969.795     -189679.795 2   -147802.935 1
  21323285.096   -14265284.007 3 -11115774.653 3
  22237326.820     7043892.484 3   5488750.680 2
 91  7 25  3 25 15.0030000  0  5 03 21 11 23 17
  24145710.867    18763696.866 2  14621052.085 1
  23237672.192    -8751430.840 3  -6819279.007 1
  26068940.355     -237098.117 2   -184752.343 1
  21325388.440   -14254224.898 3 -11107157.164 3
  22243762.757     7077718.177 3   5515108.361 2
 91  7 25  3 25 30.0030000  0  5 03 21 11 23 17
  24157960.990    18828088.320 2  14671227.186 1
  23231885.891    -8781815.735 3  -6842955.498 2
  26059930.982     -284513.974 2   -221699.721 1
  21327513.074   -14243066.977 3 -11098462.677 3
  22250213.405     7111611.155 3   5541518.461 2
 91  7 25  3 25 45.0030000  0  5 03 21 11 23 17
  24170217.708    18892551.456 2  14721458.169 1
  23226122.085    -8812137.463 3  -6866582.779 2
  26050896.131     -331933.454 2   -258650.128 1
  21329652.680   -14231816.863 3 -11089696.351 3
  22256674.523     7145565.253 3   5567976.196 2
 91  7 25  3 26  0.0030000  0  5 03 21 11 23 17
  24182511.893    18957089.178 2  14771747.199 1
  23220363.373    -8842392.944 3  -6890158.449 2
  26041872.083     -379353.212 2   -295600.502 1
  21331813.000   -14220471.419 3 -11080855.741 3
  22263149.443     7179583.477 3   5594483.896 2
 91  7 25  3 26 15.0030000  0  5 03 21 11 23 17
  24194811.784    19021702.082 2  14822094.869 1
  23214619.058    -8872581.000 3  -6913681.571 2
  26032862.431     -426771.754 2   -332549.841 1
  21333989.182   -14209029.706 3 -11071940.116 3
  22269631.850     7213666.651 3   5621042.208 2
 91  7 25  3 26 30.0030000  0  5 03 21 11 23 17
  24207108.673    19086389.437 2  14872500.552 1
  23208892.420    -8902702.045 3  -6937152.472 2
  26023830.582     -474189.324 2   -369498.764 1
  21336185.763   -14197492.456 3 -11062950.046 3
  22276132.248     7247814.394 3   5647650.833 2
 91  7 25  3 26 45.0030000  0  5 03 21 11 23 17
  24219431.633    19151152.862 2  14922965.525 1
  23203166.079    -8932754.068 3  -6960569.622 1
  26014811.018     -521603.653 2   -406445.211 1
  21338400.335   -14185857.727 3 -11053884.019 3
  22282643.151     7282028.609 3   5674311.251 2
 91  7 25  3 27  0.0030000  0  5 03 21 11 23 17
  24231766.005    19215988.310 2  14973486.625 1
  23197464.028    -8962740.934 3  -6983935.937 2
  26005784.876     -569018.341 2   -443391.660 1
  21340628.989   -14174129.657 3 -11044745.256 3
  22289165.729     7316305.490 3   5701020.500 2
 91  7 25  3 27 15.0030000  0  5 03 21 11 23 17
  24244126.745    19280901.405 2  15024068.181 1
  23191764.368    -8992656.528 3  -7007246.764 2
  25996758.419     -616427.172 2   -480333.649 1
  21342880.731   -14162302.400 3 -11035529.212 3
  22295702.109     7350650.754 3   5727783.040 2
 91  7 25  3 27 30.0030000  0  5 03 21 11 23 17
  24256491.672    19345887.930 2  15074707.034 1
  23186088.406    -9022504.503 3  -7030504.872 2
  25987737.058     -663833.514 2   -517273.598 1
  21345150.463   -14150379.812 3 -11026238.880 3
  22302248.977     7385060.838 3   5754596.088 2
 91  7 25  3 27 45.0030000  0  5 03 21 11 23 17
  24268875.202    19410949.214 2  15125404.076 1
  23180419.929    -9052283.551 3  -7053709.282 1
  25978723.497     -711235.765 2   -554210.425 1
  21347435.778   -14138360.689 3 -11016873.322 3
  22308810.224     7419537.128 3   5781460.718 2
 91  7 25  3 28  0.0030000  0  5 03 21 11 23 17
  24281267.422    19476083.603 2  15176158.094 1
  23174763.738    -9081994.717 3  -7076860.797 2
  25969697.354     -758634.982 2   -591144.850 1
  21349741.790   -14126246.344 3 -11007433.567 3
  22315384.977     7454078.288 3   5808375.905 2
 91  7 25  3 28 15.0030000  0  5 03 21 11 23 17
  24293670.740    19541286.106 2  15226965.235 1
  23169124.944    -9111642.574 3  -7099962.981 2
  25960684.386     -806035.426 2   -628080.294 1
  21352067.572   -14114041.630 3 -10997923.402 3
  22321965.123     7488679.704 3   5835338.045 2
 91  7 25  3 28 30.0030000  0  5 03 21 11 23 17
  24306097.441    19606557.734 2  15277826.156 1
  23163495.138    -9141225.880 3  -7123014.854 2
  25951660.635     -853435.588 2   -665015.432 1
  21354405.046   -14101745.430 3 -10988341.942 3
  22328562.963     7523342.290 3   5862347.847 2
 91  7 25  3 28 45.0030000  0  5 03 21 11 23 17
  24318535.834    19671905.553 2  15328746.467 1
  23157880.338    -9170736.914 3  -7146010.422 1
  25942645.276     -900827.759 2   -701944.347 1
  21356766.218   -14089350.449 3 -10978683.510 3
  22335172.477     7558073.888 3   5889411.424 2
 91  7 25  3 29  0.0030000  0  5 03 21 11 23 17
  24330975.414    19737327.524 2  15379724.524 1
  23152283.512    -9200177.445 3  -7168951.062 2
  25933628.120     -948213.376 2   -738868.158 1
  21359142.972   -14076858.577 3 -10968949.583 3
  22341793.701     7592872.452 3   5916527.181 2
 91  7 25  3 29 15.0030000  0  5 03 21 11 23 17
  24343439.581    19802819.874 2  15430757.495 1
  23146687.577    -9229550.903 3  -7191839.429 2
  25924609.464     -995595.707 2   -775789.348 1
  21361538.311   -14064273.411 3 -10959142.962 3
  22348425.708     7627734.542 3   5943692.443 2
 91  7 25  3 29 30.0030000  0  5 03 21 11 23 17
  24355913.956    19868382.688 2  15481845.342 1
  23141114.448    -9258856.875 3  -7214675.224 2
  25915595.310    -1042974.064 2   -812707.487 1
  21363948.640   -14051594.815 3 -10949263.530 3
  22355074.206     7662660.448 3   5970907.424 2
 91  7 25  3 29 45.0030000  0  5 03 21 11 23 17
  24368409.603    19934015.231 2  15532987.561 1
  23135548.195    -9288095.799 3  -7237458.757 1
  25906579.951    -1090348.532 2   -849622.636 1
  21366376.664   -14038823.353 3 -10939311.741 3
  22361733.785     7697649.704 3   5998171.770 2
 91  7 25  3 30  0.0030000  0  5 03 21 11 23 17
  24380908.845    19999719.496 2  15584185.638 1
  23129999.340    -9317265.013 3  -7260187.976 2
  25897559.201    -1137716.305 2   -886532.477 1
  21368826.866   -14025956.545 3 -10929285.657 3
  22368405.370     7732704.803 3   6025487.431 2
 91  7 25  3 30 15.0030000  0  5 03 21 11 23 17
  24393428.487    20065492.775 2  15635437.463 1
  23124458.564    -9346367.095 3  -7282864.884 2
  25888557.332    -1185079.786 2   -923439.088 1
  21371292.966   -14012997.303 3 -10919187.544 3
  22375086.256     7767823.094 3   6052852.335 2
 91  7 25  3 30 30.0030000  0  5 03 21 11 23 17
  24405957.411    20131338.648 2  15686745.861 1
  23118937.001    -9375397.941 3  -7305486.306 2
  25879541.659    -1232434.794 2   -960338.979 1
  21373778.836   -13999941.692 3 -10909014.339 3
  22381779.112     7803008.477 3   6080269.506 2
 91  7 25  3 30 45.0030000  0  5 03 21 11 23 17
  24418506.125    20197251.206 2  15738106.304 1
  23113419.016    -9404363.078 3  -7328056.505 2
  25870529.302    -1279786.548 2   -997236.431 1
  21376279.418   -13986795.581 3 -10898770.607 3
  22388488.773     7838255.325 3   6107734.579 2
 91  7 25  3 31  0.0030000  0  5 03 21 11 23 17
  24431055.728    20263230.714 2  15789518.777 1
  23107925.024    -9433261.951 3  -7350575.062 1
  25861522.338    -1327134.316 2  -1034130.681 1
  21378796.472   -13973558.613 3 -10888456.093 3
  22395208.922     7873564.351 3   6135248.097 2
 91  7 25  3 31 15.0030000  0  5 03 21 11 23 17
  24443629.325    20329284.185 2  15840988.994 1
  23102440.613    -9462087.076 3  -7373036.151 2
  25852509.684    -1374470.215 2  -1071015.861 1
  21381336.316   -13960223.381 3 -10878064.998 3
  22401940.762     7908942.758 3   6162815.688 2
 91  7 25  3 31 30.0030000  0  5 03 21 11 23 17
  24456206.221    20395406.806 2  15892513.039 1
  23096967.596    -9490842.994 3  -7395443.329 1
  25843503.609    -1421798.784 2  -1107895.111 1
  21383892.337   -13946794.758 3 -10867601.127 3
  22408685.498     7944385.860 3   6190433.683 2
 91  7 25  3 31 45.0030000  0  5 03 21 11 23 17
  24468802.608    20461595.690 2  15944088.722 1
  23091503.880    -9519531.932 3  -7417798.328 2
  25834499.942    -1469121.895 2  -1144770.210 1
  21386463.958   -13933275.101 3 -10857066.331 3
  22415441.315     7979891.451 3   6218100.356 2
 91  7 25  3 32  0.0030000  0  5 03 21 11 23 17
  24481414.264    20527852.101 2  15995717.036 1
  23086061.158    -9548152.695 3  -7440100.171 2
  25825497.776    -1516438.093 2  -1181639.916 1
  21389058.055   -13919663.391 3 -10846459.800 3
  22422210.621     8015460.564 3   6245816.552 2
 91  7 25  3 32 15.0030000  0  5 03 21 11 23 17
  24494027.736    20594174.786 2  16047396.963 1
  23080624.123    -9576705.898 3  -7462349.384 2
  25816493.813    -1563747.898 2  -1218504.624 1
  21391662.064   -13905960.356 4 -10835782.107 3
  22428989.542     8051092.478 3   6273581.676 2
 91  7 25  3 32 30.0030000  0  5 03 21 11 23 17
  24506662.793    20660565.398 2  16099129.889 1
  23075204.470    -9605189.480 3  -7484544.353 1
  25807489.553    -1611048.928 2  -1255362.495 1
  21394286.140   -13892164.238 3 -10825031.879 3
  22435784.325     8086789.200 3   6301397.296 2
 91  7 25  3 32 45.0030000  0  5 03 21 11 23 17
  24519315.527    20727022.192 2  16150914.285 1
  23069796.211    -9633605.014 3  -7506686.287 1
  25798494.873    -1658342.495 2  -1292214.453 1
  21396931.210   -13878276.892 3 -10814210.566 3
  22442589.317     8122549.240 3   6329262.255 2
 91  7 25  3 33  0.0030000  0  5 03 21 11 23 17
  24531964.666    20793544.743 2  16202750.003 1
  23064404.443    -9661952.221 3  -7528774.994 2
  25789497.506    -1705628.133 2  -1329060.302 1
  21399590.972   -13864298.414 3 -10803318.246 3
  22449405.407     8158372.510 3   6357176.481 2
 91  7 25  3 33 15.0030000  0  5 03 21 11 23 17
  24544650.398    20860132.701 2  16254636.690 1
  23059025.570    -9690231.320 3  -7550810.631 2
  25780496.841    -1752905.817 2  -1365899.922 1
  21402267.818   -13850229.000 3 -10792355.067 3
  22456236.469     8194258.710 3   6385139.750 2
 91  7 25  3 33 30.0030000  0  5 03 21 11 23 17
  24557321.420    20926787.150 2  16306575.097 1
  23053654.480    -9718440.959 3  -7572792.126 1
  25771504.255    -1800173.877 2  -1402732.091 1
  21404964.749   -13836067.490 3 -10781320.118 3
  22463075.332     8230209.275 3   6413153.169 2
 91  7 25  3 33 45.0030000  0  5 03 21 11 23 17
  24570024.830    20993510.126 2  16358567.008 1
  23048304.383    -9746578.406 3  -7594717.382 2
  25762510.779    -1847429.402 2  -1439554.505 1
  21407675.169   -13821811.533 3 -10770211.578 3
  22469930.999     8266226.589 3   6441218.606 2
 91  7 25  3 34  0.0030000  0  5 03 21 11 23 17
  24582731.537    21060291.366 2  16410604.241 1
  23042959.696    -9774653.803 3  -7616594.280 2
  25753519.712    -1894682.419 2  -1476375.047 1
  21410405.692   -13807471.379 3 -10759037.433 3
  22476795.338     8302300.566 3   6469328.196 2
 91  7 25  3 34 15.0030000  0  5 03 21 11 23 17
  24595452.624    21127135.438 2  16462690.472 1
  23037627.886    -9802662.092 3  -7638418.906 2
  25744526.236    -1941927.657 2  -1513189.326 1
  21413150.576   -13793042.430 3 -10747794.093 3
  22483672.277     8338436.128 3   6497485.770 2
 91  7 25  3 34 30.0030000  0  5 03 21 11 23 17
  24608183.605    21194040.692 2  16514824.338 1
  23032312.253    -9830604.397 3  -7660192.092 2
  25735532.760    -1989165.998 2  -1549998.516 1
  21415912.876   -13778525.878 3 -10736482.490 3
  22490557.016     8374632.209 3   6525690.499 2
 91  7 25  3 34 45.0030000  0  5 03 21 11 23 17
  24620922.997    21261007.768 2  16567006.438 1
  23027000.547    -9858479.779 3  -7681913.143 1
  25726553.384    -2036396.048 2  -1586801.062 1
  21418691.352   -13763920.874 3 -10725101.963 3
  22497457.932     8410889.500 3   6553942.936 2
 91  7 25  3 35  0.0030000  0  5 03 21 11 23 17
  24633676.768    21328039.985 2  16619239.249 1
  23021717.005    -9886284.806 3  -7703579.373 2
  25717566.208    -2083614.101 2  -1623594.357 1
  21421487.208   -13749224.311 3 -10713650.097 3
  22504368.445     8447211.389 3   6582245.698 2
 91  7 25  3 35 15.0030000  0  5 03 21 11 23 17
  24646448.512    21395133.827 2  16671520.104 1
  23016433.759    -9914022.339 3  -7725192.998 2
  25708579.922    -2130822.951 2  -1660380.445 1
  21424301.667   -13734439.300 3 -10702129.307 3
  22511293.948     8483594.939 3   6610596.504 2
 91  7 25  3 35 30.0030000  0  5 03 21 11 23 17
  24659231.966    21462294.462 2  16723852.954 1
  23011177.789    -9941686.920 3  -7746749.799 2
  25699593.635    -2178017.030 2  -1697154.977 1
  21427133.505   -13719560.498 3 -10690535.426 3
  22518232.050     8520045.454 3   6638999.500 2
 91  7 25  3 35 45.0030000  0  5 03 21 11 23 17
  24672028.018    21529522.539 2  16776238.426 1
  23005920.631    -9969277.544 3  -7768248.947 2
  25690622.653    -2225194.979 2  -1733916.928 1
  21429983.039   -13704587.095 3 -10678867.843 3
  22525178.545     8556563.929 3   6667455.458 2
 91  7 25  3 36  0.0030000  0  5 03 21 11 23 17
  24684841.748    21596815.614 2  16828674.512 1
  23000683.263    -9996796.196 3  -7789692.025 2
  25681650.763    -2272358.409 2  -1770667.620 1
  21432848.155   -13689521.391 3 -10667128.332 3
  22532140.030     8593148.224 3   6695962.685 2
 91  7 25  3 36 15.0030000  0  5 03 21 11 23 17
  24697646.177    21664167.380 2  16881156.295 1
  22995462.367   -10024248.826 3  -7811083.658 2
  25672674.074    -2319513.127 2  -1807411.457 1
  21435732.746   -13674369.545 3 -10655321.694 3
  22539114.690     8629792.401 3   6724516.586 2
 91  7 25  3 36 30.0030000  0  5 03 21 11 23 17
  24710478.491    21731578.511 2  16933684.369 1
  22990252.587   -10051634.558 3  -7832423.180 1
  25663700.090    -2366657.810 2  -1844147.542 1
  21438632.937   -13659130.797 3 -10643447.338 3
  22546094.463     8666497.244 3   6753117.759 2
 91  7 25  3 36 45.0030000  0  5 03 21 11 23 17
  24723316.198    21799052.732 2  16986261.595 1
  22985049.089   -10078948.964 3  -7853707.081 2
  25654733.889    -2413787.958 2  -1880872.290 1
  21441550.823   -13643800.989 3 -10631502.031 3
  22553096.712     8703266.882 3   6781769.418 2
 91  7 25  3 37  0.0030000  0  5 03 21 11 23 17
  24736169.505    21866585.142 2  17038884.188 1
  22979865.973   -10106196.729 3  -7874939.088 2
  25645764.408    -2460907.948 2  -1917589.109 1
  21444483.384   -13628385.004 3 -10619489.570 3
  22560101.072     8740096.603 3   6810467.899 2
 91  7 25  3 37 15.0030000  0  5 03 21 11 23 17
  24749023.108    21934174.738 2  17091551.301 1
  22974692.454   -10133378.567 3  -7896119.725 2
  25636804.803    -2508018.206 2  -1954298.376 1
  21447431.546   -13612883.811 3 -10607410.714 3
  22567119.201     8776985.747 3   6839212.678 2
 91  7 25  3 37 30.0030000  0  5 03 21 11 23 17
  24761902.486    22001828.973 2  17144268.927 1
  22969539.911   -10160486.442 3  -7917242.718 2
  25627838.008    -2555110.606 2  -1990993.722 1
  21450400.404   -13597289.569 4 -10595259.353 3
  22574155.338     8813941.993 3   6868009.759 2
 91  7 25  3 37 45.0030000  0  5 03 21 11 23 17
  24774786.069    22069542.262 2  17197032.768 1
  22964387.682   -10187525.711 3  -7938312.242 2
  25618882.016    -2602190.220 2  -2027679.093 1
  21453385.438   -13581607.789 4 -10583039.780 3
  22581200.759     8850960.062 3   6896854.998 2
 91  7 25  3 38  0.0030000  0  5 03 21 11 23 17
  24787684.345    22137315.085 2  17249842.795 1
  22959258.836   -10214495.330 3  -7959327.503 2
  25609925.412    -2649255.752 2  -2064353.522 1
  21456385.445   -13565837.703 4 -10570751.393 3
  22588256.074     8888040.942 3   6925749.183 2
 91  7 25  3 38 15.0030000  0  5 03 21 11 23 17
  24800592.515    22205150.324 2  17302701.270 1
  22954136.587   -10241392.325 3  -7980286.175 2
  25600972.124    -2696303.975 2  -2101014.432 1
  21459403.164   -13549976.586 4 -10558392.075 3
  22595326.082     8925187.613 3   6954694.638 2
 91  7 25  3 38 30.0030000  0  5 03 21 11 23 17
  24813516.269    22273043.803 2  17355605.215 1
  22949035.905   -10268220.423 3  -8001191.171 2
  25592022.710    -2743338.396 2  -2137664.586 1
  21462440.356   -13534028.195 4 -10545964.750 3
  22602408.078     8962396.124 3   6983688.287 2
 91  7 25  3 38 45.0030000  0  5 03 21 11 23 17
  24826446.915    22340995.215 2  17408554.264 1
  22943942.431   -10294979.387 3  -8022042.266 2
  25583069.108    -2790358.473 2  -2174303.621 1
  21465490.445   -13517992.705 4 -10533469.564 3
  22609496.671     8999666.604 3   7012730.207 2
 91  7 25  3 39  0.0030000  0  5 03 21 11 23 17
  24839386.548    22409007.363 2  17461550.775 1
  22938864.557   -10321665.928 3  -8042836.951 2
  25574126.901    -2837360.720 2  -2210928.655 1
  21468558.228   -13501867.070 4 -10520904.128 3
  22616603.551     9037002.363 3   7041822.995 2
 91  7 25  3 39 15.0030000  0  5 03 21 11 23 17
  24852337.890    22477079.331 2  17514593.697 1
  22933798.061   -10348281.001 3  -8063575.950 2
  25565191.884    -2884345.609 2  -2247540.231 1
  21471644.282   -13485652.337 4 -10508269.259 3
  22623719.733     9074402.220 3   7070965.745 2
 91  7 25  3 39 30.0030000  0  5 03 21 11 23 17
  24865309.911    22545208.707 2  17567681.452 1
  22928749.853   -10374826.452 3  -8084260.686 2
  25556245.785    -2931314.763 2  -2284139.546 1
  21474745.936   -13469350.529 4 -10495566.546 3
  22630846.384     9111864.206 3   7100156.913 2
 91  7 25  3 39 45.0030000  0  5 03 21 11 23 17
  24878279.227    22613399.313 2  17620816.910 1
  22923716.948   -10401298.072 3  -8104887.892 2
  25547317.364    -2978263.823 2  -2320723.234 1
  21477865.581   -13452957.731 3 -10482792.936 3
  22637991.952     9149392.421 3   7129399.669 2
 91  7 25  3 40  0.0030000  0  5 03 21 11 23 17
  24891269.535    22681649.472 2  17673998.797 1
  22918688.528   -10427697.226 3  -8125458.640 2
  25538385.051    -3025193.741 2  -2357291.926 1
  21481003.218   -13436475.425 4 -10469949.579 3
  22645143.801     9186985.606 3   7158693.056 2
 91  7 25  3 40 15.0030000  0  5 03 21 11 23 17
  24904266.737    22749956.039 2  17727224.589 1
  22913674.191   -10454026.515 3  -8145974.936 2
  25529461.115    -3072106.961 2  -2393847.644 1
  21484156.420   -13419906.638 4 -10457038.824 3
  22652308.232     9224641.296 3   7188035.153 2
 91  7 25  3 40 30.0030000  0  5 03 21 11 23 17
  24917278.631    22818317.798 2  17780493.501 1
  22908680.846   -10480286.725 3  -8166437.426 2
  25520536.899    -3119004.091 2  -2430390.824 1
  21487326.129   -13403252.376 4 -10444061.473 3
  22659486.467     9262358.315 3   7217425.017 2
 91  7 25  3 40 45.0030000  0  5 03 21 11 23 17
  24930297.122    22886736.020 2  17833806.227 1
  22903698.303   -10506476.491 3  -8186845.015 2
  25511613.870    -3165883.483 2  -2466920.192 1
  21490508.735   -13386511.234 4 -10431016.427 3
  22666677.893     9300137.762 3   7246863.545 2
 91  7 25  3 41  0.0030000  0  5 03 21 11 23 17
  24943323.395    22955211.349 2  17887163.583 1
  22898725.340   -10532594.574 3  -8207196.738 2
  25502695.046    -3212743.630 2  -2503434.533 1
  21493713.520   -13369682.282 4 -10417902.948 3
  22673877.399     9337981.054 3   7276351.816 2
 91  7 25  3 41 15.0030000  0  5 03 21 11 23 17
  24956354.782    23023741.416 2  17940563.551 1
  22893772.479   -10558643.038 3  -8227494.211 2
  25493781.928    -3259586.348 2  -2539935.301 1
  21496932.684   -13352767.807 3 -10404722.832 3
  22681088.615     9375885.841 3   7305888.016 2
 91  7 25  3 41 30.0030000  0  5 03 21 11 23 17
  24969414.926    23092332.794 2  17994011.338 1
  22888830.700   -10584614.984 3  -8247732.074 2
  25484874.185    -3306404.373 2  -2576416.822 1
  21500167.745   -13335761.064 4 -10391470.824 3
  22688318.711     9413859.166 3   7335477.602 2
 91  7 25  3 41 45.0030000  0  5 03 21 11 23 17
  24982484.389    23160975.289 2  18047498.860 1
  22883896.406   -10610520.215 3  -8267917.959 2
  25475967.350    -3353207.197 2  -2612886.438
  21503421.687   -13318672.146 4 -10378154.777 3
  22695555.090     9451891.038 3   7365112.815 2
 91  7 25  3 42  0.0030000  0  5 03 21 11 23 17
  24995558.929    23229674.139 2  18101030.273 1
  22878981.605   -10636353.203 3  -8288047.525 2
  25467060.218    -3399988.938 2  -2649339.764 1
  21506689.135   -13301495.811 4 -10364770.609 3
  22702800.176     9489986.955 3   7394797.947 2
 91  7 25  3 42 15.0030000  0  5 03 21 11 23 17
  25008630.486    23298425.112 2  18154602.415 1
  22874079.699   -10662117.507 3  -8308123.581 2
  25458164.184    -3446752.933 2  -2685779.257 1
  21509971.260   -13284235.638 4 -10351321.122 3
  22710064.457     9528143.095 3   7424530.002 2
 91  7 25  3 42 30.0030000  0  5 03 21 11 23 17
  25021721.221    23367228.056 2  18208215.000 1
  22869194.877   -10687813.085 3  -8328146.090 2
  25449269.040    -3493498.917 2  -2722204.732 1
  21513273.469   -13266891.917 4 -10337806.530 3
  22717334.113     9566359.327 3   7454308.879 2
 91  7 25  3 42 45.0030000  0  5 03 21 11 23 17
  25034835.653    23436084.441 2  18261869.269 1
  22864311.573   -10713438.117 3  -8348113.630 2
  25440374.786    -3540224.844 2  -2758614.465 1
  21516587.981   -13249463.164 3 -10324225.681 3
  22724621.167     9604637.571 3   7484136.066 2
 91  7 25  3 43  0.0030000  0  5 03 21 11 23 17
  25047948.270    23504991.121 2  18315562.706 1
  22859447.430   -10738995.206 3  -8368028.206 2
  25431490.148    -3586933.142 2  -2795010.469 1
  21519921.374   -13231951.977 3 -10310580.593 3
  22731917.818     9642975.116 3   7514009.475 2
 91  7 25  3 43 15.0030000  0  5 03 21 11 23 17
  25061063.888    23573953.942 2  18369299.851 1
  22854598.294   -10764478.063 3  -8387884.951 2
  25422608.493    -3633617.221 2  -2831387.671 1
  21523271.554   -13214352.225 4 -10296866.501 3
  22739223.771     9681378.105 3   7543933.876 2
 91  7 25  3 43 30.0030000  0  5 03 21 11 23 17
  25074195.404    23642971.985 2  18423080.072 1
  22849761.146   -10789887.547 3  -8407684.534 2
  25413728.636    -3680277.549 2  -2867746.316 1
  21526636.724   -13196665.052 4 -10283084.286 3
  22746539.897     9719845.765 3   7573908.683 2
 91  7 25  3 43 45.0030000  0  5 03 21 11 23 17
  25087348.785    23712047.490 2  18476905.130 1
  22844940.785   -10815220.848 3  -8427424.748 2
  25404850.890    -3726911.143 2  -2904084.113 1
  21530019.570   -13178887.962 4 -10269232.007 3
  22753877.923     9758380.791 3   7603935.951 2
 91  7 25  3 44  0.0030000  0  5 03 21 11 23 17
  25100504.888    23781177.878 2  18530772.863 1
  22840139.305   -10840480.192 3  -8447107.323 2
  25395983.631    -3773519.964 2  -2940402.613 1
  21533419.815   -13161023.446 4 -10255311.601 3
  22761219.543     9796980.809 3   7634013.893 2
 91  7 25  3 44 15.0030000  0  5 03 21 11 23 17
  25113666.662    23850359.054 2  18584680.033 1
  22835345.015   -10865669.247 3  -8466735.134 2
  25387118.170    -3820107.326 2  -2976704.396 1
  21536835.957   -13143075.340 4 -10241326.064 3
  22768577.637     9835642.076 3   7664139.544 2
 91  7 25  3 44 30.0030000  0  5 03 21 11 23 17
  25126835.661    23919590.557 2  18638626.728 1
  22830566.936   -10890788.205 3  -8486308.321 2
  25378257.805    -3866673.186 2  -3012989.448 1
  21540265.291   -13125044.088 4 -10227275.735 3
  22775950.441     9874364.131 3   7694312.573 2
 91  7 25  3 44 45.0030000  0  5 03 21 11 23 17
  25140022.616    23988873.859 2  18692613.684 1
  22825802.921   -10915835.050 3  -8505825.321 2
  25369400.737    -3913215.260 2  -3049255.935 1
  21543714.693   -13106927.829 4 -10213159.161 3
  22783327.730     9913148.975 3   7724534.523 2
 91  7 25  3 45  0.0030000  0  5 03 21 11 23 17
  25153217.982    24058205.749 2  18746638.561 1
  22821045.818   -10940812.533 3  -8525288.273 2
  25360549.359    -3959736.072 2  -3085505.846 1
  21547175.804   -13088729.479 3 -10198978.626 3
  22790719.712     9951993.875 3   7754803.263 2
 91  7 25  3 45 15.0030000  0  5 03 21 11 23 17
  25166422.056    24127589.188 2  18800703.697 1
  22816304.297   -10965717.695 3  -8544694.875 2
  25351697.387    -4006232.170 2  -3121736.589 1
  21550656.390   -13070446.090 3 -10184731.831 3
  22798123.683     9990901.849 3   7785121.158 2
 91  7 25  3 45 30.0030000  0  5 03 21 11 23 17
  25179637.193    24197022.309 2  18854807.584 1
  22811582.268   -10990551.859 3  -8564046.144 2
  25342857.996    -4052704.669 2  -3157948.895 1
  21554150.779   -13052079.378 3 -10170420.104 3
  22805539.955    10029871.423 3   7815487.049 2
 91  7 25  3 45 45.0030000  0  5 03 21 11 23 17
  25192863.149    24266503.175 2  18908948.404 1
  22806866.835   -11015316.655 3  -8583343.362 2
  25334018.624    -4099154.884 2  -3194143.793 1
  21557661.344   -13033631.291 4 -10156044.963 3
  22812965.808    10068900.835 3   7845899.569 2
 91  7 25  3 46  0.0030000  0  5 03 21 11 23 17
  25206084.882    24336034.472 2  18963128.461 1
  22802170.894   -11040009.016 3  -8602584.142 2
  25325181.048    -4145579.442 2  -3230318.806 1
  21561187.509   -13015098.868 3 -10141604.115 3
  22820405.464    10107993.041 3   7876361.037 2
 91  7 25  3 46 15.0030000  0  5 03 21 11 23 17
  25219329.423    24405615.769 2  19017347.620 1
  22797477.327   -11064628.846 3  -8621768.398 2
  25316353.960    -4191977.959 2  -3266473.406 1
  21564730.444   -12996482.092 4 -10127097.544 3
  22827858.609    10147148.043 3   7906871.405 2
 91  7 25  3 46 30.0030000  0  5 03 21 11 23 17
  25232580.246    24475249.586 2  19071607.706 1
  22792813.163   -11089173.349 3  -8640893.952 2
  25307534.358    -4238347.447 2  -3302605.438 1
  21568289.887   -12977778.504 4 -10112523.317 3
  22835319.537    10186368.627 3   7937432.897 2
 91  7 25  3 46 45.0030000  0  5 03 21 11 23 17
  25245845.762    24544935.264 2  19125908.195 1
  22788154.094   -11113642.818 3  -8659961.058 2
  25298707.567    -4284687.804 2  -3338714.775 1
  21571864.913   -12958988.551 4 -10097881.789 3
  22842797.566    10225654.362 3   7968045.157 2
 91  7 25  3 47  0.0030000  0  5 03 21 11 23 17
  25259113.983    24614669.060 2  19180246.123 1
  22783514.797   -11138040.496 3  -8678972.199 2
  25289896.970    -4331002.073 2  -3374803.738 1
  21575456.116   -12940115.786 3 -10083175.745 3
  22850283.675    10265002.028 3   7998705.673 2
 91  7 25  3 47 15.0030000  0  5 03 21 11 23 17
  25272394.785    24684453.461 2  19234623.399 1
  22778889.302   -11162363.718 3  -8697925.342 2
  25281086.669    -4377287.256 2  -3410870.097 1
  21579064.123   -12921157.525 3 -10068403.072 3
  22857782.679    10304414.105 3   8029416.362 2
 91  7 25  3 47 30.0030000  0  5 03 21 11 23 17
  25285686.389    24754284.873 2  19289037.461 1
  22774266.809   -11186615.587 3  -8716822.856 2
  25272278.759    -4423546.158 2  -3446915.940 1
  21582689.214   -12902117.223 3 -10053566.466 3
  22865296.080    10343887.387 3   8060174.767 2
 91  7 25  3 47 45.0030000  0  5 03 21 11 23 17
  25298978.586    24824163.504 2  19343488.282 1
  22769665.885   -11210795.569 3  -8735664.371 2
  25263489.154    -4469777.907 2  -3482940.588 1
  21586327.793   -12882994.762 3 -10038665.844 3
  22872819.671    10383422.412 3   8090981.277 2
 91  7 25  3 48  0.0030000  0  5 03 21 11 23 17
  25312280.381    24894084.716 2  19397972.220 1
  22765084.156   -11234907.779 3  -8754453.092 2
  25254698.031    -4515986.365 2  -3518947.162 1
  21589980.473   -12863794.357 3 -10023704.500 3
  22880350.156    10423014.645 3   8121832.363 2
 91  7 25  3 48 15.0030000  0  5 03 21 11 23 17
  25325603.448    24964056.741 2  19452495.776 1
  22760507.226   -11258943.921 3  -8773182.531 2
  25245907.518    -4562162.872 2  -3554928.817 1
  21593647.828   -12844507.690 3 -10008675.933 3
  22887899.242    10462672.557 3   8152734.620 2
 91  7 25  3 48 30.0030000  0  5 03 21 11 23 17
  25338915.434    25034074.350 2  19507054.840 1
  22755946.786   -11282908.572 3  -8791856.250 2
  25237126.604    -4608311.725 2  -3590888.927 1
  21597336.473   -12825139.612 3  -9993583.922 3
  22895456.705    10502391.579 3   8183684.509 2
 91  7 25  3 48 45.0030000  0  5 03 21 11 23 17
  25352253.508    25104139.166 2  19561650.843 1
  22751401.632   -11306799.820 3  -8810472.779 2
  25228352.582    -4654430.801 2  -3626825.836 1
  21601036.512   -12805688.687 3  -9978427.360 3
  22903026.766    10542173.363 3   8214683.294 2
 91  7 25  3 49  0.0030000  0  5 03 21 11 23 17
  25365588.877    25174244.623 2  19616278.306 1
  22746863.668   -11330623.776 3  -8829036.864 2
  25219577.356    -4700525.901 2  -3662744.076 1
  21604754.839   -12786161.089 3  -9963211.054 3
  22910609.723    10582012.069 3   8245726.451 2
 91  7 25  3 49 15.0030000  0  5 03 21 11 23 17
  25378941.626    25244394.142 2  19670940.237 1
  22742345.510   -11354376.627 3  -8847545.549 2
  25210816.212    -4746592.845 2  -3698640.296 1
  21608481.560   -12766553.210 3  -9947932.185 3
  22918202.557    10621911.282 3   8276816.729 2
 91  7 25  3 49 30.0030000  0  5 03 21 11 23 17
  25392299.175    25314585.326 2  19725634.460 1
  22737839.620   -11378060.621 3  -8866000.584 2
  25202053.882    -4792633.555 2  -3734516.156 1
  21612229.256   -12746867.215 3  -9932592.445 3
  22925801.691    10661868.660 3   8307952.350 2
 91  7 25  3 49 45.0030000  0  5 03 21 11 23 17
  25405671.120    25384822.650 2  19780364.726 1
  22733347.829   -11401670.704 3  -8884398.024 2
  25193300.242    -4838642.756 2  -3770367.433 1
  21615993.460   -12727098.556 3  -9917188.291 3
  22933420.927    10701888.937 3   8339136.976 2
 91  7 25  3 50  0.0030000  0  5 03 21 11 23 17
  25419047.567    25455103.489 2  19835128.873 1
  22728867.730   -11425209.408 3  -8902739.847 2
  25184546.306    -4884622.583 2  -3806195.847 1
  21619768.745   -12707249.975 3  -9901721.870 3
  22941044.037    10741969.698 3   8370368.733 2
 91  7 25  3 50 15.0030000  0  5 03 21 11 23 17
  25432419.808    25525432.006 2  19889930.210 1
  22724401.416   -11448671.982 3  -8921022.348 2
  25175799.558    -4930568.062 2  -3841997.479 1
  21623560.224   -12687316.787 3  -9886189.512 3
  22948685.749    10782115.457 3   8401651.143 2
 91  7 25  3 50 30.0030000  0  5 03 21 11 23 17
  25445825.030    25595805.058 2  19944766.297 1
  22719955.205   -11472060.969 3  -8939247.492 2
  25167067.504    -4976481.513 2  -3877774.132 1
  21627370.287   -12667301.788 3  -9870593.413 3
  22956339.764    10822323.784 3   8432982.301 2
 91  7 25  3 50 45.0030000  0  5 03 21 11 23 17
  25459216.450    25666222.143 2  19999636.573 1
  22715511.071   -11495376.724 3  -8957415.591 2
  25158331.856    -5022362.860 2  -3913525.777 1
  21631196.230   -12647205.650 3  -9854934.082 3
  22964000.950    10862594.142 3   8464361.799 2
 91  7 25  3 51  0.0030000  0  5 03 21 11 23 17
  25472623.766    25736685.613 2  20054543.101 1
  22711093.933   -11518616.565 3  -8975524.530 2
  25149612.680    -5068209.168 2  -3949250.124 1
  21635035.382   -12627025.742 3  -9839209.480 3
  22971679.238    10902929.342 3   8495791.820 2
 91  7 25  3 51 15.0030000  0  5 03 21 11 23 17
  25486037.085    25807193.398 2  20109484.063 1
  22706681.593   -11541782.155 3  -8993575.612 2
  25140892.928    -5114021.764 2  -3984948.234 1
  21638888.617   -12606763.931 3  -9823421.058 3
  22979366.809    10943327.368 3   8527270.796 2
 91  7 25  3 51 30.0030000  0  5 03 21 11 23 17
  25499468.989    25877746.808 2  20164460.747 1
  22702288.727   -11564871.853 3  -9011567.542 2
  25132182.460    -5159798.705 2  -4020618.512 1
  21642761.920   -12586418.831 3  -9807567.731 3
  22987062.181    10983789.879 3   8558800.024 2
 91  7 25  3 51 45.0030000  0  5 03 21 11 23 17
  25512898.781    25948341.762 2  20219469.620 1
  22697908.757   -11587889.215 3  -9029503.132 2
  25123478.885    -5205543.237 2  -4056263.595 1
  21646649.043   -12565994.261 3  -9791652.477 3
  22994775.840    11024313.221 3   8590376.634 2
 91  7 25  3 52  0.0030000  0  5 03 21 11 23 17
  25526340.579    26018979.248 2  20274511.725 1
  22693540.497   -11610833.012 3  -9047381.387 2
  25114779.497    -5251253.718 2  -4091882.097 1
  21650551.435   -12545489.057 3  -9775674.400 3
  23002500.005    11064898.663 3   8622001.669 2
 91  7 25  3 52 15.0030000  0  5 03 21 11 23 17
  25539793.162    26089656.927 2  20329585.119 1
  22689195.305   -11633705.205 3  -9065203.842 2
  25106087.910    -5296931.936 2  -4127475.468 1
  21654467.316   -12524905.544 3  -9759635.297 3
  23010232.842    11105544.095 3   8653673.414 2
 91  7 25  3 52 30.0030000  0  5 03 21 11 23 17
  25553252.654    26160378.142 2  20384692.503 1
  22684852.801   -11656502.072 3  -9082967.605 2
  25097404.124    -5342573.805 2  -4163040.551 1
  21658403.894   -12504240.126 3  -9743532.375 3
  23017983.984    11146252.854 3   8685394.533 2
 91  7 25  3 52 45.0030000  0  5 03 21 11 23 17
  25566714.223    26231137.196 2  20439829.306 1
  22680528.899   -11679228.744 3  -9100676.685 2
  25088720.948    -5388184.208 2  -4198581.046 1
  21662346.474   -12483498.202 3  -9727369.835 3
  23025737.221    11187019.955 3   8717161.085 2
 91  7 25  3 53  0.0030000  0  5 03 21 11 23 17
  25580182.406    26301934.319 2  20494995.715 1
  22676220.283   -11701884.830 3  -9118330.751 2
  25080051.837    -5433762.365 2  -4234096.421 1
  21666308.825   -12462679.572 3  -9711147.528 3
  23033504.243    11227845.725 3   8748973.373 2
 91  7 25  3 53 15.0030000  0  5 03 21 11 23 17
  25593670.971    26372771.470 2  20550193.491 1
  22671917.356   -11724467.990 3  -9135927.989 2
  25071379.741    -5479305.576 2  -4269584.611 1
  21670286.166   -12441782.103 3  -9694863.798 3
  23041289.553    11268732.417 3   8780833.133 2
 91  7 25  3 53 30.0030000  0  5 03 21 11 23 17
  25607152.032    26443649.719 2  20605423.449 1
  22667633.921   -11746976.537 3  -9153467.090 2
  25062723.229    -5524811.881 2  -4305044.032 1
  21674279.107   -12420804.232 3  -9678517.395 3
  23049081.756    11309681.685 3   8812741.637 2
 91  7 25  3 53 45.0030000  0  5 03 21 11 23 17
  25620653.195    26514567.305 2  20660683.995 1
  22663371.775   -11769412.239 3  -9170949.428 2
  25054069.736    -5570282.720 2  -4340475.793 1
  21678284.333   -12399747.826 3  -9662109.810 3
  23056887.744    11350691.942 3   8844697.683 2
 91  7 25  3 54  0.0030000  0  5 03 21 11 23 17
  25634147.745    26585519.909 2  20715971.626 1
  22659111.427   -11791778.938 3  -9188377.997 2
  25045422.211    -5615721.644 2  -4375882.696 1
  21682303.345   -12378617.141 3  -9645644.351 3
  23064698.845    11391758.966 3   8876697.957 2
 91  7 25  3 54 15.0030000  0  5 03 21 11 23 17
  25647662.991    26656513.271 2  20771290.972 1
  22654866.661   -11814070.614 3  -9205748.116 2
  25036786.395    -5661122.343 2  -4411259.808 1
  21686340.959   -12357406.095 4  -9629116.262 3
  23072525.826    11432888.709 3   8908747.095 2
 91  7 25  3 54 30.0030000  0  5 03 21 11 23 17
  25661186.038    26727550.147 2  20826644.538 1
  22650642.295   -11836284.090 3  -9223057.291 2
  25028151.469    -5706481.208 2  -4446604.341 1
  21690394.750   -12336111.809 4  -9612523.311 3
  23080365.703    11474084.524 3   8940847.720 2
 91  7 25  3 54 45.0030000  0  5 03 21 11 23 17
  25674709.363    26798626.695 2  20882028.991 1
  22646430.196   -11858422.797 3  -9240308.206 2
  25019528.845    -5751801.456 2  -4481918.752 1
  21694462.029   -12314737.987 4  -9595868.389 3
  23088214.567    11515342.695 3   8972996.940 2
 91  7 25  3 55  0.0030000  0  5 03 21 11 23 17
  25688235.707    26869736.938 2  20937439.381 1
  22642228.009   -11880491.948 3  -9257504.927 2
  25010906.815    -5797088.026 2  -4517206.925 1
  21698542.518   -12293290.335 4  -9579155.933 3
  23096076.623    11556657.908 3   9005190.604 2
 91  7 25  3 55 15.0030000  0  5 03 21 11 23 17
  25701767.130    26940889.420 2  20992882.698 1
  22638047.112   -11902482.922 3  -9274640.728 2
  25002297.977    -5842332.014 2  -4552461.919 1
  21702641.574   -12271760.293 4  -9562379.269 3
  23103950.074    11598038.696 3   9037435.367 2
 91  7 25  3 55 30.0030000  0  5 03 21 11 23 17
  25715328.549    27012078.646 2  21048354.717 1
  22633876.091   -11924400.823 3  -9291719.589 2
  24993699.329    -5887538.073 2  -4587687.377 1
  21706752.933   -12250152.925 4  -9545542.365 3
  23111837.607    11639479.845 3   9069727.155 2
 91  7 25  3 55 45.0030000  0  4 21 11 23 17
  22629717.076   -11946260.095 3  -9308752.755 2
  24985101.276    -5932720.246 2  -4622894.207 1
  21710875.669   -12228482.828 4  -9528656.578 3
  23119732.347    11680966.785 3   9102054.641 2
 91  7 25  3 56  0.0030000  0  4 21 11 23 17
  22625566.751   -11968042.524 3  -9325726.065 2
  24976511.615    -5977860.104 2  -4658068.100 1
  21715015.209   -12206732.121 4  -9511707.978 3
  23127636.371    11722517.794 3   9134432.053 2
 91  7 25  3 56 15.0030000  0  4 21 11 23 17
  22621439.809   -11989750.289 3  -9342641.191 2
  24967930.959    -6022959.501 2  -4693210.446 1
  21719166.738   -12184903.250 4  -9494698.466 3
  23135557.793    11764130.527 3   9166857.541 2
 91  7 25  3 56 30.0030000  0  4 21 11 23 17
  22617317.963   -12011390.110 3  -9359503.356 2
  24959347.895    -6068024.738 2  -4728326.165 1
  21723337.148   -12163002.899 4  -9477633.257 3
  23143491.203    11805798.098 3   9199325.762 2
 91  7 25  3 56 45.0030000  0  4 21 11 23 17
  22613215.888   -12032958.196 3  -9376309.629 2
  24950782.840    -6113051.768 2  -4763412.115 1
  21727518.657   -12141027.711 4  -9460509.741 3
  23151427.893    11847524.338 3   9231839.722 2
 91  7 25  3 57  0.0030000  0  4 21 11 23 17
  22609127.634   -12054447.657 3  -9393054.657 2
  24942226.457    -6158033.342 2  -4798462.670 1
  21731713.654   -12118971.000 4  -9443322.697 3
  23159380.498    11889316.099 3   9264404.715 2
 91  7 25  3 57 15.0030000  0  4 21 11 23 17
  22605048.349   -12075860.284 3  -9409739.787 2
  24933673.983    -6202970.897 2  -4833478.894 1
  21735925.736   -12096834.679 4  -9426073.617 3
  23167344.481    11931171.443 3   9297019.272 2
 91  7 25  3 57 30.0030000  0  4 21 11 23 17
  22600987.665   -12097202.742 3  -9426370.250 2
  24925127.495    -6247870.886 2  -4868465.825 1
  21740154.011   -12074625.744 4  -9408767.955 4
  23175320.766    11973083.694 3   9329678.154 2
 91  7 25  3 57 45.0030000  0  4 21 11 23 17
  22596946.753   -12118461.383 3  -9442935.408 2
  24916595.996    -6292719.206 2  -4903412.528 1
  21744393.070   -12052330.490 4  -9391395.036 3
  23183310.820    12015066.480 3   9362391.997 2
 91  7 25  3 58  0.0030000  0  4 21 11 23 17
  22592911.548   -12139650.064 3  -9459446.044 2
  24908070.204    -6337529.313 2  -4938329.472 1
  21748652.825   -12029962.909 4  -9373965.759 3
  23191307.783    12057105.953 3   9395150.027 2
 91  7 25  3 58 15.0030000  0  4 21 11 23 17
  22588894.630   -12160769.657 3  -9475902.851 2
  24899545.301    -6382301.743 2  -4973217.046 1
  21752922.457   -12007524.133 4  -9356480.999 3
  23199323.035    12099200.860 3   9427951.228 2
 91  7 25  3 58 30.0030000  0  4 21 11 23 17
  22584892.108   -12181810.075 3  -9492297.959 2
  24891038.686    -6427026.248 2  -5008067.280 1
  21757206.800   -11985004.486 4  -9338933.227 3
  23207342.195    12141361.375 3   9460803.561 2
 91  7 25  3 58 45.0030000  0  4 21 11 23 17
  22580904.873   -12202776.525 3  -9508635.428 2
  24882529.681    -6471707.731 2  -5042883.954 1
  21761507.022   -11962409.280 4  -9321326.574 3
  23215376.624    12183582.083 3   9493702.820 2
 91  7 25  3 59  0.0030000  0  4 21 11 23 17
  22576925.124   -12223669.509 3  -9524915.651 2
  24874044.059    -6516346.283 2  -5077667.242 1
  21765821.640   -11939739.323 4  -9303661.679 3
  23223421.262    12225862.458 3   9526648.551 2
 91  7 25  3 59 15.0040000  0  4 21 11 23 17
  22572969.058   -12244484.454 3  -9541135.075 2
  24865555.735    -6560938.588 2  -5112414.410 1
  21770150.938   -11916987.220 4  -9285932.766 3
  23231479.078    12268211.252 3   9559647.602 2
 91  7 25  3 59 30.0040000  0  4 21 11 23 17
  22569018.695   -12265224.514 3  -9557296.131 2
  24857079.100    -6605484.320 2  -5147125.348 1
  21774492.831   -11894162.178 4  -9268147.021 3
  23239547.989    12310616.805 3   9592690.881 2
 91  7 25  3 59 45.0040000  0  4 21 11 23 17
  22565085.713   -12285890.423 3  -9573399.414 2
  24848606.967    -6649985.406 2  -5181801.477 1
  21778851.512   -11871262.114 4  -9250302.825 3
  23247633.704    12353082.581 3   9625781.073 2
 91  7 25  4  0  0.0040000  0  4 21 11 23 17
  22561166.534   -12306482.953 3  -9589445.519 2
  24840147.415    -6694442.132 2  -5216443.039 1
  21783225.793   -11848287.982 4  -9232400.903 3
  23255724.498    12395607.667 3   9658917.498 2
 91  7 25  4  0 15.0040000  0  4 21 11 23 17
  22557256.341   -12326998.734 3  -9605431.825 2
  24831695.071    -6738850.943 2  -5251047.286 1
  21787613.842   -11825236.561 4  -9214438.761 3
  23263829.687    12438195.583 3   9692102.863 2
 91  7 25  4  0 30.0040000  0  4 21 11 23 17
  22553372.219   -12347441.544 3  -9621361.272 2
  24823259.514    -6783215.221 2  -5285616.830 1
  21792010.599   -11802111.996 4  -9196419.614 3
  23271947.459    12480842.305 3   9725334.072 2
 91  7 25  4  0 45.0040000  0  4 21 11 23 17
  22549493.804   -12367809.368 3  -9637232.277 2
  24814824.549    -6827532.635 2  -5320149.826 1
  21796427.441   -11778912.376 4  -9178341.995 3
  23280070.937    12523549.691 3   9758612.556 2
 91  7 25  4  1  0.0040000  0  4 21 11 23 17
  22545636.381   -12388098.748 3  -9653042.157 2
  24806398.886    -6871799.530 2  -5354643.465 1
  21800855.381   -11755634.574 4  -9160203.450 3
  23288209.107    12566321.032 3   9791940.868 2
 91  7 25  4  1 15.0040000  0  4 21 11 23 17
  22541788.852   -12408308.728 3  -9668790.173 2
  24797983.711    -6916014.443 2  -5389096.607 1
  21805300.406   -11732277.519 4  -9142003.147 3
  23296364.362    12609157.442 3   9825319.871 2
 91  7 25  4  1 30.0040000  0  4 21 11 23 17
  22537958.390   -12428447.421 3  -9684482.642 2
  24789576.929    -6960185.185 2  -5423515.325 1
  21809760.123   -11708849.672 4  -9123747.685 3
  23304525.916    12652050.498 3   9858743.010 2
 91  7 25  4  1 45.0040000  0  4 21 11 23 17
  22534134.838   -12448511.881 3  -9700117.263 2
  24781183.339    -7004308.507 2  -5457897.088 1
  21814229.420   -11685348.403 4  -9105435.014 3
  23312701.552    12695003.235 3   9892212.654 2
 91  7 25  4  2  0.0040000  0  4 21 11 23 17
  22530337.670   -12468504.033 3  -9715695.537 2
  24772793.955    -7048385.716 2  -5492242.942 1
  21818716.412   -11661775.610 4  -9087066.605 3
  23320880.190    12738013.717 3   9925727.304 2
 91  7 25  4  2 15.0040000  0  4 21 11 23 17
  22526543.190   -12488420.533 3  -9731214.867 2
  24764418.950    -7092413.216 2  -5526550.036 1
  21823218.097   -11638128.103 4  -9068639.975 3
  23329076.819    12781085.336 3   9959289.601 2
 91  7 25  4  2 30.0040000  0  4 21 11 23 17
  22522769.703   -12508261.619 3  -9746675.440 2
  24756048.150    -7136390.928 2  -5560818.343 1
  21827731.474   -11614406.470 4  -9050155.588 3
  23337285.437    12824217.470 3   9992899.030 2
 91  7 25  4  2 45.0040000  0  4 21 11 23 17
  22519008.221   -12528023.368 3  -9762074.177 2
  24747694.120    -7180314.548 2  -5595044.491 1
  21832261.638   -11590606.920 4  -9031610.491 3
  23345506.636    12867414.325 3  10026558.908 2
 91  7 25  4  3  0.0040000  0  4 21 11 23 17
  22515264.102   -12547710.509 3  -9777414.783 2
  24739340.718    -7224188.618 2  -5629232.058 1
  21836800.195   -11566734.433 4  -9013008.553 3
  23353737.135    12910670.789 3  10060265.233 2
 91  7 25  4  3 15.0040000  0  4 21 11 23 17
  22511529.895   -12567325.556 3  -9792699.220 2
  24731004.086    -7268015.219 2  -5663382.602 1
  21841360.042   -11542791.769 4  -8994351.936 3
  23361980.845    12953984.393 3  10094016.077 2
 91  7 25  4  3 30.0040000  0  4 21 11 23 17
  22507813.365   -12586863.539 3  -9807923.602 2
  24722668.344    -7311789.035 2  -5697492.021 1
  21845929.486   -11518774.062 4  -8975636.831 3
  23370236.822    12997360.031 3  10127815.260 2
 91  7 25  4  3 45.0040000  0  4 21 11 23 17
  22504107.026   -12606324.803 3  -9823088.197 2
  24714355.409    -7355510.081 2  -5731560.357 1
  21850511.512   -11494681.832 4  -8956863.674 3
  23378502.991    13040797.248 3  10161662.426 2
 91  7 25  4  4  0.0040000  0  4 21 11 23 17
  22500417.492   -12625707.707 3  -9838191.739 2
  24706042.457    -7399176.272 2  -5765585.889 1
  21855111.529   -11470513.665 4  -8938031.336 3
  23386778.163    13084297.357 3  10195558.596 2
 91  7 25  4  4 15.0040000  0  4 21 11 23 17
  22496746.525   -12645016.662 3  -9853237.655 2
  24697743.605    -7442791.828 2  -5799571.988 1
  21859724.127   -11446274.325 4  -8919143.532 3
  23395065.638    13127856.154 3  10229500.512 1
 91  7 25  4  4 30.0040000  0  4 21 11 23 17
  22493085.765   -12664249.431 3  -9868224.213 2
  24689449.848    -7486354.207 2  -5833516.678 1
  21864350.826   -11421961.525 4  -8900198.493 3
  23403366.288    13171475.657 3  10263489.712 2
 91  7 25  4  4 45.0040000  0  4 21 11 23 17
  22489436.087   -12683409.368 3  -9883154.011 2
  24681173.785    -7529866.212 2  -5867422.070 1
  21868990.106   -11397578.913 4  -8881199.057 3
  23411682.835    13215152.482 3  10297523.609 2
 91  7 25  4  5  0.0040000  0  4 21 11 23 17
  22485807.698   -12702491.302 3  -9898023.032 2
  24672902.801    -7573322.304 2  -5901283.919 1
  21873647.098   -11373121.379 4  -8862141.230 3
  23420000.568    13258891.797 3  10331606.161 2
 91  7 25  4  5 15.0040000  0  4 21 11 23 17
  22482191.595   -12721502.539 3  -9912836.961 2
  24664646.527    -7616729.506 2  -5935107.669 1
  21878314.263   -11348596.533 4  -8843030.960 3
  23428336.904    13302686.289 3  10365731.730 2
 91  7 25  4  5 30.0040000  0  4 21 11 23 17
  22478583.605   -12740438.223 3  -9927592.006 2
  24656395.925    -7660082.567 2  -5968889.265 1
  21882992.527   -11323999.520 4  -8823864.456 3
  23436680.132    13346540.652 3  10399903.925 1
 91  7 25  4  5 45.0040000  0  4 21 11 23 17
  22474994.182   -12759299.900 3  -9942289.413 2
  24648158.829    -7703382.685 2  -6002629.552 1
  21887687.874   -11299332.184 4  -8804643.153 3
  23445040.130    13390453.228 3  10434121.541 2
 91  7 25  4  6  0.0040000  0  4 21 11 23 17
  22471417.062   -12778088.314 3  -9956929.708 2
  24639923.233    -7746630.235 2  -6036328.913 1
  21892395.210   -11274595.402 4  -8785367.742 3
  23453398.645    13434423.216 3  10468383.839 2
 91  7 25  4  6 15.0040000  0  4 21 11 23 17
  22467863.622   -12796798.389 3  -9971508.966 2
  24631700.237    -7789819.748 2  -6069983.028 1
  21897116.349   -11249784.341 4  -8766034.444 3
  23461781.747    13478455.633 3  10502694.790 1
 91  7 25  4  6 30.0040000  0  4 21 11 23 17
  22464312.887   -12815436.771 3  -9986032.369 2
  24623496.104    -7832957.473 2  -6103596.788 1
  21901848.866   -11224905.738 4  -8746648.518 3
  23470172.335    13522544.131 3  10537049.462 1
 91  7 25  4  6 45.0040000  0  4 21 11 23 17
  22460781.922   -12833996.101 3 -10000494.169 2
  24615297.085    -7876035.871 2  -6137164.314 1
  21906598.169   -11199952.574 4  -8727204.489 3
  23478575.819    13566695.726 3  10571453.268 2
 91  7 25  4  7  0.0040000  0  4 21 11 23 17
  22457264.761   -12852481.285 3 -10014898.191 2
  24607114.555    -7919059.350 2  -6170689.076 1
  21911361.276   -11174929.881 4  -8707706.277 3
  23486989.494    13610905.340 3  10605902.321 2
 91  7 25  4  7 15.0040000  0  4 21 11 23 17
  22453762.886   -12870890.526 3 -10029243.034 2
  24598936.214    -7962025.827 2  -6204169.423 1
  21916134.870   -11149836.105 4  -8688152.689 3
  23495411.562    13655174.651 3  10640397.879 2
 91  7 25  4  7 30.0040000  0  4 21 11 23 17
  22450271.499   -12889233.004 3 -10043535.855 2
  24590768.971    -8004944.115 2  -6237612.163 1
  21920922.268   -11124680.646 4  -8668551.026 3
  23503845.933    13699494.525 3  10674932.812 2
 91  7 25  4  7 45.0040000  0  4 21 11 23 17
  22446793.601   -12907505.217 3 -10057773.928 2
  24582611.309    -8047810.277 2  -6271014.362 1
  21925719.245   -11099460.136 4  -8648898.674 3
  23512290.774    13743868.338 3  10709509.803 1
 91  7 25  4  8  0.0040000  0  4 21 11 23 17
  22443329.803   -12925695.579 3 -10071948.222 2
  24574465.058    -8090612.368 2  -6304366.591 1
  21930534.511   -11074163.030 4  -8629186.639 3
  23520741.635    13788307.646 3  10744137.822 2
 91  7 25  4  8 15.0040000  0  4 21 11 23 17
  22439883.699   -12943813.044 3 -10086065.706 2
  24566333.187    -8133359.082 2  -6337675.689 1
  21935361.171   -11048798.502 4  -8609422.074 3
  23529217.659    13832803.212 3  10778809.693 2
 91  7 25  4  8 30.0040000  0  4 21 11 23 17
  22436452.864   -12961854.290 3 -10100123.800 2
  24558204.614    -8176046.772 2  -6370938.786 1
  21940200.117   -11023363.606 4  -8589602.670 3
  23537688.292    13877358.306 3  10813527.919 2
 91  7 25  4  8 45.0040000  0  4 21 11 23 17
  22433037.333   -12979817.988 3 -10114121.460 2
  24550099.721    -8218673.634 2  -6404154.447 1
  21945055.552   -10997857.037 4  -8569727.410 3
  23546185.623    13921974.218 3  10848293.567 2
 91  7 25  4  9  0.0040000  0  4 21 11 23 17
  22429629.898   -12997713.008 3 -10128065.619 2
  24541995.438    -8261248.137 2  -6437329.363 1
  21949921.493   -10972287.809 4  -8549803.338 3
  23554682.937    13966642.273 3  10883099.835 2
 91  7 25  4  9 15.0040000  0  4 21 11 23 17
  22426235.639   -13015540.191 3 -10141956.912 2
  24533904.034    -8303770.720 2  -6470463.802 1
  21954798.201   -10946656.959 4  -8529831.240 3
  23563193.443    14011361.361 3  10917945.847 1
 91  7 25  4  9 30.0040000  0  4 21 11 23 17
  22422863.873   -13033287.333 3 -10155785.840 2
  24525821.634    -8346228.874 2  -6503548.059 1
  21959691.713   -10920952.415 4  -8509801.725 3
  23571717.734    14056143.507 3  10952841.002 1
 91  7 25  4  9 45.0040000  0  4 21 11 23 17
  22419495.702   -13050959.114 3 -10169556.042 2
  24517756.318    -8388626.753 2  -6536585.312 1
  21964593.026   -10895178.928 4  -8489718.485 3
  23580250.734    14100984.235 3  10987781.840 2
 91  7 25  4 10  0.0040000  0  4 21 11 23 17
  22416149.431   -13068556.752 3 -10183268.460 2
  24509699.081    -8430965.338 2  -6569576.366 1
  21969512.015   -10869338.142 4  -8469582.804 3
  23588791.219    14145882.382 3  11022767.379 1
 91  7 25  4 10 15.0040000  0  4 21 11 23 17
  22412814.834   -13086076.488 3 -10196920.194 2
  24501656.555    -8473240.581 2  -6602518.076 1
  21974440.916   -10843426.565 4  -8449391.955 3
  23597347.288    14190841.351 3  11057800.329 1
 91  7 25  4 10 30.0040000  0  4 21 11 23 17
  22409493.726   -13103522.537 3 -10210514.499 2
  24493620.625    -8515456.207 2  -6635413.315 1
  21979386.291   -10817448.407 4  -8429149.235 3
  23605915.659    14235856.844 3  11092877.325 2
 91  7 25  4 10 45.0040000  0  4 21 11 23 17
  22406190.609   -13120883.571 3 -10224042.557 2
  24485601.779    -8557600.517 2  -6668253.012 1
  21984345.154   -10791392.605 4  -8408846.011 3
  23614488.829    14280940.277 3  11128007.258 2
 91  7 25  4 11  0.0040000  0  4 21 11 23 17
  22402900.388   -13138170.775 3 -10237513.089 2
  24477591.623    -8599684.350 2  -6701045.570 1
  21989313.318   -10765270.322 4  -8388490.978 3
  23623081.176    14326080.251 3  11163181.254 2
 91  7 25  4 11 15.0040000  0  4 21 11 23 17
  22399620.061   -13155395.187 3 -10250934.686 2
  24469593.752    -8641718.412 2  -6733799.342 1
  21994297.362   -10739092.876 4  -8368092.967 3
  23631684.029    14371265.752 2  11198390.713 2
 91  7 25  4 11 30.0040000  0  4 21 11 23 17
  22396357.429   -13172541.345 3 -10264295.325 2
  24461608.777    -8683686.822 2  -6766501.953 1
  21999291.300   -10712845.046 4  -8347640.107 3
  23640292.571    14416512.193 3  11233647.675 2
 91  7 25  4 11 45.0040000  0  4 21 11 23 17
  22393112.473   -13189612.709 3 -10277597.669 2
  24453633.695    -8725592.699 2  -6799155.862 1
  22004299.338   -10686530.592 4  -8327135.340 3
  23648912.507    14461815.839 3  11268949.197 1
 91  7 25  4 12  0.0040000  0  4 21 11 23 17
  22389874.708   -13206616.937 3 -10290847.700 2
  24445667.915    -8767443.289 2  -6831766.661 1
  22009317.567   -10660157.204 4  -8306584.633 3
  23657543.524    14507169.020 3  11304289.315 2
 91  7 25  4 12 15.0040000  0  4 21 11 23 17
  22386649.541   -13223563.138 3 -10304052.516 2
  24437714.124    -8809247.262 2  -6864341.183 1
  22014345.080   -10633734.177 4  -8285995.261 3
  23666176.339    14552562.676 3  11339660.989 2
 91  7 25  4 12 30.0040000  0  4 21 11 23 17
  22383439.661   -13240430.859 3 -10317196.176 2
  24429774.711    -8850983.940 2  -6896863.230 1
  22019387.896   -10607241.207 4  -8265351.396 3
  23674828.663    14598017.119 3  11375080.009 2
 91  7 25  4 12 45.0040000  0  4 21 11 23 17
  22380248.382   -13257223.053 3 -10330280.988 2
  24421843.116    -8892655.863 2  -6929334.809 1
  22024442.404   -10580681.444 4  -8244655.481 3
  23683486.658    14643529.194 2  11410543.961 2
 91  7 25  4 13  0.0040000  0  4 21 11 23 17
  22377064.573   -13273936.363 3 -10343304.333 2
  24413924.085    -8934259.338 2  -6961753.076 1
  22029509.197   -10554051.757 4  -8223905.067 3
  23692164.163    14689102.249 2  11446055.419 2
 91  7 25  4 13 15.0040000  0  4 21 11 23 17
  22373903.274   -13290565.581 3 -10356262.146 2
  24406020.672    -8975788.701 2  -6994113.574 1
  22034588.868   -10527347.017 4  -8203096.181 3
  23700848.543    14734741.447 2  11481618.414 2
 91  7 25  4 13 30.0040000  0  4 21 11 23 17
  22370749.461   -13307122.706 3 -10369163.789 2
  24398131.620    -9017255.495 2  -7026425.323 1
  22039684.139   -10500579.289 4  -8182238.211 3
  23709548.227    14780434.979 3  11517223.743 1
 91  7 25  4 13 45.0040000  0  4 21 11 23 17
  22367611.231   -13323600.192 3 -10382003.366 2
  24390255.779    -9058651.831 2  -7058682.191 1
  22044789.916   -10473741.328 4  -8161325.512 3
  23718246.707    14826190.058 3  11552877.045 2
 91  7 25  4 14  0.0040000  0  4 21 11 23 17
  22364493.383   -13339999.718 3 -10394782.210 2
  24382388.016    -9099978.984 2  -7090885.137 1
  22049912.462   -10446834.878 4  -8140359.446 3
  23726962.567    14872004.829 3  11588576.843 2
 91  7 25  4 14 15.0040000  0  4 21 11 23 17
  22361389.635   -13356319.543 4 -10407498.938 2
  24374537.966    -9141234.903 2  -7123032.567 1
  22055044.606   -10419858.422 3  -8119338.834 3
  23735696.715    14917881.162 3  11624324.627 2
 91  7 25  4 14 30.0040000  0  4 21 11 23 17
  22358296.375   -13372568.462 3 -10420160.412 2
  24366700.183    -9182428.016 2  -7155131.100 1
  22060191.147   -10392821.135 4  -8098270.823 3
  23744435.662    14963810.036 3  11660113.347 2
 91  7 25  4 14 45.0040000  0  4 21 11 23 17
  22355216.900   -13388740.285 3 -10432761.810 2
  24358872.609    -9223551.710 3  -7187175.478 1
  22065347.285   -10365716.881 3  -8077150.627 3
  23753191.099    15009797.646 2  11695947.844 2
 91  7 25  4 15  0.0040000  0  4 21 11 23 17
  22352154.823   -13404836.498 3 -10445304.309 2
  24351061.804    -9264607.150 3  -7219166.713 1
  22070517.802   -10338547.329 3  -8055979.543 3
  23761952.243    15055842.365 3  11731826.829 2
 91  7 25  4 15 15.0040000  0  4 21 11 23 17
  22349106.235   -13420858.906 3 -10457789.288 2
  24343258.521    -9305595.662 3  -7251105.800 1
  22075700.307   -10311314.381 3  -8034759.068 3
  23770723.874    15101942.522 3  11767749.010 1
 91  7 25  4 15 30.0040000  0  4 21 11 23 17
  22346068.431   -13436808.614 3 -10470217.621 2
  24335472.600    -9346517.856 3  -7282993.185 1
  22080896.615   -10284019.391 3  -8013490.248 3
  23779505.696    15148096.924 3  11803713.445 2
 91  7 25  4 15 45.0040000  0  4 21 11 23 17
  22343048.636   -13452684.760 4 -10482588.622 2
  24327700.779    -9387372.655 3  -7314828.079 1
  22086101.317   -10256661.554 3  -7992172.440 3
  23788296.208    15194306.223 3  11839720.677 2
 91  7 25  4 16  0.0040000  0  4 21 11 23 17
  22340045.314   -13468485.558 3 -10494900.916 2
  24319938.259    -9428157.980 2  -7346608.826 1
  22091320.991   -10229239.419 4  -7970804.539 3
  23797102.007    15240572.071 2  11875771.981 2
 91  7 25  4 16 15.0040000  0  4 21 11 23 17
  22337047.978   -13484208.623 3 -10507152.648 2
  24312190.415    -9468870.923 2  -7378333.179 1
  22096551.467   -10201750.620 4  -7949384.695 3
  23805920.998    15286896.817 3  11911869.162 2
 91  7 25  4 16 30.0040000  0  4 21 11 23 17
  22334072.541   -13499852.464 3 -10519342.641 2
  24304457.874    -9509509.548 2  -7409999.589 1
  22101795.450   -10174193.816 4  -7927911.861 3
  23814744.788    15333281.785 2  11948013.275 1
 91  7 25  4 16 45.0040000  0  4 21 11 23 17
  22331112.094   -13515418.164 3 -10531471.745 2
  24296739.416    -9550074.618 3  -7441608.716 1
  22107050.810   -10146570.200 3  -7906386.967 3
  23823582.381    15379726.026 2  11984203.596 1
 91  7 25  4 17  0.0040000  0  4 21 11 23 17
  22328161.541   -13530909.914 3 -10543543.220 2
  24289037.152    -9590569.861 3  -7473163.407 1
  22112321.753   -10118884.049 3  -7884813.343 3
  23832432.852    15426225.521 2  12020436.951 1
 91  7 25  4 17 15.0040000  0  4 21 11 23 17
  22325228.073   -13546325.194 3 -10555555.115 2
  24281342.077    -9630992.298 3  -7504661.377 1
  22117599.606   -10091133.161 3  -7863189.282 2
  23841287.826    15472782.565 2  12056715.128 2
 91  7 25  4 17 30.0040000  0  4 21 11 23 17
  22322308.983   -13561667.646 3 -10567510.259 2
  24273661.398    -9671345.368 3  -7536105.309 2
  22122895.136   -10063321.562 3  -7841517.907 3
  23850161.383    15519393.268 2  12093035.150 1
 91  7 25  4 17 45.0040000  0  4 21 11 23 17
  22319402.806   -13576931.771 3 -10579404.382 2
  24265996.600    -9711623.174 3  -7567490.595 1
  22128196.076   -10035443.743 3  -7819794.924 3
  23859044.836    15566062.955 3  12129401.125 2
 91  7 25  4 18  0.0040000  0  4 21 11 23 17
  22316514.306   -13592118.498 3 -10591238.185 2
  24258344.697    -9751826.221 3  -7598817.606 1
  22133514.082   -10007500.840 3  -7798021.238 3
  23867936.367    15612790.693 3  12165812.335 1
 91  7 25  4 18 15.0040000  0  4 21 11 23 17
  22313641.686   -13607234.164 3 -10603016.597 2
  24250708.987    -9791960.425 3  -7630090.977 1
  22138843.204    -9979499.489 3  -7776201.999 3
  23876840.201    15659570.127 2  12202263.830 1
 91  7 25  4 18 30.0040000  0  4 21 11 23 17
  22310779.572   -13622272.968 3 -10614735.125 2
  24243083.155    -9832019.630 3  -7661305.910 1
  22144183.407    -9951433.775 4  -7754332.605 3
  23885748.537    15706406.721 2  12238759.866 2
 91  7 25  4 18 45.0040000  0  4 21 11 23 17
  22307929.148   -13637239.078 3 -10626397.031 2
  24235474.738    -9872007.695 3  -7692465.406 1
  22149535.302    -9923308.095 4  -7732416.493 3
  23894674.254    15753296.648 2  12275297.450 2
 91  7 25  4 19  0.0040000  0  4 21 11 23 17
  22305097.606   -13652129.428 3 -10637999.889 2
  24227879.496    -9911921.053 3  -7723566.690 1
  22154900.075    -9895119.633 4  -7710451.455 3
  23903605.380    15800243.051 2  12311879.045 2
 91  7 25  4 19 15.0040000  0  4 21 11 23 17
  22302281.054   -13666943.123 3 -10649543.008 2
  24220301.337    -9951758.453 3  -7754608.783 2
  22160276.853    -9866867.640 4  -7688436.913 3
  23912552.089    15847246.383 2  12348505.004 2
 91  7 25  4 19 30.0040000  0  4 21 11 23 17
  22299476.490   -13681671.921 3 -10661019.985 2
  24212736.668    -9991511.247 3  -7785584.948 2
  22165667.121    -9838543.969 4  -7666366.509 3
  23921506.285    15894314.649 2  12385181.560 2
 91  7 25  4 19 45.0040000  0  4 21 11 23 17
  22296687.229   -13696324.081 3 -10672437.238 2
  24205185.802   -10031187.242 3  -7816501.277 1
  22171066.986    -9810156.940 4  -7644246.749 3
  23930474.876    15941439.776 2  12421902.418 1
 91  7 25  4 20  0.0040000  0  4 21 11 23 17
  22293913.849   -13710903.762 3 -10683798.018 2
  24197649.908   -10070790.222 3  -7847360.711 1
  22176481.544    -9781710.955 4  -7622081.037 3
  23939454.863    15988617.714 2  12458664.431 1
 91  7 25  4 20 15.0040000  0  4 21 11 23 17
  22291151.863   -13725411.625 3 -10695102.838 2
  24190126.316   -10110320.512 3  -7878163.508 1
  22181905.683    -9753206.984 4  -7599870.143 3
  23948437.241    16035847.478 2  12495466.845 1
 91  7 25  4 20 30.0040000  0  4 21 11 23 17
  22288406.054   -13739842.178 3 -10706347.410 2
  24182617.418   -10149772.166 3  -7908905.009 1
  22187341.216    -9724639.634 4  -7577609.872 3
  23957440.017    16083134.359 2  12532313.712 2
 91  7 25  4 20 45.0040000  0  4 21 11 23 17
  22285674.641   -13754192.326 3 -10717529.326 2
  24175124.416   -10189141.918 3  -7939582.715 2
  22192786.347    -9696005.913 3  -7555297.873 3
  23966450.577    16130481.608 2  12569207.669 1
 91  7 25  4 21  0.0040000  0  4 21 11 23 17
  22282959.126   -13768463.826 3 -10728649.969 2
  24167649.389   -10228430.922 3  -7970197.485 1
  22198252.767    -9667307.660 4  -7532935.600 3
  23975469.827    16177887.506 2  12606147.322 1
 91  7 25  4 21 15.0040000  0  4 21 11 23 17
  22280259.193   -13782657.609 3 -10739710.046 2
  24160187.850   -10267639.704 3  -8000749.743 1
  22203723.690    -9638546.330 4  -7510524.173 3
  23984501.972    16225350.864 2  12643131.740 1
 91  7 25  4 21 30.0040000  0  4 21 11 23 17
  22277570.952   -13796777.048 3 -10750712.202 2
  24152740.708   -10306771.082 3  -8031241.678 1
  22209212.586    -9609725.126 4  -7488066.087 3
  23993540.714    16272868.498 2  12680158.469 1
 91  7 25  4 21 45.0040000  0  4 21 11 23 17
  22274900.406   -13810820.197 3 -10761654.898 2
  24145310.946   -10345822.899 3  -8061671.625 1
  22214703.279    -9580842.275 4  -7465559.967 3
  24002598.650    16320441.905 2  12717228.634 1
 91  7 25  4 22  0.0040000  0  4 21 11 23 17
  22272240.050   -13824786.304 3 -10772537.573 2
  24137899.472   -10384794.148 3  -8092038.810 1
  22220214.669    -9551897.161 4  -7443005.328 3
  24011658.978    16368071.924 2  12754342.908 1
 91  7 25  4 22 15.0040000  0  4 21 11 23 17
  22269601.281   -13838677.438 3 -10783361.817 2
  24130496.409   -10423686.401 3  -8122344.413 2
  22225730.247    -9522892.021 4  -7420403.920 3
  24020736.093    16415756.379 2  12791499.634 1
 91  7 25  4 22 30.0040000  0  4 21 11 23 17
  22266969.090   -13852492.620 3 -10794126.889 2
  24123109.226   -10462498.201 3  -8152587.356 1
  22231263.519    -9493826.024 4  -7397755.086 3
  24029819.507    16463496.088 2  12828699.384 1
 91  7 25  4 22 45.0040000  0  4 21 11 23 17
  22264351.906   -13866231.509 3 -10804832.510 2
  24115738.830   -10501228.824 3  -8182767.013 1
  22236805.184    -9464699.090 4  -7375058.772 3
  24038908.017    16511291.512 2  12865942.549 1
 91  7 25  4 23  0.0040000  0  4 21 11 23 17
  22261757.809   -13879890.936 3 -10815476.208 2
  24108385.814   -10539874.808 3  -8212880.734 2
  22242359.432    -9435508.264 4  -7352312.668 3
  24048017.798    16559145.631 2  12903231.468 1
 91  7 25  4 23 15.0040000  0  4 21 11 23 17
  22259168.493   -13893470.340 3 -10826057.561 2
  24101050.196   -10578435.052 3  -8242927.641 1
  22247927.779    -9406252.984 4  -7329516.349 3
  24057135.101    16607059.032 2  12940566.569 1
 91  7 25  4 23 30.0040000  0  4 21 11 23 17
  22256601.968   -13906968.547 3 -10836575.625 2
  24093724.159   -10616907.982 3  -8272906.504 1
  22253506.613    -9376932.203 4  -7306668.989 3
  24066267.969    16655032.925 2  12977948.807 1
 91  7 25  4 23 45.0040000  0  4 21 11 23 17
  22254047.151   -13920393.147 3 -10847036.349 2
  24086417.927   -10655300.700 3  -8302822.871 1
  22259098.344    -9347553.661 4  -7283776.606 3
  24075405.950    16703059.394 2  13015372.003 1
 91  7 25  4 24  0.0040000  0  4 21 11 23 17
  22251507.307   -13933742.592 3 -10857438.506 2
  24079132.060   -10693611.421 3  -8332675.340 2
  22264697.874    -9318116.027 4  -7260838.196 3
  24084556.809    16751140.150 2  13052837.531 1
 91  7 25  4 24 15.0040000  0  4 21 11 23 17
  22248982.452   -13947015.004 3 -10867780.635 2
  24071857.605   -10731837.870 3  -8362462.127 1
  22270312.080    -9288617.860 4  -7237852.605 3
  24093714.264    16799276.701 2  13090346.500 1
 91  7 25  4 24 30.0040000  0  4 21 11 23 17
  22246472.884   -13960204.505 3 -10878058.159 2
  24064598.122   -10769973.751 3  -8392178.376 1
  22275940.683    -9259053.103 4  -7214815.127 3
  24102885.523    16847474.863 2  13127903.511 1
 91  7 25  4 24 45.0040000  0  4 21 11 23 17
  22243973.524   -13973314.346 3 -10888273.608 2
  24057359.039   -10808021.934 3  -8421826.286 1
  22281576.789    -9229425.202 4  -7191728.456 3
  24112071.161    16895731.408 2  13165505.998 1
 91  7 25  4 25  0.0040000  0  4 21 11 23 17
  22241496.326   -13986343.124 3 -10898425.896 2
  24050135.242   -10845980.519 3  -8451404.355 1
  22287227.571    -9199732.906 4  -7168591.604 3
  24121260.096    16944047.752 2  13203155.081 1
 91  7 25  4 25 15.0040000  0  4 21 11 23 17
  22239033.839   -13999292.891 3 -10908516.613 2
  24042929.419   -10883851.223 3  -8480913.951 1
  22292886.764    -9169978.359 4  -7145406.240 3
  24130471.525    16992421.730 2  13240849.067 1
 91  7 25  4 25 30.0040000  0  4 21 11 23 17
  22236580.338   -14012169.103 3 -10918550.019 2
  24035739.197   -10921639.228 3  -8510359.102 2
  22298561.819    -9140167.478 4  -7122176.975 3
  24139683.547    17040847.720 2  13278583.594 1
 91  7 25  4 25 45.0040000  0  4 21 11 23 17
  22234147.813   -14024966.694 3 -10928522.157 2
  24028565.464   -10959338.994 3  -8539735.516 1
  22304246.193    -9110295.100 4  -7098899.803 3
  24148912.950    17089330.670 2  13316362.492 1
 91  7 25  4 26  0.0040000  0  4 21 11 23 17
  22231727.886   -14037688.945 3 -10938435.588 2
  24021405.535   -10996953.345 3  -8569045.352 1
  22309943.444    -9080364.695 4  -7075577.406 3
  24158150.153    17137867.329 2  13354183.264 1
 91  7 25  4 26 15.0040000  0  4 21 11 23 17
  22229322.356   -14050333.922 3 -10948288.806 2
  24014263.266   -11034480.056 3  -8598286.899 1
  22315650.294    -9050374.576 3  -7052208.486 3
  24167390.358    17186459.477 2  13392047.264 1
 91  7 25  4 26 30.0040000  0  4 21 11 23 17
  22226929.426   -14062896.889 3 -10958078.117 2
  24007140.209   -11071913.915 3  -8627456.109 1
  22321370.039    -9020320.085 4  -7028789.398 3
  24176653.945    17235112.050 2  13429958.332 1
 91  7 25  4 26 45.0040000  0  4 21 11 23 17
  22224554.765   -14075379.521 3 -10967804.833 2
  24000036.627   -11109256.188 3  -8656553.944 2
  22327100.272    -8990203.149 4  -7005321.664 3
  24185916.940    17283823.068 2  13467914.951 1
 91  7 25  4 27  0.0040000  0  4 21 11 23 17
  22222195.094   -14087784.562 3 -10977471.087 2
  23992946.237   -11146509.229 3  -8685582.245 2
  22332842.789    -8960026.474 4  -6981807.375 3
  24195206.005    17332589.763 2  13505914.947 1
 91  7 25  4 27 15.0040000  0  4 21 11 23 17
  22219848.616   -14100112.080 3 -10987076.929 2
  23985873.524   -11183672.599 3  -8714540.688 1
  22338595.219    -8929790.135 4  -6958246.584 3
  24204492.679    17381412.001 2  13543958.246 1
 91  7 25  4 27 30.0040000  0  4 21 11 23 17
  22217515.626   -14112366.271 3 -10996625.634 2
  23978820.600   -11220749.984 3  -8743432.113 2
  22344360.526    -8899498.584 4  -6934642.787 3
  24213791.638    17430285.569 2  13582041.532 1
 91  7 25  4 27 45.0040000  0  4 21 11 23 17
  22215200.035   -14124542.688 3 -11006113.738 2
  23971781.775   -11257736.664 3  -8772252.856 2
  22350136.025    -8869147.569 4  -6910992.648 3
  24223102.603    17479214.883 2  13620168.228 1
 91  7 25  4 28  0.0040000  0  4 21 11 23 17
  22212895.838   -14136641.901 3 -11015541.692 2
  23964759.145   -11294632.866 3  -8801003.109 2
  22355925.012    -8838737.964 4  -6887296.854 3
  24232429.431    17528199.262 2  13658337.858 1
 91  7 25  4 28 15.0040000  0  4 21 11 23 17
  22210609.319   -14148661.499 3 -11024907.597 2
  23957755.988   -11331435.710 3  -8829680.611 1
  22361722.097    -8808267.392 3  -6863553.549 3
  24241755.979    17577240.973 2  13696552.190 1
 91  7 25  4 28 30.0040000  0  4 21 11 23 17
  22208341.087   -14160603.313 3 -11034212.887 2
  23950768.136   -11368146.834 3  -8858286.662 1
  22367531.187    -8777737.810 4  -6839764.269 3
  24251104.409    17626338.090 2  13734809.642 1
 91  7 25  4 28 45.0040000  0  4 21 11 23 17
  22206083.046   -14172466.985 3 -11043457.292 2
  23943798.554   -11404765.257 3  -8886820.446 2
  22373351.655    -8747149.043 4  -6815928.873 3
  24260446.244    17675490.652 2  13773110.317 1
 91  7 25  4 29  0.0040000  0  4 21 11 23 17
  22203836.401   -14184250.198 3 -11052639.007 2
  23936849.668   -11441288.305 3  -8915279.948 1
  22379183.814    -8716498.933 4  -6792045.674 3
  24269819.855    17724701.010 2  13811456.026 1
 91  7 25  4 29 15.0040000  0  4 21 11 23 17
  22201610.451   -14195958.467 4 -11061762.318 2
  23929921.460   -11477721.191 3  -8943669.170 2
  22385029.166    -8685793.251 3  -6768119.169 3
  24279192.559    17773963.581 2  13849842.451 1
 91  7 25  4 29 30.0040000  0  4 21 11 23 17
  22199394.378   -14207591.826 3 -11070827.252 2
  23923000.459   -11514063.409 3  -8971987.750 2
  22390882.318    -8655032.057 4  -6744149.414 3
  24288582.067    17823278.419 2  13888269.534 1
 91  7 25  4 29 45.0040000  0  4 21 11 23 17
  22197198.408   -14219147.212 3 -11079831.438 2
  23916104.622   -11550311.512 3  -9000232.986 2
  22396746.551    -8624212.383 4  -6720134.086 3
  24297969.464    17872648.476 2  13926739.694 2
 91  7 25  4 30  0.0040000  0  4 21 11 23 17
  22195011.721   -14230623.732 3 -11088774.166 2
  23909224.088   -11586464.232 3  -9028403.914 2
  22402621.289    -8593333.502 4  -6696072.621 3
  24307369.460    17922074.552 2  13965253.514 1
 91  7 25  4 30 15.0040000  0  4 21 11 23 17
  22192843.322   -14242023.511 3 -11097657.095 2
  23902363.047   -11622523.192 3  -9056501.777 1
  22408510.703    -8562397.655 4  -6671966.770 3
  24316794.637    17971554.412 2  14003809.209 1
 91  7 25  4 30 30.0040000  0  4 21 11 23 17
  22190687.505   -14253342.856 3 -11106477.345 2
  23895519.071   -11658484.286 3  -9084523.384 2
  22414407.934    -8531401.519 4  -6647813.941 3
  24326222.798    18021091.712 2  14042409.668 1
 91  7 25  4 30 45.0040000  0  4 21 11 23 17
  22188549.993   -14264588.611 3 -11115240.245 2
  23888697.293   -11694353.968 3  -9112473.748 2
  22420314.431    -8500351.796 4  -6623619.356 3
  24335655.478    18070679.628 2  14081049.589 1
 91  7 25  4 31  0.0040000  0  4 21 11 23 17
  22186425.655   -14275759.164 4 -11123944.562 3
  23881886.909   -11730130.272 3  -9140351.360 1
  22426235.046    -8469247.039 4  -6599381.887 3
  24345106.132    18120319.694 2  14119730.137 1
 91  7 25  4 31 15.0040000  0  4 21 11 23 17
  22184316.011   -14286850.841 3 -11132587.412 2
  23875097.814   -11765809.081 3  -9168153.010 2
  22432163.129    -8438083.777 4  -6575098.829 3
  24354555.285    18170015.504 2  14158454.103 1
 91  7 25  4 31 30.0040000  0  4 21 11 23 17
  22182214.464   -14297869.480 3 -11141173.347 2
  23868326.100   -11801395.848 3  -9195882.936 2
  22438105.923    -8406867.909 4  -6550774.785 3
  24364026.339    18219761.162 2  14197216.957 1
 91  7 25  4 31 45.0040000  0  4 21 11 23 17
  22180131.222   -14308822.112 3 -11149707.849 2
  23861567.579   -11836897.160 3  -9223546.278 1
  22444053.812    -8375606.554 4  -6526415.294 3
  24373502.767    18269549.635 2  14236013.142 1
 91  7 25  4 32  0.0040000  0  4 21 11 23 17
  22178066.547   -14319695.282 4 -11158180.436 3
  23854832.737   -11872299.223 3  -9251132.280 1
  22450012.782    -8344286.491 4  -6502010.037 3
  24382984.011    18319394.377 2  14274853.153 1
 91  7 25  4 32 15.0040000  0  4 21 11 23 17
  22176010.563   -14330488.336 3 -11166590.586 3
  23848114.089   -11907601.084 3  -9278640.208 1
  22455986.149    -8312907.318 4  -6477558.750 3
  24392482.042    18369295.449 2  14313737.084 1
 91  7 25  4 32 30.0040000  0  4 21 11 23 17
  22173968.678   -14341204.951 3 -11174941.183 2
  23841416.730   -11942805.948 3  -9306072.548 1
  22461967.002    -8281472.816 4  -6453064.333 3
  24401984.855    18419249.419 2  14352662.256 1
 91  7 25  4 32 45.0040000  0  4 21 11 23 17
  22171944.784   -14351843.542 3 -11183230.974 2
  23834735.548   -11977911.784 3  -9333427.731 2
  22467959.563    -8249981.638 4  -6428525.750 3
  24411506.566    18469257.757 2  14391629.746 1
 91  7 25  4 33  0.0040000  0  4 21 11 23 17
  22169936.473   -14362401.846 3 -11191458.210 3
  23828076.562   -12012916.053 3  -9360703.777 2
  22473963.799    -8218431.498 4  -6403941.225 2
  24421031.279    18519322.496 2  14430641.227 1
 91  7 25  4 33 15.0040000  0  4 21 11 23 17
  22167939.558   -14372884.648 3 -11199626.612 2
  23821433.771   -12047823.085 3  -9387904.053 2
  22479978.540    -8186827.480 4  -6379314.725 3
  24430571.575    18569438.692 2  14469692.765 1
 91  7 25  4 33 30.0040000  0  4 21 11 23 17
  22165962.431   -14383290.823 3 -11207735.310 2
  23814809.842   -12082631.290 3  -9415027.312 1
  22486001.972    -8155168.497 4  -6354645.386 2
  24440111.557    18619607.539 2  14508785.349 1
 91  7 25  4 33 45.0040000  0  4 21 11 23 17
  22163996.978   -14393618.697 3 -11215782.989 2
  23808202.125   -12117338.540 3  -9442071.901 1
  22492038.281    -8123452.916 4  -6329931.949 2
  24449676.440    18669831.041 2  14547920.514 1
 91  7 25  4 34  0.0040000  0  4 21 11 23 17
  22162045.939   -14403856.293 3 -11223760.309 2
  23801618.385   -12151932.519 3  -9469028.229 2
  22498083.595    -8091668.973 4  -6305165.244 3
  24459249.106    18720120.641 2  14587107.208 1
 91  7 25  4 34 15.0040000  0  4 21 11 23 17
  22160115.875   -14414020.036 3 -11231680.099 2
  23795059.215   -12186429.066 3  -9495908.664 1
  22504142.712    -8059833.210 3  -6280358.157 3
  24468823.883    18770460.080 2  14626332.696 1
 91  7 25  4 34 30.0040000  0  4 21 11 23 17
  22158191.500   -14424111.769 3 -11239543.773 3
  23788509.659   -12220829.677 3  -9522714.327 1
  22510209.612    -8027947.673 4  -6255512.280 3
  24478421.433    18820847.177 2  14665595.359 1
 91  7 25  4 34 45.0040000  0  4 21 11 23 17
  22156287.227   -14434127.424 3 -11247348.167 3
  23781982.580   -12255129.986 3  -9549441.830 1
  22516286.702    -7996008.324 4  -6230624.477 3
  24488010.607    18871286.058 2  14704898.339 1
 91  7 25  4 35  0.0040000  0  4 21 11 23 17
  22154394.036   -14444067.086 3 -11255093.338 2
  23775474.085   -12289329.515 3  -9576090.809 2
  22522378.190    -7964015.310 4  -6205694.858 3
  24497619.552    18921776.613 2  14744241.597 1
 91  7 25  4 35 15.0040000  0  4 21 11 23 17
  22152517.928   -14453934.605 3 -11262782.303 2
  23768986.565   -12323431.885 3  -9602664.078 1
  22528472.067    -7931972.660 3  -6180726.566 3
  24507232.388    18972315.083 2  14783622.215 2
 91  7 25  4 35 30.0040000  0  4 21 11 23 17
  22150651.121   -14463727.219 3 -11270412.891 2
  23762515.257   -12357433.931 3  -9629159.165 2
  22534583.029    -7899877.858 4  -6155717.620 2
  24516858.138    19022903.919 2  14823042.051 1
 91  7 25  4 35 45.0040000  0  4 21 11 23 17
  22148805.900   -14473444.511 3 -11277984.794 2
  23756064.627   -12391334.780 3  -9655575.417 1
  22540697.899    -7867730.641 3  -6130667.844 3
  24526503.658    19073543.521 2  14862501.449 1
 91  7 25  4 36  0.0040000  0  4 21 11 23 17
  22146970.870   -14483085.100 4 -11285496.925 2
  23749632.564   -12425132.639 3  -9681911.407 2
  22546827.759    -7835529.651 3  -6105576.166 3
  24536144.084    19124235.430 2  14902001.612 1
 91  7 25  4 36 15.0040000  0  5 21 11 23 12 17
  22145150.533   -14492644.265 3 -11292945.619 2
  23743224.512   -12458822.416 3  -9708163.166 2
  22552965.106    -7803270.414 3  -6080439.095 2
  25919042.918           0.105 2         0.178 1
  24545797.404    19174983.965 2  14941545.900 1
 91  7 25  4 36 30.0040000  0  5 21 11 23 12 17
  22143347.280   -14502126.076 3 -11300334.023 3
  23736830.526   -12492407.705 3  -9734333.532 1
  22559116.552    -7770956.908 4  -6055259.738 3
  25914024.689      -26371.252 2    -20548.748 1
  24555464.214    19225784.978 2  14981131.100 1
 91  7 25  4 36 45.0040000  0  5 21 11 23 12 17
  22141559.313   -14511528.300 3 -11307660.422 2
  23730462.941   -12525885.839 3  -9760420.388 2
  22565273.390    -7738587.226 3  -6030036.609 3
  25909023.264      -52646.439 2    -41022.936 1
  24565137.917    19276640.553 2  15020758.781 1
 91  7 25  4 37  0.0040000  0  5 21 11 23 12 17
  22139781.241   -14520857.846 3 -11314930.188 2
  23724108.235   -12559263.353 3  -9786428.834 2
  22571443.421    -7706168.297 3  -6004775.102 2
  25904040.110      -78831.813 2    -61427.009 1
  24574831.094    19327543.640 2  15060423.465 1
 91  7 25  4 37 15.0040000  0  5 21 11 23 12 17
  22138019.065   -14530107.988 3 -11322138.071 2
  23717779.023   -12592533.059 3  -9812353.274 2
  22577622.438    -7673693.539 3  -5979470.102 3
  25899076.448     -104920.187 2    -81755.612 1
  24584529.384    19378501.177 2  15100130.641 1
 91  7 25  4 37 30.0040000  0  5 21 11 23 12 17
  22136276.068   -14539280.154 3 -11329285.202 2
  23711463.301   -12625695.999 3  -9838194.523 2
  22583814.351    -7641164.621 3  -5954122.885 3
  25894137.670     -130912.582 2   -102009.337 1
  24594232.159    19429511.710 2  15139879.097 1
 91  7 25  4 37 45.0040000  0  5 21 11 23 12 17
  22134543.872   -14548373.347 3 -11336370.793 3
  23705176.947   -12658750.872 3  -9863951.562 2
  22590015.251    -7608580.579 3  -5928732.728 3
  25889207.268     -156807.595 2   -122187.257 1
  24603951.442    19480575.964 2  15179669.383 1
 91  7 25  4 38  0.0040000  0  5 21 11 23 12 17
  22132831.168   -14557392.080 3 -11343398.377 3
  23698905.583   -12691701.698 3  -9889627.533 2
  22596223.358    -7575946.116 3  -5903303.276 3
  25884292.484     -182609.353 2   -142292.428 1
  24613678.507    19531689.398 2  15219498.012 1
 91  7 25  4 38 15.0040000  0  5 21 11 23 12 17
  22131131.639   -14566333.134 3 -11350365.421 2
  23692655.509   -12724544.869 3  -9915219.604 2
  22602444.361    -7543258.172 4  -5877832.151 3
  25879399.565     -208314.183 2   -162322.051 1
  24623409.761    19582855.167 2  15259367.396 1
 91  7 25  4 38 30.0040000  0  5 21 11 23 12 17
  22129443.505   -14575193.444 3 -11357269.542 3
  23686430.021   -12757277.014 3  -9940725.183 2
  22608674.647    -7510513.756 3  -5852317.018 3
  25874526.435     -233918.634 2   -182273.580 1
  24633162.618    19634076.113 2  15299279.820 1
 91  7 25  4 38 45.0040000  0  5 21 11 23 12 17
  22127773.659   -14583977.862 3 -11364114.528 3
  23680218.930   -12789902.628 3  -9966147.726 2
  22614917.514    -7477717.824 4  -5826761.748 2
  25869676.095     -259427.013 2   -202150.148 1
  24642915.160    19685347.393 2  15339231.441 1
 91  7 25  4 39  0.0040000  0  5 21 11 23 12 17
  22126112.817   -14592683.651 3 -11370898.261 3
  23674030.909   -12822418.551 3  -9991484.805 2
  22621165.495    -7444867.805 3  -5801164.326 2
  25864838.353     -284836.304 2   -221949.522 1
  24652684.508    19736671.417 2  15379224.156 1
 91  7 25  4 39 15.0040000  0  5 21 11 23 12 17
  22124475.951   -14601311.015 3 -11377620.874 3
  23667862.676   -12854824.427 3 -10016736.125 2
  22627428.465    -7411963.996 3  -5775524.995 3
  25860022.477     -310146.159 2   -241671.452 1
  24662464.936    19788048.254 2  15419258.030 2
 91  7 25  4 39 30.0040000  0  5 21 11 23 12 17
  22122844.478   -14609860.438 3 -11384282.753 2
  23661717.232   -12887120.401 3 -10041901.811 2
  22633701.016    -7379006.986 3  -5749844.207 3
  25855228.204     -335356.630 2   -261315.892 1
  24672247.755    19839477.171 2  15459332.470 1
 91  7 25  4 39 45.0040000  0  5 21 11 23 12 17
  22121231.293   -14618332.801 3 -11390884.577 3
  23655594.579   -12919306.826 3 -10066982.135 2
  22639979.569    -7345997.838 3  -5724122.794 2
  25850443.215     -360468.095 2   -280883.178 1
  24682047.082    19890957.568 2  15499447.041 1
 91  7 25  4 40  0.0040000  0  5 21 11 23 12 17
  22119636.989   -14626729.192 3 -11397427.213 3
  23649488.992   -12951384.462 3 -10091977.692 2
  22646272.205    -7312937.866 4  -5698361.772 3
  25845684.314     -385481.326 2   -300374.222 1
  24691849.986    19942487.785 2  15539600.447 1
 91  7 25  4 40 15.0040000  0  5 21 11 23 12 17
  22118051.392   -14635053.026 3 -11403913.306 2
  23643406.213   -12983356.475 3 -10116890.944 2
  22652571.751    -7279830.544 3  -5672563.857 2
  25840940.385     -410399.330 2   -319791.060 1
  24701666.396    19994064.538 2  15579790.121 1
 91  7 25  4 40 30.0040000  0  5 21 11 23 12 17
  22116485.584   -14643296.885 3 -11410337.090 3
  23637343.501   -13015214.884 3 -10141715.662 2
  22658883.879    -7246668.567 3  -5646723.361 3
  25836227.953     -435214.258 2   -339127.331 1
  24711490.293    20045695.111 2  15620021.702 1
 91  7 25  4 40 45.0040000  0  5 21 11 23 12 17
  22114929.059   -14651463.743 4 -11416700.860 3
  23631303.283   -13046962.253 3 -10166453.862 2
  22665203.214    -7213455.043 3  -5620842.690 3
  25831528.104     -459928.665 2   -358385.229 1
  24721321.990    20097376.396 2  15660292.807 1
 91  7 25  4 41  0.0040000  0  5 21 11 23 12 17
  22113389.025   -14659553.755 4 -11423004.758 3
  23625282.556   -13078598.309 3 -10191105.316 2
  22671533.629    -7180190.170 3  -5594922.006 3
  25826829.755     -484542.197 2   -377564.597 1
  24731172.568    20149108.185 2  15700603.274 1
 91  7 25  4 41 15.0040000  0  5 21 11 23 12 17
  22111863.981   -14667569.799 4 -11429251.017 3
  23619280.711   -13110125.546 3 -10215671.985 2
  22677872.735    -7146877.013 3  -5568963.707 3
  25822170.076     -509057.392 2   -396667.306 1
  24741016.550    20200887.580 2  15740950.819 1
 91  7 25  4 41 30.0040000  0  5 21 11 23 12 17
  22110353.926   -14675505.618 4 -11435434.766 3
  23613305.250   -13141537.262 3 -10240148.629 2
  22684223.532    -7113509.251 3  -5542962.844 3
  25817527.794     -533467.553 2   -415688.109 1
  24750884.526    20252720.788 2  15781340.305 1
 91  7 25  4 41 45.0040000  0  5 21 11 23 12 17
  22108857.361   -14683369.379 4 -11441562.360 3
  23607345.670   -13172841.279 3 -10264541.368 2
  22690581.833    -7080095.325 3  -5516926.017 2
  25812896.611     -557780.493 2   -434633.274 1
  24760759.081    20304599.473 2  15821765.242 1
 91  7 25  4 42  0.0040000  0  5 21 11 23 12 17
  22107376.378   -14691171.155 4 -11447641.655 2
  23601412.491   -13204047.250 3 -10288857.674 2
  22696946.730    -7046645.430 3  -5490861.161 3
  25808280.104     -582005.736 2   -453509.971 1
  24770642.640    20356513.705 2  15862217.862 1
 91  7 25  4 42 15.0040000  0  5 21 11 23 12 17
  22105905.901   -14698893.105 4 -11453658.751 3
  23595493.674   -13235136.895 3 -10313083.354 2
  22703322.115    -7013141.787 3  -5464754.431 3
  25803706.471     -606124.977 2   -472304.102 1
  24780530.998    20408481.146 2  15902711.922 1
 91  7 25  4 42 30.0040000  0  5 21 11 23 12 17
  22104449.506   -14706540.516 4 -11459617.757 3
  23589598.554   -13266115.073 3 -10337222.173 2
  22709707.394    -6979589.870 3  -5438610.076 2
  25799125.929     -630143.133 2   -491019.517 1
  24790419.949    20460496.539 2  15943243.377 1
 91  7 25  4 42 45.0040000  0  5 21 11 23 12 17
  22103007.804   -14714108.924 4 -11465515.210 3
  23583724.427   -13296977.044 3 -10361270.434 2
  22716101.363    -6945985.366 3  -5412424.741 2
  25794577.791     -654055.354 2   -509652.363 1
  24800334.988    20512564.075 2  15983815.488 1
 91  7 25  4 43  0.0040000  0  5 21 11 23 12 17
  22101584.686   -14721598.104 4 -11471350.928 3
  23577870.385   -13327722.141 3 -10385227.638 2
  22722506.727    -6912328.221 4  -5386198.398 2
  25790050.315     -677861.013 2   -528202.133 1
  24810250.621    20564683.767 2  16024428.182 1
 91  7 25  4 43 15.0040000  0  5 21 11 23 12 17
  22100170.573   -14729005.701 4 -11477123.070 2
  23572045.415   -13358347.688 3 -10409091.683 2
  22728922.300    -6878616.228 4  -5359929.316 2
  25785536.938     -701557.480 2   -546666.899 1
  24820180.946    20616857.932 2  16065083.357 1
 91  7 25  4 43 30.0040000  0  5 21 11 23 12 17
  22098779.232   -14736336.674 4 -11482835.500 3
  23566239.326   -13388858.149 3 -10432866.027 2
  22735346.248    -6844854.223 3  -5333621.248 2
  25781056.839     -725149.219 2   -565050.034 1
  24830125.668    20669081.714 2  16105777.195 1
 91  7 25  4 43 45.0040000  0  5 21 11 23 12 17
  22097396.896   -14743592.509 4 -11488489.398 3
  23560457.528   -13419254.623 3 -10456551.570 2
  22741779.201    -6811044.007 3  -5307275.627 2
  25776570.144     -748637.293 2   -583352.357 1
  24840070.076    20721353.305 2  16146508.268 1
 91  7 25  4 44  0.0040000  0  5 21 11 23 12 17
  22096033.737   -14750760.450 3 -11494074.801 3
  23554694.332   -13449523.869 3 -10480137.974 2
  22748227.423    -6777172.888 4  -5280882.549 2
  25772134.421     -772008.294 2   -601563.440 1
  24850026.193    20773685.531 2  16187286.595 1
 91  7 25  4 44 15.0040000  0  5 21 11 23 12 17
  22094683.474   -14757854.059 4 -11499602.277 3
  23548957.189   -13479679.226 3 -10503635.616 2
  22754679.571    -6743254.627 4  -5254452.722 2
  25767701.995     -795275.609 2   -619693.763 1
  24859986.184    20826064.763 2  16228101.529 1
 91  7 25  4 44 30.0040000  0  5 21 11 23 12 17
  22093347.590   -14764874.497 3 -11505072.739 3
  23543240.148   -13509721.371 3 -10527045.051 2
  22761143.097    -6709290.451 3  -5227987.133 2
  25763289.952     -818439.926 2   -637743.817 1
  24869959.385    20878489.699 2  16268952.090 1
 91  7 25  4 44 45.0040000  0  5 21 11 23 12 17
  22092025.806   -14771818.488 3 -11510483.642 3
  23537547.399   -13539646.518 3 -10550363.322 2
  22767615.610    -6675277.113 3  -5201483.237 3
  25758912.373     -841497.386 2   -655710.652
  24879955.969    20930963.452 2  16309840.724 1
 91  7 25  4 45  0.0040000  0  5 21 11 23 12 17
  22090720.215   -14778688.602 4 -11515836.953 3
  23531872.623   -13569456.806 3 -10573592.071 2
  22774095.329    -6641217.217 4  -5174943.048 2
  25754543.502     -864450.142 2   -673595.856 1
  24889948.051    20983483.428 2  16350765.329 1
 91  7 25  4 45 15.0040000  0  5 21 11 23 12 17
  22089423.908   -14785486.303 4 -11521133.859 3
  23526222.434   -13599153.300 3 -10596732.163 2
  22780585.537    -6607112.400 3  -5148367.861 2
  25750195.012     -887299.327 2   -691400.338 1
  24899948.823    21036048.255 2  16391724.914 1
 91  7 25  4 45 30.0050000  0  5 21 11 23 12 17
  22088146.189   -14792207.368 3 -11526371.047 3
  23520595.039   -13628732.995 3 -10619781.245 2
  22787087.124    -6572955.785 3  -5121752.325 2
  25745863.016     -910041.489 2   -709121.469 1
  24909959.789    21088666.221 2  16432725.904 1
 91  7 25  4 45 45.0050000  0  5 21 11 23 12 17
  22086882.270   -14798853.818 4 -11531550.086 3
  23514987.708   -13658194.514 3 -10642738.240 2
  22793592.025    -6538755.129 3  -5095102.465 2
  25741553.790     -932676.122 2   -726758.855 1
  24919977.959    21141326.895 2  16473760.192 1
 91  7 25  4 46  0.0050000  0  5 21 11 23 12 17
  22085630.339   -14805422.611 4 -11536668.617 3
  23509403.185   -13687535.954 3 -10665601.668 2
  22800111.304    -6504504.818 3  -5068413.907 2
  25737272.449     -955200.878 2   -744310.532 1
  24930011.119    21194037.232 2  16514833.140 1
 91  7 25  4 46 15.0050000  0  5 21 11 23 12 17
  22084400.587   -14811912.859 4 -11541725.940 3
  23503840.526   -13716756.085 3 -10688370.563 2
  22806638.994    -6470204.012 3  -5041686.002 2
  25733009.709     -977614.388 2   -761775.579 1
  24940050.264    21246798.188 2  16555945.551 1
 91  7 25  4 46 30.0050000  0  5 21 11 23 12 17
  22083179.840   -14818321.621 4 -11546719.773 3
  23498307.568   -13745851.498 3 -10711042.280 2
  22813178.673    -6435849.838 3  -5014916.530 2
  25728764.351     -999913.360 2   -779151.328 1
  24950105.307    21299612.493 2  16597099.548 1
 91  7 25  4 46 45.0050000  0  5 21 11 23 12 17
  22081974.361   -14824654.238 4 -11551654.273 2
  23492792.881   -13774827.074 3 -10733620.616 2
  22819721.632    -6401447.676 3  -4988109.642 2
  25724537.576    -1022102.734 2   -796441.725 1
  24960154.939    21352474.653 2  16638290.804 1
 91  7 25  4 47  0.0050000  0  5 21 11 23 12 17
  22080781.185   -14830910.664 4 -11556529.394 3
  23487304.281   -13803682.511 3 -10756105.337 2
  22826279.301    -6366997.708 3  -4961265.505 2
  25720337.187    -1044181.959 2   -813646.341 1
  24970230.363    21405384.594 2  16679519.300 1
 91  7 25  4 47 15.0050000  0  5 21 11 23 12 17
  22079604.500   -14837091.872 4 -11561345.906 3
  23481831.858   -13832418.417 3 -10778496.916 2
  22832842.660    -6332500.998 3  -4934384.954 2
  25716156.272    -1066151.640 2   -830765.439 1
  24980305.491    21458341.139 2  16720784.096 1
 91  7 25  4 47 30.0050000  0  5 21 11 23 12 17
  22078445.212   -14843196.817 4 -11566102.998 3
  23476396.621   -13861033.238 3 -10800794.155 2
  22839415.302    -6297956.559 3  -4907467.212 2
  25711995.459    -1088010.196 2   -847797.934 1
  24990395.312    21511345.590 2  16762086.243 1
 91  7 25  4 47 45.0050000  0  5 21 11 23 12 17
  22077293.707   -14849228.971 4 -11570803.368 2
  23470968.295   -13889529.918 3 -10822999.323 2
  22845997.838    -6263368.149 3  -4880515.198 2
  25707861.311    -1109760.718 2   -864746.403 1
  25000498.307    21564394.524 2  16803423.039 1
 91  7 25  4 48  0.0050000  0  5 21 11 23 12 17
  22076162.584   -14855185.337 4 -11575444.680 3
  23465568.430   -13917905.174 3 -10845109.879 2
  22852590.879    -6228732.803 3  -4853526.621 2
  25703739.168    -1131399.875 2   -881608.008 1
  25010589.332    21617490.539 2  16844796.554 1
 91  7 25  4 48 15.0050000  0  5 21 11 23 12 17
  22075043.170   -14861064.319 4 -11580025.688 3
  23460191.354   -13946156.964 3 -10867124.220 2
  22859188.719    -6194048.889 3  -4826500.197 2
  25699643.113    -1152925.706 2   -898381.448 1
  25020708.818    21670635.114 2  16886207.867 1
 91  7 25  4 48 30.0050000  0  5 21 11 23 12 17
  22073938.135   -14866868.234 4 -11584548.202 3
  23454837.348   -13974287.217 3 -10889043.871 2
  22865799.141    -6159319.053 3  -4799437.984 2
  25695569.831    -1174340.087 2   -915067.964 1
  25030826.820    21723826.120 2  16927655.377 1
 91  7 25  4 48 45.0050000  0  5 21 11 23 12 17
  22072848.683   -14872592.682 4 -11589008.802 3
  23449507.336   -14002291.186 3 -10910865.113 2
  22872416.752    -6124538.914 3  -4772336.583 2
  25691518.431    -1195638.179 2   -931663.859 1
  25040955.014    21777067.626 2  16969142.255 1
 91  7 25  4 49  0.0050000  0  5 21 11 23 12 17
  22071776.629   -14878242.105 4 -11593410.938 3
  23444202.819   -14030172.884 3 -10932591.079 2
  22879042.774    -6089712.944 3  -4745199.468 2
  25687477.537    -1216824.061 2   -948172.230 1
  25051101.775    21830355.331 2  17010665.107 1
 91  7 25  4 49 15.0050000  0  5 21 11 23 12 17
  22070714.155   -14883815.019 3 -11597753.458 3
  23438920.778   -14057930.551 3 -10954220.398 2
  22885680.767    -6054839.794 3  -4718025.579 2
  25683476.498    -1237895.913 2   -964591.777 1
  25061250.054    21883690.364 2  17052224.821 1
 91  7 25  4 49 30.0050000  0  5 21 11 23 12 17
  22069666.688   -14889309.949 3 -11602035.203 3
  23433662.120   -14085562.183 3 -10975751.517 2
  22892325.077    -6019918.201 3  -4690813.948 2
  25679485.354    -1258851.797 2   -980921.033 1
  25071403.131    21937074.092 2  17093822.515 1
 91  7 25  4 49 45.0050000  0  5 21 11 23 12 17
  22068637.806   -14894727.179 4 -11606256.404 3
  23428429.236   -14113067.844 3 -10997184.464 2
  22898980.468    -5984948.558 3  -4663564.876 2
  25675523.597    -1279691.630 2   -997159.788 1
  25081576.294    21990506.282 2  17135457.981 1
 91  7 25  4 50  0.0050000  0  5 21 11 23 12 17
  22067621.208   -14900067.568 4 -11610417.741 3
  23423217.344   -14140447.891 3 -11018519.535 2
  22905646.958    -5949931.569 3  -4636278.911 2
  25671572.640    -1300415.845 2  -1013308.519 1
  25091757.240    22043985.979 2  17177130.445 1
 91  7 25  4 50 15.0050000  0  5 21 11 23 12 17
  22066617.507   -14905331.951 3 -11614519.841 3
  23418034.228   -14167702.823 3 -11039757.127 2
  22912315.541    -5914868.316 3  -4608956.893 2
  25667651.053    -1321024.946 2  -1029367.489 1
  25101933.701    22097512.199 2  17218839.154 1
 91  7 25  4 50 30.0050000  0  5 21 11 23 12 17
  22065631.779   -14910518.909 3 -11618561.614 3
  23412870.604   -14194830.834 3 -11060895.807 2
  22918998.503    -5879757.560 3  -4581597.855 2
  25663753.146    -1341517.142 2  -1045335.394 1
  25112137.733    22151086.472 2  17260585.284 1
 91  7 25  4 50 45.0050000  0  5 21 11 23 12 17
  22064658.650   -14915633.266 3 -11622546.816 3
  23407731.568   -14221836.196 3 -11081938.921 2
  22925687.782    -5844604.237 3  -4554205.663 2
  25659880.436    -1361896.769 2  -1061215.601 1
  25122338.170    22204703.596 2  17302364.863 1
 91  7 25  4 51  0.0050000  0  5 21 11 23 12 17
  22063701.122   -14920671.720 3 -11626472.870 3
  23402614.413   -14248715.217 3 -11102883.576 2
  22932384.844    -5809405.090 3  -4526777.750 2
  25656023.607    -1382160.122 2  -1077005.204 1
  25132546.705    22258366.855 2  17344180.324 1
 91  7 25  4 51 15.0050000  0  5 21 11 23 12 17
  22062756.471   -14925633.762 4 -11630339.384 3
  23397522.736   -14275467.047 3 -11123729.138 2
  22939092.394    -5774159.512 3  -4499313.660 2
  25652193.162    -1402306.238 2  -1092703.457 1
  25142768.432    22312076.864 2  17386032.261 1
 91  7 25  4 51 30.0050000  0  5 21 11 23 12 17
  22061826.811   -14930521.048 3 -11634147.646 3
  23392455.333   -14302093.005 3 -11144476.609 2
  22945809.244    -5738869.507 3  -4471814.955 2
  25648378.003    -1422336.505 2  -1108311.361 1
  25152995.847    22365832.030 2  17427919.387 1
 91  7 25  4 51 45.0050000  0  5 21 11 23 12 17
  22060912.751   -14935330.960 3 -11637895.613 3
  23387416.129   -14328590.192 3 -11165123.742 2
  22952532.395    -5703532.662 3  -4444279.760 2
  25644582.930    -1442247.860 2  -1123826.660 1
  25163240.346    22419634.534 2  17469843.388 1
 91  7 25  4 52  0.0050000  0  5 21 11 23 12 17
  22060010.366   -14940066.164 4 -11641585.370 3
  23382396.399   -14354960.812 3 -11185672.262 2
  22959263.938    -5668151.623 3  -4416710.106 2
  25640818.429    -1462042.576 2  -1139251.130 1
  25173481.269    22473481.605 2  17511802.092 1
 91  7 25  4 52 15.0050000  0  5 21 11 23 12 17
  22059122.987   -14944725.805 4 -11645216.252 3
  23377404.258   -14381203.471 3 -11206121.051 2
  22966007.470    -5632725.574 3  -4389105.394 2
  25637077.015    -1481719.454 2  -1154583.711 1
  25183741.054    22527374.119 2  17553796.226 1
 91  7 25  4 52 30.0050000  0  5 21 11 23 12 17
  22058248.784   -14949310.483 3 -11648788.711 2
  23372433.407   -14407318.446 3 -11226470.360 2
  22972755.190    -5597255.251 3  -4361466.190 2
  25633351.498    -1501278.765 2  -1169824.758 1
  25194003.859    22581311.361 2  17595825.222 1
 91  7 25  4 52 45.0050000  0  5 21 11 23 12 17
  22057392.885   -14953817.681 4 -11652300.807 3
  23367486.218   -14433302.911 3 -11246717.993 2
  22979516.417    -5561738.402 3  -4333790.714 2
  25629652.960    -1520717.551 2  -1184971.838 1
  25204279.245    22635295.587 2  17637890.813 1
 91  7 25  4 53  0.0050000  0  5 21 11 23 12 17
  22056549.569   -14958247.498 4 -11655752.591 3
  23362569.322   -14459156.595 3 -11266863.683 2
  22986282.424    -5526175.145 3  -4306079.076 2
  25625984.994    -1540035.471 2  -1200024.711 1
  25214554.928    22689326.979 2  17679993.184 1
 91  7 25  4 53 15.0050000  0  5 21 11 23 12 17
  22055721.835   -14962603.069 4 -11659146.535 3
  23357674.327   -14484882.214 3 -11286909.600 2
  22993058.344    -5490568.558 3  -4278333.690 2
  25622328.737    -1559235.295 2  -1214985.580 1
  25224849.492    22743402.023 2  17722129.553 1
 91  7 25  4 53 30.0050000  0  5 21 11 23 12 17
  22054905.514   -14966879.577 3 -11662478.862 3
  23352801.790   -14510474.598 3 -11306851.694 2
  22999840.842    -5454913.901 3  -4250550.836 2
  25618691.954    -1578311.868 2  -1229850.405 1
  25235141.072    22797525.555 2  17764303.703 1
 91  7 25  4 53 45.0050000  0  5 21 11 23 12 17
  22054109.557   -14971079.512 4 -11665751.526 3
  23347957.452   -14535935.863 3 -11326691.624 2
  23006637.737    -5419214.058 3  -4222732.762 2
  25615087.245    -1597267.341 2  -1244620.868 1
  25245456.035    22851694.826 2  17806513.478 1
 91  7 25  4 54  0.0050000  0  5 21 11 23 12 17
  22053321.104   -14975204.312 3 -11668965.639 3
  23343139.185   -14561267.059 3 -11346430.195 2
  23013439.727    -5383470.327 3  -4194880.512 2
  25611496.933    -1616102.729 2  -1259297.794 1
  25255769.795    22905908.561 2  17848757.896 1
 91  7 25  4 54 15.0050000  0  5 21 11 23 12 17
  22052552.439   -14979256.632 3 -11672123.281 3
  23338341.597   -14586470.395 3 -11366069.139 2
  23020248.313    -5347685.489 3  -4166996.229 2
  25607938.397    -1634820.188 2  -1273882.753 1
  25266097.043    22960163.930 2  17891034.816 1
 91  7 25  4 54 30.0050000  0  5 21 11 23 12 17
  22051795.466   -14983237.565 3 -11675225.295 3
  23333569.800   -14611546.653 3 -11385609.056 2
  23027067.998    -5311860.767 3  -4139080.858 2
  25604405.636    -1653420.437 2  -1288376.414 1
  25276435.983    23014459.815 2  17933343.238 1
 91  7 25  4 54 45.0050000  0  5 21 11 23 12 17
  22051047.183   -14987146.447 3 -11678271.162 3
  23328821.090   -14636494.745 3 -11405049.104 2
  23033891.574    -5275995.621 3  -4111133.987 2
  25600892.977    -1671902.409 2  -1302777.968 1
  25286762.934    23068796.803 2  17975683.701 1
 91  7 25  4 55  0.0050000  0  5 21 11 23 12 17
  22050323.471   -14990972.856 3 -11681252.760 2
  23324101.765   -14661304.008 3 -11424380.980 2
  23040725.935    -5240079.867 3  -4083147.683 2
  25597394.993    -1690255.474 2  -1317078.990 1
  25297122.570    23123184.890 2  18018064.001 1
 91  7 25  4 55 15.0050000  0  5 21 11 23 12 17
  22049609.373   -14994722.736 3 -11684174.736 3
  23319406.104   -14685979.841 3 -11443608.887 2
  23047568.706    -5204119.457 3  -4055126.585 2
  25593922.505    -1708485.130 2  -1331283.878 1
  25307466.902    23177617.993 2  18060479.366 1
 91  7 25  4 55 30.0050000  0  5 21 11 23 12 17
  22048909.061   -14998403.001 3 -11687042.462 3
  23314734.140   -14710528.860 3 -11462737.970 2
  23054417.759    -5168121.416 3  -4027076.165 2
  25590475.476    -1726597.804 2  -1345397.590 1
  25317844.215    23232089.331 2  18102924.533 1
 91  7 25  4 55 45.0050000  0  5 21 11 23 12 17
  22048222.237   -15002003.385 3 -11689847.938 3
  23310087.059   -14734940.423 3 -11481759.948 2
  23061277.614    -5132075.543 3  -3998988.471 2
  25587047.660    -1744582.990 2  -1359411.974 1
  25328220.045    23286609.193 2  18145407.484 1
 91  7 25  4 56  0.0050000  0  5 21 11 23 12 17
  22047552.498   -15005526.714 3 -11692593.378 3
  23305471.163   -14759217.022 3 -11500676.750 2
  23068141.361    -5095984.717 3  -3970865.753 2
  25583650.102    -1762443.086 2  -1373328.913 1
  25338603.046    23341174.833 2  18187926.110 1
 91  7 25  4 56 15.0050000  0  5 21 11 23 12 17
  22046894.450   -15008971.960 3 -11695277.971 3
  23300875.648   -14783357.160 3 -11519487.244 2
  23075022.488    -5059847.880 3  -3942707.177 2
  25580290.639    -1780176.670 2  -1387147.257 1
  25348995.663    23395786.892 2  18230480.952 1
 91  7 25  4 56 30.0050000  0  5 21 11 23 12 17
  22046254.691   -15012341.746 3 -11697903.767 3
  23296306.500   -14807363.104 3 -11538193.148 2
  23081906.634    -5023667.936 3  -3914515.010 2
  25576930.861    -1797786.015 2  -1400868.785 1
  25359390.653    23450442.595 2  18273069.780 1
 91  7 25  4 56 45.0050000  0  5 21 11 23 12 17
  22045629.624   -15015640.978 3 -11700474.583 3
  23291764.645   -14831239.343 3 -11556797.995 2
  23088798.859    -4987449.717 3  -3886293.030 2
  25573596.561    -1815275.680 2  -1414497.062 1
  25369806.950    23505137.005 2  18315688.729 1
 91  7 25  4 57  0.0050000  0  5 21 11 23 12 17
  22045013.561   -15018861.676 3 -11702984.205 3
  23287248.581   -14854977.593 3 -11575295.310 2
  23095700.978    -4951185.528 3  -3858035.231 2
  25570299.743    -1832637.360 2  -1428025.598 1
  25380211.852    23559878.131 2  18358344.083 1
 91  7 25  4 57 15.0050000  0  5 21 11 23 12 17
  22044410.970   -15022007.017 3 -11705435.110 3
  23282754.993   -14878580.715 3 -11593687.337 2
  23102606.989    -4914878.614 3  -3829744.122 2
  25567015.822    -1849873.742 2  -1441456.554 1
  25390647.326    23614662.604 2  18401033.294 1
 91  7 25  4 57 30.0050000  0  5 21 11 23 12 17
  22043832.670   -15025077.268 3 -11707827.500 3
  23278287.772   -14902048.529 3 -11611973.909 2
  23109524.116    -4878529.211 3  -3801419.918 2
  25563757.971    -1866984.694 2  -1454789.720 1
  25401076.205    23669490.028 2  18443755.911 1
 91  7 25  4 57 45.0050000  0  5 21 11 23 12 17
  22043259.762   -15028072.943 3 -11710161.781 3
  23273848.157   -14925381.114 3 -11630155.148 2
  23116450.805    -4842137.997 3  -3773063.137 2
  25560529.506    -1883970.542 2  -1468025.408 1
  25411520.963    23724359.701 2  18486511.461 1
 91  7 25  4 58  0.0050000  0  5 21 11 23 12 17
  22042706.660   -15030985.448 3 -11712431.257 3
  23269437.004   -14948569.564 3 -11648224.041 2
  23123384.423    -4805696.386 3  -3744667.076 2
  25557328.037    -1900822.198 2  -1481156.525 1
  25421967.239    23779280.455 2  18529306.770 1
 91  7 25  4 58 15.0050000  0  5 21 11 23 12 17
  22042167.919   -15033823.659 3 -11714642.839 3
  23265048.937   -14971622.450 3 -11666187.326 2
  23130327.306    -4769213.463 3  -3716238.825 2
  25554145.728    -1917548.177 2  -1494189.719 1
  25432430.895    23834243.163 2  18572134.824 1
 91  7 25  4 58 30.0050000  0  5 21 11 23 12 17
  22041643.889   -15036588.357 3 -11716797.134 3
  23260689.960   -14994540.015 3 -11684045.148 2
  23137276.489    -4732690.147 3  -3687779.112 2
  25550983.522    -1934148.877 2  -1507125.319 1
  25442898.443    23889246.915 2  18614994.860 1
 91  7 25  4 58 45.0050000  0  5 21 11 23 12 17
  22041128.846   -15039276.593 3 -11718891.856 3
  23256351.958   -15017318.993 3 -11701794.988 2
  23144235.880    -4696123.618 3  -3659285.715 2
  25547845.292    -1950621.021 2  -1519960.695 1
  25453367.806    23944294.643 2  18657889.240 1
 91  7 25  4 59  0.0050000  0  5 21 11 23 12 17
  22040632.981   -15041887.678 3 -11720926.457 3
  23252045.751   -15039958.424 3 -11719436.076 2
  23151201.553    -4659513.173 3  -3630758.102 2
  25544737.949    -1966963.630 2  -1532695.245 1
  25463856.347    23999386.675 2  18700817.994 1
 91  7 25  4 59 15.0050000  0  5 21 11 23 12 17
  22040150.029   -15044422.374 3 -11722901.541 3
  23247762.909   -15062458.803 3 -11736968.830 2
  23158179.232    -4622859.710 3  -3602196.962 2
  25541656.973    -1983177.109 2  -1545329.019 1
  25474349.372    24054522.249 2  18743780.774 1
 91  7 25  4 59 30.0050000  0  5 21 11 23 12 17
  22039682.939   -15046882.500 3 -11724818.506 3
  23243507.062   -15084821.428 3 -11754394.232 2
  23165161.396    -4586164.964 3  -3573603.667 2
  25538595.490    -1999262.935 2  -1557863.341 1
  25484844.806    24109699.373 2  18786775.858 1
 91  7 25  4 59 45.0050000  0  5 21 11 23 12 17
  22039229.966   -15049266.213 3 -11726675.932 3
  23239279.677   -15107044.152 3 -11771710.638 2
  23172151.656    -4549427.466 3  -3544977.058 2
  25535556.500    -2015218.905 2  -1570296.650 1
  25495347.446    24164920.061 2  18829804.865 1
 91  7 25  5  0  0.0050000  0  5 21 11 23 12 17
  22038787.167   -15051575.914 3 -11728475.687 3
  23235077.490   -15129128.899 3 -11788919.504 2
  23179148.810    -4512649.514 3  -3516318.911 2
  25532544.487    -2031046.996 2  -1582630.121 1
  25505863.855    24220181.932 2  18872866.091 1
 91  7 25  5  0 15.0050000  0  5 21 11 23 12 17
  22038365.360   -15053808.014 3 -11730214.986 3
  23230901.985   -15151071.850 3 -11806017.901 2
  23186157.655    -4475827.708 3  -3487626.596 2
  25529553.450    -2046743.272 2  -1594860.928 1
  25516391.676    24275487.973 2  18915961.640 1
 91  7 25  5  0 30.0050000  0  5 21 11 23 12 17
  22037952.837   -15055965.930 3 -11731896.467 3
  23226753.457   -15172876.047 3 -11823008.170 2
  23193171.002    -4438965.443 3  -3458902.762 2
  25526589.705    -2062310.753 2  -1606991.457 1
  25526937.767    24330834.921 2  18959089.106 1
 91  7 25  5  0 45.0050000  0  5 21 11 23 12 17
  22037559.509   -15058042.935 3 -11733514.898 3
  23222632.501   -15194534.436 3 -11839884.821 2
  23200196.931    -4402056.051 3  -3430142.209 2
  25523658.034    -2077742.342 2  -1619016.001 1
  25537472.184    24386229.359 2  19002253.541 1
 91  7 25  5  1  0.0050000  0  5 21 11 23 12 17
  22037174.889   -15060048.465 3 -11735077.641 3
  23218538.244   -15216056.077 3 -11856654.919 2
  23207224.378    -4365109.303 3  -3401352.539 2
  25520746.447    -2093047.200 2  -1630941.870 1
  25548022.167    24441661.795 2  19045447.630 1
 91  7 25  5  1 15.0050000  0  5 21 11 23 12 17
  22036810.336   -15061977.822 3 -11736581.027 3
  23214465.555   -15237435.932 3 -11873314.535 2
  23214268.298    -4328120.479 3  -3372530.087 2
  25517857.354    -2108220.299 2  -1642764.988 1
  25558571.871    24497136.777 2  19088674.846 1
 91  7 25  5  1 30.0050000  0  5 21 11 23 12 17
  22036458.383   -15063828.710 3 -11738023.270 2
  23210427.051   -15258671.316 3 -11889861.569 2
  23221312.218    -4291087.426 3  -3343673.173 2
  25514990.441    -2123259.063 2  -1654483.540 1
  25569135.360    24552656.451 2  19131936.884 1
 91  7 25  5  1 45.0050000  0  5 21 11 23 12 17
  22036119.307   -15065603.753 3 -11739406.409 3
  23206410.133   -15279764.506 3 -11906297.803 2
  23228365.735    -4254012.853 3  -3314783.899 2
  25512158.899    -2138165.718 2  -1666099.063 1
  25579720.435    24608218.075 2  19175231.597 1
 91  7 25  5  2  0.0050000  0  5 21 11 23 12 17
  22035793.442   -15067307.768 4 -11740734.193 3
  23202423.491   -15300719.874 3 -11922626.655 2
  23235429.740    -4216901.377 3  -3285865.858 2
  25509348.052    -2152944.606 2  -1677615.102 1
  25590286.315    24663816.970 2  19218555.398 1
 91  7 25  5  2 15.0050000  0  5 21 11 23 12 17
  22035484.346   -15068937.416 3 -11742004.045 3
  23198464.438   -15321533.960 3 -11938845.406 2
  23242498.248    -4179750.149 3  -3256916.858 2
  25506559.071    -2167592.198 2  -1689028.724 1
  25600883.082    24719456.252 2  19261910.617 1
 91  7 25  5  2 30.0050000  0  5 21 11 23 12 17
  22035189.647   -15070487.556 3 -11743211.935 3
  23194529.955   -15342201.166 3 -11954949.709 2
  23249577.557    -4142553.940 3  -3227932.801 2
  25503797.993    -2182102.914 2  -1700335.721 1
  25611476.551    24775141.028 2  19305301.334 1
 91  7 25  5  2 45.0050000  0  5 21 11 23 12 17
  22034910.548   -15071957.444 3 -11744357.296 3
  23190623.357   -15362720.368 3 -11970938.686 2
  23256664.649    -4105312.104 3  -3198913.183 2
  25501064.486    -2196475.777 2  -1711535.335 1
  25622080.804    24830871.613 2  19348727.700 1
 91  7 25  5  3  0.0050000  0  5 21 11 23 12 17
  22034644.031   -15073353.049 4 -11745444.765 3
  23186749.741   -15383097.054 3 -11986816.611 2
  23263759.837    -4068030.558 3  -3169862.639 2
  25498350.751    -2210716.299 2  -1722631.853 1
  25632703.642    24886642.106 2  19392185.191 1
 91  7 25  5  3 15.0050000  0  5 21 11 23 12 17
  22034392.207   -15074670.396 3 -11746471.256 3
  23182900.414   -15403326.904 3 -12002580.118 2
  23270861.622    -4030705.456 3  -3140778.149 2
  25495665.825    -2224820.158 2  -1733621.821 1
  25643312.711    24942456.672 2  19435676.973 1
 91  7 25  5  3 30.0050000  0  5 21 11 23 12 17
  22034154.779   -15075915.884 3 -11747441.761 3
  23179075.065   -15423416.072 3 -12018234.001 2
  23277973.598    -3993343.379 3  -3111664.836 2
  25493006.656    -2238793.428 2  -1744510.108 1
  25653943.052    24998308.655 2  19479198.011 1
 91  7 25  5  3 45.0050000  0  5 21 11 23 12 17
  22033933.231   -15077090.658 3 -11748357.160 3
  23175277.898   -15443365.340 3 -12033778.877 2
  23285088.872    -3955945.464 3  -3082523.600 2
  25490374.186    -2252636.937 2  -1755297.139 1
  25664572.782    25054196.846 2  19522747.188 1
 91  7 25  5  4  0.0050000  0  5 21 11 23 12 17
  22033724.265   -15078193.066 3 -11749216.162 3
  23171508.302   -15463172.784 3 -12049213.230 2
  23292213.133    -3918510.193 3  -3053353.266 2
  25487765.990    -2266348.815 2  -1765981.741 1
  25675225.320    25110122.559 2  19566325.597 1
 91  7 25  5  4 15.0050000  0  5 21 11 23 12 17
  22033529.713   -15079216.940 4 -11750013.976 3
  23167771.093   -15482831.748 3 -12064531.885 2
  23299345.194    -3881031.600 3  -3024149.172 2
  25485182.973    -2279922.493 2  -1776558.514 1
  25685861.053    25166092.086 2  19609938.169 1
 91  7 25  5  4 30.0050000  0  5 21 11 23 12 17
  22033348.038   -15080164.189 3 -11750752.103 3
  23164057.565   -15502343.978 3 -12079736.211 2
  23306482.054    -3843511.476 3  -2994912.700 2
  25482628.436    -2293359.518 2  -1787028.936 1
  25696521.077    25222103.255 2  19653583.182 1
 91  7 25  5  4 45.0050000  0  5 21 11 23 12 17
  22033182.244   -15081031.446 4 -11751427.853 3
  23160372.812   -15521705.607 3 -12094823.183 2
  23313633.310    -3805946.530 3  -2965641.306 2
  25480096.392    -2306656.001 2  -1797389.828 1
  25707185.289    25278159.575 2  19697263.431 1
 91  7 25  5  5  0.0050000  0  5 21 11 23 12 17
  22033031.753   -15081824.836 3 -11752046.073 3
  23156714.443   -15540922.580 3 -12109797.430 2
  23320789.348    -3768343.142 3  -2936339.960 2
  25477594.921    -2319818.059 2  -1807645.924 1
  25717859.099    25334254.435 2  19740973.603 1
 91  7 25  5  5 15.0050000  0  5 21 11 23 12 17
  22032895.345   -15082542.996 3 -11752605.663 3
  23153083.350   -15559993.071 3 -12124657.534 2
  23327952.592    -3730699.825 3  -2907007.518 2
  25475111.144    -2332843.837 2  -1817795.834 1
  25728557.199    25390389.328 2  19784715.061 1
 91  7 25  5  5 30.0050000  0  5 21 11 23 12 17
  22032771.832   -15083187.646 3 -11753107.976 3
  23149484.940   -15578918.362 3 -12139404.507 2
  23335123.323    -3693018.549 3  -2877645.464 2
  25472662.146    -2345734.650 2  -1827840.581 1
  25739243.887    25446562.600 2  19828486.392 1
 91  7 25  5  5 45.0050000  0  5 21 11 23 12 17
  22032665.403   -15083757.655 3 -11753552.129 3
  23145911.118   -15597697.123 3 -12154037.289 2
  23342297.963    -3655298.318 3  -2848253.065 2
  25470235.326    -2358489.183 2  -1837779.225 1
  25749941.394    25502775.107 2  19872288.247 1
 91  7 25  5  6  0.0050000  0  5 21 11 23 12 17
  22032569.165   -15084251.474 3 -11753936.912 3
  23142368.165   -15616327.511 3 -12168554.457 2
  23349486.388    -3617537.553 3  -2818829.101 2
  25467833.984    -2371105.535 2  -1847610.043 1
  25760638.883    25559028.206 2  19916121.790 1
 91  7 25  5  6 15.0050000  0  5 21 11 23 12 17
  22032490.325   -15084669.068 3 -11754262.298 3
  23138848.003   -15634809.077 3 -12182955.665 2
  23356678.408    -3579736.340 3  -2789373.595 2
  25465453.932    -2383583.302 2  -1857332.920 1
  25771359.460    25615321.821 2  19959986.901 1
 91  7 25  5  6 30.0050000  0  5 21 11 23 12 17
  22032426.161   -15085015.506 3 -11754532.233 3
  23135359.617   -15653146.496 3 -12197244.540 2
  23363882.416    -3541899.756 3  -2759890.543 2
  25463109.251    -2395927.196 2  -1866951.585 1
  25782077.645    25671650.834 2  20003879.592 1
 91  7 25  5  6 45.0050000  0  5 21 11 23 12 17
  22032375.503   -15085288.127 3 -11754744.658 3
  23131897.913   -15671336.874 3 -12211418.844 2
  23371083.737    -3504025.261 3  -2730377.945 2
  25460787.360    -2408134.280 2  -1876463.545 1
  25792803.020    25728017.925 2  20047801.996 1
 91  7 25  5  7  0.0050000  0  5 21 11 23 12 17
  22032334.739   -15085485.314 3 -11754898.302 3
  23128464.094   -15689378.196 3 -12225477.005 2
  23378298.233    -3466111.206 3  -2700834.516 2
  25458491.853    -2420202.620 2  -1885867.456 1
  25803542.477    25784424.578 2  20091755.225 1
 91  7 25  5  7 15.0050000  0  5 21 11 23 12 17
  22032315.544   -15085605.923 3 -11754992.271 3
  23125058.160   -15707269.091 3 -12239417.940 2
  23385522.937    -3428156.746 3  -2671259.611 2
  25456216.432    -2432130.814 2  -1895162.115 1
  25814281.045    25840871.570 2  20135739.793 1
 91  7 25  5  7 30.0050000  0  5 21 11 23 12 17
  22032304.446   -15085653.411 3 -11755029.266 3
  23121683.986   -15725012.652 3 -12253244.080 2
  23392751.236    -3390165.309 3  -2641655.892 2
  25453970.380    -2443922.022 2  -1904350.052 1
  25825033.398    25897355.335 2  20179753.097 1
 91  7 25  5  7 45.0050000  0  5 21 11 23 12 17
  22032309.244   -15085623.363 3 -11755005.836 3
  23118336.214   -15742604.217 3 -12266951.772 2
  23399988.819    -3352132.629 3  -2612020.037 2
  25451758.216    -2455571.490 2  -1913427.523 1
  25835779.765    25953880.274 2  20223798.491 1
 91  7 25  5  8  0.0050000  0  5 21 11 23 12 17
  22032330.534   -15085521.630 3 -11754926.553 3
  23115017.200   -15760049.168 3 -12280545.226 2
  23407231.217    -3314064.587 3  -2582356.623 2
  25449563.432    -2467084.641 2  -1922398.741 1
  25846545.311    26010440.603 2  20267871.369 1
 91  7 25  5  8 15.0050000  0  5 21 11 23 12 17
  22032361.717   -15085343.995 3 -11754788.132 3
  23111726.386   -15777342.916 3 -12294020.855 2
  23414486.180    -3275957.013 3  -2552662.405 2
  25447406.131    -2478457.052 2  -1931260.326 1
  25857314.154    26067040.373 2  20311974.994 1
 91  7 25  5  8 30.0050000  0  5 21 11 23 12 17
  22032412.078   -15085105.384 4 -11754602.180 3
  23108459.845   -15794500.109 3 -12307390.089 2
  23421739.660    -3237824.838 3  -2522949.022 2
  25445268.602    -2489703.283 2  -1940023.589 1
  25868087.796    26123664.784 2  20356097.943 1
 91  7 25  5  8 45.0050000  0  5 21 11 23 12 17
  22032468.146   -15084796.868 3 -11754361.765 3
  23105222.690   -15811511.480 3 -12320645.683 2
  23429004.831    -3199659.251 3  -2493209.600 2
  25443154.176    -2500814.126 2  -1948681.369 1
  25878870.129    26180322.403 2  20400246.728 1
 91  7 25  5  9  0.0050000  0  5 21 11 23 12 17
  22032539.483   -15084410.846 4 -11754060.957 3
  23102015.200   -15828369.096 3 -12333781.471 2
  23436274.801    -3161452.604 3  -2463438.195 2
  25441064.617    -2511781.646 2  -1957227.484 1
  25889667.451    26237020.698 2  20444427.174 1
 91  7 25  5  9 15.0050000  0  5 21 11 23 12 17
  22032630.032   -15083946.387 4 -11753699.032 3
  23098836.800   -15845071.691 3 -12346796.462 2
  23443554.073    -3123204.285 3  -2433634.310 2
  25438998.145    -2522604.583 2  -1965660.873 1
  25900470.480    26293760.595 2  20488640.049 1
 91  7 25  5  9 30.0050000  0  5 21 11 23 12 17
  22032731.365   -15083407.007 4 -11753278.724 3
  23095690.787   -15861622.488 3 -12359693.173 2
  23450838.125    -3084917.948 3  -2403800.799 2
  25436972.751    -2533286.269 2  -1973984.228 1
  25911266.598    26350538.386 2  20532882.396 1
 91  7 25  5  9 45.0050000  0  5 21 11 23 12 17
  22032845.873   -15082795.182 4 -11752801.963 3
  23092568.141   -15878023.690 4 -12372473.316 2
  23458130.274    -3046595.968 3  -2373939.512 2
  25434965.941    -2543828.796 2  -1982199.158 1
  25922066.921    26407351.589 2  20577152.433 1
 91  7 25  5 10  0.0050000  0  5 21 11 23 12 17
  22032981.392   -15082109.518 4 -11752267.672 3
  23089472.786   -15894273.519 3 -12385135.500 2
  23465432.021    -3008236.938 3  -2344049.361 2
  25432983.404    -2554230.485 2  -1990304.293 1
  25932895.131    26464201.468 2  20621450.951 1
 91  7 25  5 10 15.0050000  0  5 21 11 23 12 17
  22033121.395   -15081351.391 4 -11751676.915 3
  23086414.304   -15910373.027 4 -12397680.554 2
  23472736.770    -2969842.323 3  -2314131.476 2
  25431030.568    -2564492.365 2  -1998300.536 1
  25943725.434    26521086.498 2  20665776.882 1
 91  7 25  5 10 30.0050000  0  5 21 11 23 12 17
  22033281.169   -15080517.111 4 -11751026.809 3
  23083378.019   -15926318.415 3 -12410105.514 2
  23480047.503    -2931408.781 3  -2284183.273 2
  25429111.288    -2574610.701 2  -2006184.998 1
  25954552.142    26578009.979 2  20710132.808 1
 91  7 25  5 10 45.0050000  0  5 21 11 23 12 17
  22033456.247   -15079604.034 4 -11750315.312 3
  23080371.695   -15942106.702 4 -12422408.063 2
  23487372.634    -2892933.729 3  -2254202.722 2
  25427209.406    -2584582.514 2  -2013955.206 1
  25965392.339    26634974.661 2  20754520.849 1
 91  7 25  5 11  0.0050000  0  5 21 11 23 12 17
  22033643.034   -15078617.888 4 -11749546.880 3
  23077395.944   -15957743.121 3 -12434592.269 2
  23494697.153    -2854422.729 3  -2224194.148 2
  25425334.799    -2594413.023 2  -2021615.312 1
  25976239.116    26691974.794 2  20798936.505 1
 91  7 25  5 11 15.0050000  0  5 21 11 23 12 17
  22033848.388   -15077556.163 4 -11748719.545 3
  23074450.487   -15973224.873 4 -12446655.945 2
  23502036.977    -2815873.427 3  -2194155.735 2
  25423491.376    -2604099.344 2  -2029163.083 1
  25987094.914    26749012.754 2  20843381.540 1
 91  7 25  5 11 30.0050000  0  5 21 11 23 12 17
  22034059.745   -15076418.511 3 -11747833.055 3
  23071533.509   -15988551.289 3 -12458598.595 2
  23509376.503    -2777285.385 3  -2164087.139 2
  25421679.136    -2613640.825 2  -2036597.958 1
  25997953.085    26806088.921 2  20887856.510 1
 91  7 25  5 11 45.0050000  0  5 21 11 23 12 17
  22034295.376   -15075191.859 4 -11746877.215 3
  23068647.103   -16003708.987 3 -12470409.769 2
  23516732.206    -2738645.826 3  -2133978.400 2
  25419892.670    -2623024.152 2  -2043909.618 1
  26008819.073    26863216.146 2  20932371.140 1
 91  7 25  5 12  0.0050000  0  5 21 11 23 12 17
  22034545.106   -15073882.378 3 -11745856.825 3
  23065795.790   -16018704.083 3 -12482094.257 2
  23524090.911    -2699961.039 3  -2103834.415 2
  25418134.386    -2632255.423 2  -2051102.770 1
  26019708.725    26920388.029 2  20976920.599 1
 91  7 25  5 12 15.0050000  0  5 21 11 23 12 17
  22034805.027   -15072499.841 3 -11744779.512 3
  23062973.531   -16033545.823 3 -12493659.230 2
  23531462.214    -2661240.767 3  -2073662.784 2
  25416406.989    -2641343.889 2  -2058184.665 1
  26030590.890    26977594.567 2  21021497.049 1
 91  7 25  5 12 30.0050000  0  5 21 11 23 12 17
  22035082.922   -15071048.842 4 -11743648.846 3
  23060177.064   -16048238.511 3 -12505108.053 2
  23538833.500    -2622489.516 3  -2043467.007 2
  25414702.975    -2650293.949 2  -2065158.702 1
  26041485.951    27034831.237 2  21066097.024 1
 91  7 25  5 12 45.0050000  0  5 21 11 23 12 17
  22035371.321   -15069525.448 4 -11742461.788 3
  23057408.796   -16062777.989 3 -12516437.505 2
  23546214.698    -2583703.736 3  -2013244.330 2
  25413027.126    -2659101.421 2  -2072021.683 1
  26052380.418    27092101.808 2  21110723.392 1
 91  7 25  5 13  0.0050000  0  5 21 11 23 12 17
  22035678.009   -15067926.093 4 -11741215.524 3
  23054672.585   -16077160.357 3 -12527644.528 2
  23553604.272    -2544879.862 3  -1982991.966 2
  25411383.664    -2667762.447 2  -2078770.502 1
  26063291.062    27149409.651 2  21155378.762 1
 91  7 25  5 13 15.0050000  0  5 21 11 23 12 17
  22036000.594   -15066248.426 4 -11739908.240 3
  23051964.852   -16091382.877 3 -12538727.002 2
  23561001.960    -2506015.369 3  -1952707.948 2
  25409759.991    -2676274.240 2  -2085403.032 1
  26074196.908    27206757.223 2  21200065.153 1
 91  7 25  5 13 30.0050000  0  5 21 11 23 12 17
  22036329.460   -15064496.291 4 -11738542.930 3
  23049289.507   -16105449.074 3 -12549687.655 2
  23568403.540    -2467114.248 3  -1922395.395 2
  25408165.390    -2684640.538 2  -2091922.222 1
  26085120.744    27264140.428 2  21244779.335 1
 91  7 25  5 13 45.0050000  0  5 21 11 23 12 17
  22036677.819   -15062664.884 4 -11737115.847 3
  23046645.031   -16119353.985 3 -12560522.634 2
  23575813.199    -2428171.953 3  -1892050.768 2
  25406605.864    -2692856.312 2  -2098324.033 1
  26096040.095    27321564.062 2  21289524.951 1
 91  7 25  5 14  0.0050000  0  5 21 11 23 12 17
  22037042.372   -15060757.779 4 -11735629.783 3
  23044027.254   -16133100.880 3 -12571234.492 2
  23583230.973    -2389192.001 3  -1861676.777 2
  25405065.830    -2700924.789 2  -2104611.165 1
  26106982.813    27379024.324 2  21334299.148 1
 91  7 25  5 14 15.0050000  0  5 21 11 23 12 17
  22037416.522   -15058775.007 4 -11734084.752 3
  23041441.551   -16146689.430 3 -12581822.957 2
  23590656.232    -2350174.409 3  -1831273.469 2
  25403562.075    -2708845.759 2  -2110783.330 1
  26117927.031    27436521.102 2  21379101.742 1
 91  7 25  5 14 30.0050000  0  5 21 11 23 12 17
  22037810.740   -15056719.147 4 -11732482.782 3
  23038884.919   -16160121.974 3 -12592289.862 2
  23598087.791    -2311121.976 3  -1800843.007 2
  25402082.297    -2716621.540 2  -2116842.340 1
  26128864.967    27494051.684 2  21423930.769 1
 91  7 25  5 14 45.0050000  0  5 21 11 23 12 17
  22038213.054   -15054591.072 4 -11730824.529 3
  23036360.065   -16173399.228 3 -12602635.757 2
  23605522.945    -2272035.777 3  -1770386.236 2
  25400631.015    -2724252.699 2  -2122788.686 1
  26139819.673    27551615.090 2  21468785.343 1
 91  7 25  5 15  0.0050000  0  5 21 11 23 12 17
  22038634.268   -15052391.041 4 -11729110.207 3
  23033859.187   -16186521.008 3 -12612860.508 2
  23612967.976    -2232915.960 3  -1739903.275 2
  25399201.004    -2731739.242 2  -2128622.314 1
  26150779.492    27609210.924 2  21513665.183 1
 91  7 25  5 15 15.0050000  0  5 21 11 23 12 17
  22039066.265   -15050113.280 4 -11727335.316 3
  23031396.088   -16199481.290 3 -12622959.418 2
  23620422.918    -2193756.840 3  -1709389.683 2
  25397807.255    -2739075.108 2  -2134338.515 1
  26161748.890    27666844.820 2  21558574.659 1
 91  7 25  5 15 30.0050000  0  5 21 11 23 12 17
  22039512.363   -15047763.995 4 -11725504.701 3
  23028962.987   -16212285.957 3 -12632937.076 2
  23627881.159    -2154564.809 3  -1678850.449 2
  25396436.314    -2746266.354 2  -2139942.087 1
  26172731.796    27724510.470 2  21603508.856 1
 91  7 25  5 15 45.0050000  0  5 21 11 23 12 17
  22039977.934   -15045336.980 4 -11723613.516 3
  23026550.843   -16224928.384 3 -12642788.302 2
  23635342.994    -2115333.501 3  -1648280.585 2
  25395099.540    -2753306.275 2  -2145427.644 1
  26183704.807    27782214.161 2  21648472.770 1
 91  7 25  5 16  0.0050000  0  5 21 11 23 12 17
  22040449.806   -15042839.779 4 -11721667.629 3
  23024171.402   -16237415.808 3 -12652518.745 2
  23642815.928    -2076070.559 3  -1617686.101 2
  25393788.243    -2760202.211 2  -2150801.108 1
  26194687.991    27839948.203 2  21693460.300 1
 91  7 25  5 16 15.0050000  0  5 21 11 23 12 17
  22040943.577   -15040264.662 4 -11719661.035 3
  23021830.926   -16249740.401 3 -12662122.317 2
  23650297.237    -2036768.294 3  -1587060.954 2
  25392499.737    -2766946.299 2  -2156056.267
  26205683.478    27897720.017 2  21738477.302 1
 91  7 25  5 16 30.0050000  0  5 21 11 23 12 17
  22041444.224   -15037618.378 4 -11717598.992 3
  23019515.614   -16261908.632 3 -12671604.049 2
  23657779.158    -1997433.593 3  -1556410.551 2
  25391252.901    -2773544.946 2  -2161198.010 1
  26216682.560    27955522.720 2  21783518.336 1
 91  7 25  5 16 45.0050000  0  5 21 11 23 12 17
  22041964.659   -15034897.327 4 -11715478.686 3
  23017230.595   -16273916.584 3 -12680960.887 2
  23665270.676    -1958062.955 3  -1525732.131 2
  25390025.243    -2779994.288 2  -2166223.441 1
  26227686.144    28013360.131 2  21828586.383 1
 91  7 25  5 17  0.0050000  0  5 21 11 23 12 17
  22042492.895   -15032102.388 4 -11713300.795 3
  23014978.260   -16285764.900 3 -12690193.338 2
  23672773.571    -1918657.220 3  -1495026.371 2
  25388821.876    -2786294.913 2  -2171133.025 1
  26238707.718    28071231.070 2  21873680.596 1
 91  7 25  5 17 15.0050000  0  5 21 11 23 12 17
  22043040.919   -15029233.068 4 -11711064.953 3
  23012749.903   -16297452.729 3 -12699300.722 2
  23680275.891    -1879215.936 3  -1464292.904 2
  25387658.086    -2792446.076 2  -2175926.060 1
  26249731.684    28129135.919 2  21918801.204 1
 91  7 25  5 17 30.0050000  0  5 21 11 23 12 17
  22043603.025   -15026290.514 4 -11708772.045 3
  23010557.824   -16308981.076 3 -12708283.845 2
  23687787.791    -1839740.280 3  -1433532.653 2
  25386507.786    -2798448.756 2  -2180603.445 1
  26260740.363    28187073.192 2  21963947.088 1
 91  7 25  5 17 45.0050000  0  5 21 11 23 12 17
  22044172.339   -15023269.099 4 -11706417.673 3
  23008397.225   -16320343.930 3 -12717138.005 2
  23695308.678    -1800224.810 3  -1402741.379 2
  25385396.154    -2804297.016 2  -2185160.551 1
  26271776.335    28245048.609 2  22009122.694 1
 91  7 25  5 18  0.0050000  0  5 21 11 23 12 17
  22044764.424   -15020173.371 4 -11704005.409 3
  23006264.198   -16331545.566 3 -12725866.545 2
  23702834.364    -1760674.262 3  -1371922.775 2
  25384312.705    -2809995.141 2  -2189600.614 1
  26282823.684    28303057.507 2  22054324.375 1
 91  7 25  5 18 15.0050000  0  5 21 11 23 12 17
  22045368.516   -15017002.703 4 -11701534.760 3
  23004162.057   -16342585.204 3 -12734468.859 2
  23710364.848    -1721087.977 3  -1341076.323 2
  25383261.940    -2815542.215 2  -2193922.977 1
  26293841.053    28361100.234 1  22099552.406 1
 91  7 25  5 18 30.0050000  0  5 21 11 23 12 17
  22045986.673   -15013764.805 4 -11699011.712 3
  23002093.473   -16353470.212 3 -12742950.664 2
  23717906.134    -1681473.951 3  -1310208.237 2
  25382232.744    -2820945.810 2  -2198133.609 1
  26304921.680    28419168.845 2  22144800.635 1
 91  7 25  5 18 45.0050000  0  5 21 11 23 12 17
  22046615.352   -15010452.805 4 -11696430.920 3
  23000053.089   -16364193.456 3 -12751306.439 2
  23725450.107    -1641824.971 3  -1279312.918 2
  25381232.934    -2826198.820 2  -2202226.778 1
  26315972.327    28477270.451 1  22190074.575 1
 91  7 25  5 19  0.0050000  0  4 21 11 23 12
  22047261.097   -15007060.328 4 -11693787.421 3
  22998042.981   -16374748.252 3 -12759530.954 2
  23733002.789    -1602134.943 3  -1248385.628 2
  25380257.118    -2831294.521 2  -2206197.426 1
 91  7 25  5 19 15.0050000  0  4 21 11 23 12
  22047919.738   -15003593.008 4 -11691085.606 3
  22996064.353   -16385139.925 3 -12767628.354 2
  23740560.251    -1562409.649 3  -1217430.843 2
  25379319.360    -2836238.317 2  -2210049.721 1
 91  7 25  5 19 30.0050000  0  5 21 11 23 12 17
  22048592.479   -15000050.727 4 -11688325.378 3
  22994118.410   -16395368.184 3 -12775598.423 2
  23748129.108    -1522648.940 3  -1186448.466 2
  25378404.690    -2841029.858 2  -2213783.340 1
  26349189.636       33110.43312     25794.059 1
 91  7 25  5 19 45.0050000  0  5 21 11 23 12 17
  22049283.507   -14996435.862 4 -11685508.587 3
  22992199.427   -16405435.145 3 -12783442.795 2
  23755703.375    -1482855.171 3  -1155440.335 2
  25377522.110    -2845671.256 2  -2217399.970 1
  26360254.680       91348.424 2     71174.275 1
 91  7 25  5 20  0.0050000  0  5 21 11 23 12 17
  22049985.320   -14992746.777 4 -11682633.967 3
  22990318.538   -16415338.973 3 -12791160.065 2
  23763280.330    -1443026.682 3  -1124405.139 2
  25376668.602    -2850160.705 2  -2220898.259 1
  26371350.889      149618.793 2    116579.704 1
 91  7 25  5 20 15.0050000  0  5 21 11 23 12 17
  22050701.512   -14988985.308 4 -11679702.948 3
  22988465.813   -16425081.169 3 -12798751.373 2
  23770868.976    -1403165.374 3  -1093344.381 2
  25375844.760    -2854499.673 2  -2224279.238 1
  26382430.923      207919.757 2    162008.941 1
 91  7 25  5 20 30.0050000  0  5 21 11 23 12 17
  22051428.209   -14985153.354 4 -11676717.009 3
  22986639.177   -16434663.459 3 -12806218.096 2
  23778456.714    -1363273.257 3  -1062259.607 2
  25375047.320    -2858690.041 2  -2227544.424 1
  26393531.338      266249.238 2    207460.500 1
 91  7 25  5 20 45.0050000  0  5 21 11 23 12 17
  22052172.007   -14981244.313 4 -11673670.989 3
  22984849.116   -16444078.922 3 -12813554.816 2
  23786053.161    -1323344.063 3  -1031145.948 2
  25374279.545    -2862724.748 2  -2230688.316 1
  26404654.839      324613.704 2    252939.226 1
 91  7 25  5 21  0.0050000  0  5 21 11 23 12 17
  22052930.481   -14977265.803 4 -11670570.840 3
  22983092.629   -16453334.904 3 -12820767.261 2
  23793659.187    -1283385.337 3  -1000009.267 2
  25373539.063    -2866611.316 2  -2233716.789 1
  26415768.447      383005.106 2    298439.042 1
 91  7 25  5 21 15.0050000  0  5 21 11 23 12 17
  22053701.239   -14973211.899 4 -11667411.946 3
  22981358.339   -16462425.217 3 -12827850.611 2
  23801270.030    -1243391.143 3   -968844.960 2
  25372827.356    -2870343.567 2  -2236625.004 1
  26426881.443      441429.507 2    343964.466 1
 91  7 25  5 21 30.0050000  0  5 21 11 23 12 17
  22054486.098   -14969082.921 4 -11664194.544 3
  22979662.405   -16471350.073 3 -12834805.039 2
  23808885.654    -1203361.748 3   -937653.218 2
  25372148.926    -2873921.629 2  -2239413.091 1
  26437999.553      499886.257 2    389515.140 1
 91  7 25  5 21 45.0050000  0  5 21 11 23 12 17
  22055288.040   -14964878.681 4 -11660918.503 3
  22977994.060   -16480108.907 3 -12841630.096 2
  23816511.172    -1163297.188 3   -906434.068 2
  25371495.677    -2877345.095 2  -2242080.692 1
  26449137.451      558375.387 2    435091.057 1
 91  7 25  5 22  0.0050000  0  5 21 11 23 12 17
  22056101.377   -14960601.653 4 -11657585.735 3
  22976358.992   -16488703.910 3 -12848327.494 2
  23824141.786    -1123199.904 3   -875189.433 2
  25370868.220    -2880616.242 2  -2244629.599 1
  26460266.642      616894.451 2    480690.264 1
 91  7 25  5 22 15.0050000  0  5 21 11 23 12 17
  22056930.001   -14956247.517 4 -11654192.894 3
  22974752.717   -16497130.504 3 -12854893.665 2
  23831777.198    -1083065.604 3   -843915.956 2
  25370282.713    -2883730.494 2  -2247056.266 1
  26471418.622      675447.640 2    526316.178 1
 91  7 25  5 22 30.0050000  0  5 21 11 23 12 17
  22057774.225   -14951819.581 4 -11650742.535 3
  22973181.202   -16505391.829 3 -12861331.052 2
  23839424.617    -1042897.628 3   -812616.230 2
  25369716.715    -2886690.986 2  -2249363.129 1
  26482558.300      734031.701 2    571965.961 1
 91  7 25  5 22 45.0050000  0  5 21 11 23 12 17
  22058630.420   -14947311.233 4 -11647229.526 3
  22971640.557   -16513481.050 3 -12867634.325 2
  23847075.612    -1002689.589 3   -781285.286 2
  25369184.274    -2889490.832 2  -2251544.801 1
  26493717.488      792652.996 2    617644.866 1
 91  7 25  5 23  0.0050000  0  5 21 11 23 12 17
  22059502.529   -14942728.630 4 -11643658.655 3
  22970136.506   -16521403.942 3 -12873808.004 2
  23854730.813     -962447.602 3   -749927.894 2
  25368680.032    -2892135.948 2  -2253605.886 1
  26504879.362      851305.198 2    663347.848 1
 91  7 25  5 23 15.0050000  0  5 21 11 23 12 17
  22060386.906   -14938075.410 4 -11640032.757 3
  22968660.619   -16529163.925 3 -12879854.736 2
  23862393.204     -922175.248 3   -718546.837 2
  25368207.254    -2894629.718 2  -2255549.104 1
  26516044.518      909984.710 2    709072.164 1
 91  7 25  5 23 30.0050000  0  5 21 11 23 12 17
  22061285.383   -14933350.206 4 -11636350.758 3
  22967213.821   -16536759.457 3 -12885773.332 2
  23870067.600     -881871.419 3   -687141.256 2
  25367760.563    -2896970.650 2  -2257373.159 1
  26527219.288      968692.910 2    754818.669 1
 91  7 25  5 23 45.0050000  0  5 21 11 23 12 17
  22062199.461   -14928551.015 4 -11632611.119 3
  22965798.800   -16544188.350 3 -12891562.067 2
  23877740.182     -841534.095 3   -655709.579 2
  25367347.446    -2899156.593 2  -2259076.493 1
  26538386.258     1027431.155 2    800588.708 1
 91  7 25  5 24  0.0050000  0  5 21 11 23 12 17
  22063125.212   -14923679.079 4 -11628814.795 3
  22964415.260   -16551451.715 3 -12897221.821 2
  23885425.363     -801164.573 3   -624252.802 2
  25366953.822    -2901188.535 2  -2260659.766 1
  26549569.422     1086198.185 2    846381.127 1
 91  7 25  5 24 15.0050000  0  4 21 11 23 12
  22064068.955   -14918733.274 4 -11624960.903 3
  22963065.608   -16558548.209 3 -12902751.537 2
  23893110.840     -760761.740 3   -592770.060 2
  25366599.774    -2903065.168 2  -2262122.059 1
 91  7 25  5 24 30.0050000  0  4 21 11 23 12
  22065025.907   -14913711.635 4 -11621047.930 3
  22961747.122   -16565475.672 3 -12908149.558 2
  23900802.617     -720323.757 3   -561259.949 2
  25366273.002    -2904784.317 2  -2263461.632 1
 91  7 25  5 24 45.0050000  0  4 21 11 23 12
  22065990.032   -14908619.758 4 -11617080.222 3
  22960464.007   -16572239.358 3 -12913419.946 2
  23908507.289     -679856.284 3   -529726.845 2
  25365972.910    -2906351.373 2  -2264682.688 1
 91  7 25  5 25  0.0050000  0  4 21 11 23 12
  22066977.854   -14903451.392 4 -11613052.906 3
  22959205.777   -16578832.839 3 -12918557.710 2
  23916214.352     -639353.119 3   -498165.939 2
  25365707.894    -2907759.924 2  -2265780.204 1
 91  7 25  5 25 15.0050000  0  4 21 11 23 12
  22067974.366   -14898206.493 4 -11608965.960 3
  22957988.013   -16585255.632 3 -12923562.479 2
  23923927.418     -598814.339 3   -466577.285 2
  25365474.951    -2909009.594 2  -2266753.969 1
 91  7 25  5 25 30.0050000  0  4 21 11 23 12
  22068985.554   -14892885.966 4 -11604820.084 3
  22956794.244   -16591508.492 3 -12928434.818 2
  23931647.674     -558240.852 3   -434961.593 2
  25365265.688    -2910101.012 2  -2267604.379 1
 91  7 25  5 25 45.0050000  0  4 21 11 23 12
  22070011.452   -14887492.007 4 -11600616.987 3
  22955636.439   -16597593.473 3 -12933176.356 2
  23939377.213     -517634.809 3   -403320.507 2
  25365082.513    -2911036.395 2  -2268333.263 1
 91  7 25  5 26  0.0050000  0  4 21 11 23 12
  22071055.917   -14882022.285 4 -11596354.846 3
  22954509.522   -16603508.135 3 -12937785.174 2
  23947106.159     -476994.040 3   -371652.367 2
  25364938.618    -2911813.236 2  -2268938.552 1
 91  7 25  5 26 15.0050000  0  4 21 11 23 12
  22072106.700   -14876478.670 4 -11592035.135 3
  22953417.976   -16609254.063 3 -12942262.501 2
  23954849.204     -436320.480 3   -339958.690 2
  25364816.310    -2912433.118 2  -2269421.542 1
 91  7 25  5 26 30.0050000  0  4 21 11 23 12
  22073177.864   -14870856.727 4 -11587654.387 3
  22952356.706   -16614826.616 3 -12946604.739 2
  23962600.329     -395609.729 3   -308236.018 2
  25364725.464    -2912891.371 2  -2269778.570 1
 91  7 25  5 26 45.0050000  0  4 21 11 23 12
  22074263.703   -14865156.674 4 -11583212.766 3
  22951327.230   -16620225.712 3 -12950811.813 2
  23970354.770     -354862.030 3   -276484.574 1
  25364676.603    -2913188.130 2  -2270009.793 1
 91  7 25  5 27  0.0050000  0  4 21 11 23 12
  22075362.439   -14859382.682 4 -11578713.546 3
  22950332.515   -16625455.313 3 -12954886.819 2
  23978115.789     -314081.439 3   -244707.497 2
  25364647.217    -2913327.317 2  -2270118.231 1
 91  7 25  5 27 15.0050000  0  4 21 11 23 12
  22076473.774   -14853541.302 4 -11574161.809 3
  22949369.577   -16630521.868 4 -12958834.765 2
  23985876.529     -273274.762 3   -212910.111 2
  25364650.812    -2913315.294 2  -2270108.799 1
 91  7 25  5 27 30.0050000  0  4 21 11 23 12
  22077599.505   -14847623.281 4 -11569550.351 3
  22948438.120   -16635415.841 3 -12962648.238 2
  23993650.147     -232432.924 3   -181085.285 2
  25364688.295    -2913142.690 2  -2269974.300 1
 91  7 25  5 27 45.0050000  0  4 21 11 23 12
  22078742.599   -14841630.323 4 -11564880.497 3
  22947538.753   -16640138.772 3 -12966328.445 2
  24001424.952     -191557.534 3   -149234.335 2
  25364744.956    -2912811.059 2  -2269715.871 1
 91  7 25  5 28  0.0050000  0  4 21 11 23 12
  22079896.808   -14835560.742 4 -11560150.944 3
  22946674.740   -16644688.810 4 -12969873.918 2
  24009210.262     -150646.910 3   -117355.927 2
  25364836.395    -2912318.516 2  -2269332.072 1
 91  7 25  5 28 15.0050000  0  4 21 11 23 12
  22081061.802   -14829419.400 4 -11555365.474 3
  22945841.632   -16649070.606 4 -12973288.292 2
  24017000.981     -109706.024 3    -85453.945 2
  25364961.408    -2911669.790 2  -2268826.495 1
 91  7 25  5 28 30.0050000  0  4 21 11 23 12
  22082246.271   -14823205.547 4 -11550523.486 3
  22945039.079   -16653283.161 4 -12976570.782 2
  24024798.576      -68734.220 3    -53527.871 2
  25365118.792    -2910863.857 2  -2268198.484 1
 91  7 25  5 28 45.0050000  0  4 21 11 23 12
  22083442.745   -14816919.197 4 -11545625.018 3
  22944266.820   -16657326.308 4 -12979721.275 2
  24032603.378      -27731.369 3    -21577.595 1
  25365303.468    -2909900.520 2  -2267447.821 1
 91  7 25  5 29  0.0050000  0  4 21 11 23 12
  22084652.411   -14810554.505 3 -11540665.502 3
  22943531.729   -16661194.150 3 -12982735.177 2
  24040410.274       13308.167 3     10401.250 2
  25365514.214    -2908773.860 2  -2266569.881 1
